<?xml version="1.0" encoding="UTF-8" standalone="no" ?>
<gpx xmlns="http://www.topografix.com/GPX/1/1" xmlns:xsi="http://www.w3.org/2001/XMLSchema-instance" xsi:schemaLocation="http://www.topografix.com/GPX/1/1 http://www.topografix.com/GPX/1/1/gpx.xsd" version="1.1" creator="VisuGPX - https://www.visugpx.com">
  <metadata>
    <name>Altitoy B J1</name>
    <desc><![CDATA[Trace du parcours B de Samedi 25 Février de l'Altitoy.]]></desc>
  </metadata>
  <trk>
    <name><![CDATA[Altitoy B J1_1]]></name>
    <trkseg>
      <trkpt lat="42.89988" lon="0.1048">
        <ele>1505</ele>
        <time>2017-02-25T07:34:59Z</time>
      </trkpt>
      <trkpt lat="42.89986" lon="0.10481">
        <ele>1504</ele>
        <time>2017-02-25T07:35:04Z</time>
      </trkpt>
      <trkpt lat="42.89985" lon="0.10483">
        <ele>1505</ele>
        <time>2017-02-25T07:35:06Z</time>
      </trkpt>
      <trkpt lat="42.89979" lon="0.10488">
        <ele>1506</ele>
        <time>2017-02-25T07:35:12Z</time>
      </trkpt>
      <trkpt lat="42.89974" lon="0.10494">
        <ele>1507</ele>
        <time>2017-02-25T07:35:18Z</time>
      </trkpt>
      <trkpt lat="42.89972" lon="0.10496">
        <ele>1508</ele>
        <time>2017-02-25T07:35:20Z</time>
      </trkpt>
      <trkpt lat="42.89962" lon="0.10509">
        <ele>1510</ele>
        <time>2017-02-25T07:35:32Z</time>
      </trkpt>
      <trkpt lat="42.8996" lon="0.10511">
        <ele>1511</ele>
        <time>2017-02-25T07:35:34Z</time>
      </trkpt>
      <trkpt lat="42.89959" lon="0.10514">
        <ele>1511</ele>
        <time>2017-02-25T07:35:36Z</time>
      </trkpt>
      <trkpt lat="42.89957" lon="0.10518">
        <ele>1511</ele>
        <time>2017-02-25T07:35:38Z</time>
      </trkpt>
      <trkpt lat="42.89953" lon="0.10523">
        <ele>1514</ele>
        <time>2017-02-25T07:35:42Z</time>
      </trkpt>
      <trkpt lat="42.8995" lon="0.10528">
        <ele>1514</ele>
        <time>2017-02-25T07:35:46Z</time>
      </trkpt>
      <trkpt lat="42.89948" lon="0.1053">
        <ele>1514</ele>
        <time>2017-02-25T07:35:48Z</time>
      </trkpt>
      <trkpt lat="42.89944" lon="0.10535">
        <ele>1515</ele>
        <time>2017-02-25T07:35:52Z</time>
      </trkpt>
      <trkpt lat="42.89943" lon="0.10537">
        <ele>1516</ele>
        <time>2017-02-25T07:35:54Z</time>
      </trkpt>
      <trkpt lat="42.89938" lon="0.10544">
        <ele>1518</ele>
        <time>2017-02-25T07:36:00Z</time>
      </trkpt>
      <trkpt lat="42.89932" lon="0.10554">
        <ele>1519</ele>
        <time>2017-02-25T07:36:08Z</time>
      </trkpt>
      <trkpt lat="42.8993" lon="0.10556">
        <ele>1520</ele>
        <time>2017-02-25T07:36:10Z</time>
      </trkpt>
      <trkpt lat="42.89928" lon="0.10559">
        <ele>1520</ele>
        <time>2017-02-25T07:36:12Z</time>
      </trkpt>
      <trkpt lat="42.89926" lon="0.1056">
        <ele>1521</ele>
        <time>2017-02-25T07:36:14Z</time>
      </trkpt>
      <trkpt lat="42.89923" lon="0.10565">
        <ele>1521</ele>
        <time>2017-02-25T07:36:18Z</time>
      </trkpt>
      <trkpt lat="42.89922" lon="0.10568">
        <ele>1521</ele>
        <time>2017-02-25T07:36:20Z</time>
      </trkpt>
      <trkpt lat="42.89919" lon="0.10573">
        <ele>1522</ele>
        <time>2017-02-25T07:36:24Z</time>
      </trkpt>
      <trkpt lat="42.89905" lon="0.10598">
        <ele>1527</ele>
        <time>2017-02-25T07:36:47Z</time>
      </trkpt>
      <trkpt lat="42.89901" lon="0.10603">
        <ele>1529</ele>
        <time>2017-02-25T07:36:51Z</time>
      </trkpt>
      <trkpt lat="42.89899" lon="0.10608">
        <ele>1530</ele>
        <time>2017-02-25T07:36:56Z</time>
      </trkpt>
      <trkpt lat="42.89898" lon="0.1061">
        <ele>1531</ele>
        <time>2017-02-25T07:36:59Z</time>
      </trkpt>
      <trkpt lat="42.89889" lon="0.10624">
        <ele>1534</ele>
        <time>2017-02-25T07:37:13Z</time>
      </trkpt>
      <trkpt lat="42.89885" lon="0.10629">
        <ele>1536</ele>
        <time>2017-02-25T07:37:19Z</time>
      </trkpt>
      <trkpt lat="42.89883" lon="0.10632">
        <ele>1537</ele>
        <time>2017-02-25T07:37:22Z</time>
      </trkpt>
      <trkpt lat="42.89873" lon="0.10643">
        <ele>1537</ele>
        <time>2017-02-25T07:37:34Z</time>
      </trkpt>
      <trkpt lat="42.89862" lon="0.10655">
        <ele>1542</ele>
        <time>2017-02-25T07:37:49Z</time>
      </trkpt>
      <trkpt lat="42.89858" lon="0.10658">
        <ele>1542</ele>
        <time>2017-02-25T07:37:53Z</time>
      </trkpt>
      <trkpt lat="42.89856" lon="0.1066">
        <ele>1542</ele>
        <time>2017-02-25T07:37:55Z</time>
      </trkpt>
      <trkpt lat="42.89852" lon="0.10663">
        <ele>1543</ele>
        <time>2017-02-25T07:38:00Z</time>
      </trkpt>
      <trkpt lat="42.8985" lon="0.10665">
        <ele>1545</ele>
        <time>2017-02-25T07:38:03Z</time>
      </trkpt>
      <trkpt lat="42.89848" lon="0.10666">
        <ele>1545</ele>
        <time>2017-02-25T07:38:06Z</time>
      </trkpt>
      <trkpt lat="42.89843" lon="0.10668">
        <ele>1546</ele>
        <time>2017-02-25T07:38:10Z</time>
      </trkpt>
      <trkpt lat="42.89842" lon="0.1067">
        <ele>1546</ele>
        <time>2017-02-25T07:38:12Z</time>
      </trkpt>
      <trkpt lat="42.8984" lon="0.10671">
        <ele>1546</ele>
        <time>2017-02-25T07:38:14Z</time>
      </trkpt>
      <trkpt lat="42.89838" lon="0.10672">
        <ele>1547</ele>
        <time>2017-02-25T07:38:17Z</time>
      </trkpt>
      <trkpt lat="42.89836" lon="0.10675">
        <ele>1548</ele>
        <time>2017-02-25T07:38:20Z</time>
      </trkpt>
      <trkpt lat="42.89835" lon="0.10677">
        <ele>1549</ele>
        <time>2017-02-25T07:38:22Z</time>
      </trkpt>
      <trkpt lat="42.89834" lon="0.10679">
        <ele>1549</ele>
        <time>2017-02-25T07:38:24Z</time>
      </trkpt>
      <trkpt lat="42.89832" lon="0.1068">
        <ele>1549</ele>
        <time>2017-02-25T07:38:26Z</time>
      </trkpt>
      <trkpt lat="42.8983" lon="0.10681">
        <ele>1550</ele>
        <time>2017-02-25T07:38:28Z</time>
      </trkpt>
      <trkpt lat="42.89828" lon="0.10683">
        <ele>1550</ele>
        <time>2017-02-25T07:38:30Z</time>
      </trkpt>
      <trkpt lat="42.89826" lon="0.10684">
        <ele>1551</ele>
        <time>2017-02-25T07:38:32Z</time>
      </trkpt>
      <trkpt lat="42.89822" lon="0.10689">
        <ele>1551</ele>
        <time>2017-02-25T07:38:36Z</time>
      </trkpt>
      <trkpt lat="42.8982" lon="0.1069">
        <ele>1552</ele>
        <time>2017-02-25T07:38:39Z</time>
      </trkpt>
      <trkpt lat="42.89815" lon="0.10695">
        <ele>1553</ele>
        <time>2017-02-25T07:38:45Z</time>
      </trkpt>
      <trkpt lat="42.89813" lon="0.10697">
        <ele>1553</ele>
        <time>2017-02-25T07:38:47Z</time>
      </trkpt>
      <trkpt lat="42.89811" lon="0.10699">
        <ele>1553</ele>
        <time>2017-02-25T07:38:49Z</time>
      </trkpt>
      <trkpt lat="42.89809" lon="0.10701">
        <ele>1554</ele>
        <time>2017-02-25T07:38:51Z</time>
      </trkpt>
      <trkpt lat="42.89807" lon="0.10702">
        <ele>1554</ele>
        <time>2017-02-25T07:38:53Z</time>
      </trkpt>
      <trkpt lat="42.89804" lon="0.10703">
        <ele>1555</ele>
        <time>2017-02-25T07:38:55Z</time>
      </trkpt>
      <trkpt lat="42.89802" lon="0.10704">
        <ele>1555</ele>
        <time>2017-02-25T07:38:57Z</time>
      </trkpt>
      <trkpt lat="42.89797" lon="0.1071">
        <ele>1556</ele>
        <time>2017-02-25T07:39:04Z</time>
      </trkpt>
      <trkpt lat="42.89787" lon="0.10721">
        <ele>1559</ele>
        <time>2017-02-25T07:39:14Z</time>
      </trkpt>
      <trkpt lat="42.89785" lon="0.10722">
        <ele>1559</ele>
        <time>2017-02-25T07:39:16Z</time>
      </trkpt>
      <trkpt lat="42.89776" lon="0.10732">
        <ele>1560</ele>
        <time>2017-02-25T07:39:27Z</time>
      </trkpt>
      <trkpt lat="42.89775" lon="0.10734">
        <ele>1560</ele>
        <time>2017-02-25T07:39:29Z</time>
      </trkpt>
      <trkpt lat="42.89772" lon="0.10739">
        <ele>1561</ele>
        <time>2017-02-25T07:39:33Z</time>
      </trkpt>
      <trkpt lat="42.8977" lon="0.1074">
        <ele>1561</ele>
        <time>2017-02-25T07:39:35Z</time>
      </trkpt>
      <trkpt lat="42.89758" lon="0.10749">
        <ele>1562</ele>
        <time>2017-02-25T07:39:47Z</time>
      </trkpt>
      <trkpt lat="42.89752" lon="0.10752">
        <ele>1563</ele>
        <time>2017-02-25T07:39:53Z</time>
      </trkpt>
      <trkpt lat="42.89731" lon="0.10763">
        <ele>1566</ele>
        <time>2017-02-25T07:40:17Z</time>
      </trkpt>
      <trkpt lat="42.89729" lon="0.10763">
        <ele>1567</ele>
        <time>2017-02-25T07:40:19Z</time>
      </trkpt>
      <trkpt lat="42.89725" lon="0.10765">
        <ele>1567</ele>
        <time>2017-02-25T07:40:23Z</time>
      </trkpt>
      <trkpt lat="42.89715" lon="0.1077">
        <ele>1570</ele>
        <time>2017-02-25T07:40:32Z</time>
      </trkpt>
      <trkpt lat="42.89713" lon="0.10771">
        <ele>1570</ele>
        <time>2017-02-25T07:40:34Z</time>
      </trkpt>
      <trkpt lat="42.89709" lon="0.10773">
        <ele>1571</ele>
        <time>2017-02-25T07:40:38Z</time>
      </trkpt>
      <trkpt lat="42.897" lon="0.10777">
        <ele>1572</ele>
        <time>2017-02-25T07:40:47Z</time>
      </trkpt>
      <trkpt lat="42.8969" lon="0.10778">
        <ele>1573</ele>
        <time>2017-02-25T07:40:58Z</time>
      </trkpt>
      <trkpt lat="42.89686" lon="0.1078">
        <ele>1575</ele>
        <time>2017-02-25T07:41:03Z</time>
      </trkpt>
      <trkpt lat="42.89683" lon="0.1078">
        <ele>1575</ele>
        <time>2017-02-25T07:41:05Z</time>
      </trkpt>
      <trkpt lat="42.89674" lon="0.10776">
        <ele>1574</ele>
        <time>2017-02-25T07:41:14Z</time>
      </trkpt>
      <trkpt lat="42.89673" lon="0.10776">
        <ele>1574</ele>
        <time>2017-02-25T07:41:15Z</time>
      </trkpt>
      <trkpt lat="42.8967" lon="0.10776">
        <ele>1574</ele>
        <time>2017-02-25T07:41:18Z</time>
      </trkpt>
      <trkpt lat="42.89669" lon="0.10775">
        <ele>1574</ele>
        <time>2017-02-25T07:41:19Z</time>
      </trkpt>
      <trkpt lat="42.89666" lon="0.10775">
        <ele>1573</ele>
        <time>2017-02-25T07:41:22Z</time>
      </trkpt>
      <trkpt lat="42.89665" lon="0.10775">
        <ele>1573</ele>
        <time>2017-02-25T07:41:23Z</time>
      </trkpt>
      <trkpt lat="42.89662" lon="0.10774">
        <ele>1573</ele>
        <time>2017-02-25T07:41:25Z</time>
      </trkpt>
      <trkpt lat="42.89653" lon="0.10774">
        <ele>1573</ele>
        <time>2017-02-25T07:41:32Z</time>
      </trkpt>
      <trkpt lat="42.89651" lon="0.10774">
        <ele>1573</ele>
        <time>2017-02-25T07:41:34Z</time>
      </trkpt>
      <trkpt lat="42.89648" lon="0.10775">
        <ele>1573</ele>
        <time>2017-02-25T07:41:36Z</time>
      </trkpt>
      <trkpt lat="42.89646" lon="0.10775">
        <ele>1573</ele>
        <time>2017-02-25T07:41:38Z</time>
      </trkpt>
      <trkpt lat="42.89644" lon="0.10775">
        <ele>1574</ele>
        <time>2017-02-25T07:41:40Z</time>
      </trkpt>
      <trkpt lat="42.89643" lon="0.10775">
        <ele>1574</ele>
        <time>2017-02-25T07:41:41Z</time>
      </trkpt>
      <trkpt lat="42.89642" lon="0.10775">
        <ele>1575</ele>
        <time>2017-02-25T07:41:42Z</time>
      </trkpt>
      <trkpt lat="42.89641" lon="0.10774">
        <ele>1575</ele>
        <time>2017-02-25T07:41:43Z</time>
      </trkpt>
      <trkpt lat="42.89638" lon="0.10774">
        <ele>1576</ele>
        <time>2017-02-25T07:41:46Z</time>
      </trkpt>
      <trkpt lat="42.89636" lon="0.10774">
        <ele>1576</ele>
        <time>2017-02-25T07:41:49Z</time>
      </trkpt>
      <trkpt lat="42.89635" lon="0.10774">
        <ele>1576</ele>
        <time>2017-02-25T07:41:50Z</time>
      </trkpt>
      <trkpt lat="42.89634" lon="0.10774">
        <ele>1576</ele>
        <time>2017-02-25T07:41:51Z</time>
      </trkpt>
      <trkpt lat="42.89632" lon="0.10775">
        <ele>1576</ele>
        <time>2017-02-25T07:41:53Z</time>
      </trkpt>
      <trkpt lat="42.89632" lon="0.10775">
        <ele>1576</ele>
        <time>2017-02-25T07:41:54Z</time>
      </trkpt>
      <trkpt lat="42.89631" lon="0.10775">
        <ele>1577</ele>
        <time>2017-02-25T07:41:55Z</time>
      </trkpt>
      <trkpt lat="42.8963" lon="0.10776">
        <ele>1577</ele>
        <time>2017-02-25T07:41:56Z</time>
      </trkpt>
      <trkpt lat="42.89628" lon="0.10776">
        <ele>1577</ele>
        <time>2017-02-25T07:41:58Z</time>
      </trkpt>
      <trkpt lat="42.89627" lon="0.10776">
        <ele>1577</ele>
        <time>2017-02-25T07:41:59Z</time>
      </trkpt>
      <trkpt lat="42.89627" lon="0.10777">
        <ele>1577</ele>
        <time>2017-02-25T07:42:00Z</time>
      </trkpt>
      <trkpt lat="42.89618" lon="0.10782">
        <ele>1579</ele>
        <time>2017-02-25T07:42:12Z</time>
      </trkpt>
      <trkpt lat="42.89616" lon="0.10782">
        <ele>1579</ele>
        <time>2017-02-25T07:42:13Z</time>
      </trkpt>
      <trkpt lat="42.89615" lon="0.10783">
        <ele>1579</ele>
        <time>2017-02-25T07:42:14Z</time>
      </trkpt>
      <trkpt lat="42.89613" lon="0.10784">
        <ele>1579</ele>
        <time>2017-02-25T07:42:16Z</time>
      </trkpt>
      <trkpt lat="42.89612" lon="0.10784">
        <ele>1579</ele>
        <time>2017-02-25T07:42:17Z</time>
      </trkpt>
      <trkpt lat="42.89611" lon="0.10785">
        <ele>1579</ele>
        <time>2017-02-25T07:42:18Z</time>
      </trkpt>
      <trkpt lat="42.89609" lon="0.10785">
        <ele>1579</ele>
        <time>2017-02-25T07:42:19Z</time>
      </trkpt>
      <trkpt lat="42.89608" lon="0.10786">
        <ele>1580</ele>
        <time>2017-02-25T07:42:20Z</time>
      </trkpt>
      <trkpt lat="42.89604" lon="0.10787">
        <ele>1580</ele>
        <time>2017-02-25T07:42:24Z</time>
      </trkpt>
      <trkpt lat="42.89604" lon="0.10787">
        <ele>1580</ele>
        <time>2017-02-25T07:42:25Z</time>
      </trkpt>
      <trkpt lat="42.8959" lon="0.10789">
        <ele>1582</ele>
        <time>2017-02-25T07:42:42Z</time>
      </trkpt>
      <trkpt lat="42.8958" lon="0.10788">
        <ele>1583</ele>
        <time>2017-02-25T07:42:52Z</time>
      </trkpt>
      <trkpt lat="42.89578" lon="0.10788">
        <ele>1584</ele>
        <time>2017-02-25T07:42:54Z</time>
      </trkpt>
      <trkpt lat="42.89578" lon="0.10788">
        <ele>1584</ele>
        <time>2017-02-25T07:42:55Z</time>
      </trkpt>
      <trkpt lat="42.89574" lon="0.10787">
        <ele>1584</ele>
        <time>2017-02-25T07:43:00Z</time>
      </trkpt>
      <trkpt lat="42.89573" lon="0.10786">
        <ele>1584</ele>
        <time>2017-02-25T07:43:01Z</time>
      </trkpt>
      <trkpt lat="42.89569" lon="0.10785">
        <ele>1585</ele>
        <time>2017-02-25T07:43:06Z</time>
      </trkpt>
      <trkpt lat="42.89567" lon="0.10785">
        <ele>1585</ele>
        <time>2017-02-25T07:43:08Z</time>
      </trkpt>
      <trkpt lat="42.89566" lon="0.10785">
        <ele>1586</ele>
        <time>2017-02-25T07:43:09Z</time>
      </trkpt>
      <trkpt lat="42.89565" lon="0.10784">
        <ele>1586</ele>
        <time>2017-02-25T07:43:10Z</time>
      </trkpt>
      <trkpt lat="42.89562" lon="0.10784">
        <ele>1586</ele>
        <time>2017-02-25T07:43:13Z</time>
      </trkpt>
      <trkpt lat="42.89561" lon="0.10784">
        <ele>1586</ele>
        <time>2017-02-25T07:43:14Z</time>
      </trkpt>
      <trkpt lat="42.8956" lon="0.10783">
        <ele>1586</ele>
        <time>2017-02-25T07:43:15Z</time>
      </trkpt>
      <trkpt lat="42.89558" lon="0.10783">
        <ele>1586</ele>
        <time>2017-02-25T07:43:18Z</time>
      </trkpt>
      <trkpt lat="42.89557" lon="0.10783">
        <ele>1586</ele>
        <time>2017-02-25T07:43:19Z</time>
      </trkpt>
      <trkpt lat="42.89556" lon="0.10783">
        <ele>1586</ele>
        <time>2017-02-25T07:43:20Z</time>
      </trkpt>
      <trkpt lat="42.89553" lon="0.10782">
        <ele>1586</ele>
        <time>2017-02-25T07:43:23Z</time>
      </trkpt>
      <trkpt lat="42.89546" lon="0.10781">
        <ele>1587</ele>
        <time>2017-02-25T07:43:30Z</time>
      </trkpt>
      <trkpt lat="42.89545" lon="0.10781">
        <ele>1588</ele>
        <time>2017-02-25T07:43:31Z</time>
      </trkpt>
      <trkpt lat="42.89537" lon="0.10781">
        <ele>1589</ele>
        <time>2017-02-25T07:43:40Z</time>
      </trkpt>
      <trkpt lat="42.89535" lon="0.10781">
        <ele>1590</ele>
        <time>2017-02-25T07:43:42Z</time>
      </trkpt>
      <trkpt lat="42.89535" lon="0.1078">
        <ele>1590</ele>
        <time>2017-02-25T07:43:43Z</time>
      </trkpt>
      <trkpt lat="42.89533" lon="0.10779">
        <ele>1590</ele>
        <time>2017-02-25T07:43:45Z</time>
      </trkpt>
      <trkpt lat="42.89532" lon="0.10779">
        <ele>1590</ele>
        <time>2017-02-25T07:43:46Z</time>
      </trkpt>
      <trkpt lat="42.89532" lon="0.10779">
        <ele>1590</ele>
        <time>2017-02-25T07:43:47Z</time>
      </trkpt>
      <trkpt lat="42.89531" lon="0.10778">
        <ele>1590</ele>
        <time>2017-02-25T07:43:48Z</time>
      </trkpt>
      <trkpt lat="42.89529" lon="0.10778">
        <ele>1591</ele>
        <time>2017-02-25T07:43:50Z</time>
      </trkpt>
      <trkpt lat="42.89528" lon="0.10777">
        <ele>1591</ele>
        <time>2017-02-25T07:43:51Z</time>
      </trkpt>
      <trkpt lat="42.89519" lon="0.10772">
        <ele>1593</ele>
        <time>2017-02-25T07:44:01Z</time>
      </trkpt>
      <trkpt lat="42.89506" lon="0.10771">
        <ele>1594</ele>
        <time>2017-02-25T07:44:15Z</time>
      </trkpt>
      <trkpt lat="42.89505" lon="0.10771">
        <ele>1594</ele>
        <time>2017-02-25T07:44:16Z</time>
      </trkpt>
      <trkpt lat="42.89501" lon="0.1077">
        <ele>1596</ele>
        <time>2017-02-25T07:44:21Z</time>
      </trkpt>
      <trkpt lat="42.89491" lon="0.10767">
        <ele>1597</ele>
        <time>2017-02-25T07:44:30Z</time>
      </trkpt>
      <trkpt lat="42.89487" lon="0.10765">
        <ele>1597</ele>
        <time>2017-02-25T07:44:35Z</time>
      </trkpt>
      <trkpt lat="42.89479" lon="0.10762">
        <ele>1598</ele>
        <time>2017-02-25T07:44:44Z</time>
      </trkpt>
      <trkpt lat="42.89478" lon="0.10762">
        <ele>1599</ele>
        <time>2017-02-25T07:44:45Z</time>
      </trkpt>
      <trkpt lat="42.89474" lon="0.10761">
        <ele>1599</ele>
        <time>2017-02-25T07:44:49Z</time>
      </trkpt>
      <trkpt lat="42.8947" lon="0.10761">
        <ele>1600</ele>
        <time>2017-02-25T07:44:53Z</time>
      </trkpt>
      <trkpt lat="42.89469" lon="0.1076">
        <ele>1600</ele>
        <time>2017-02-25T07:44:54Z</time>
      </trkpt>
      <trkpt lat="42.89465" lon="0.1076">
        <ele>1601</ele>
        <time>2017-02-25T07:44:59Z</time>
      </trkpt>
      <trkpt lat="42.8943" lon="0.1076">
        <ele>1604</ele>
        <time>2017-02-25T07:45:31Z</time>
      </trkpt>
      <trkpt lat="42.89418" lon="0.10763">
        <ele>1605</ele>
        <time>2017-02-25T07:45:41Z</time>
      </trkpt>
      <trkpt lat="42.89408" lon="0.10764">
        <ele>1607</ele>
        <time>2017-02-25T07:45:51Z</time>
      </trkpt>
      <trkpt lat="42.89404" lon="0.10763">
        <ele>1608</ele>
        <time>2017-02-25T07:45:55Z</time>
      </trkpt>
      <trkpt lat="42.89403" lon="0.10763">
        <ele>1608</ele>
        <time>2017-02-25T07:45:56Z</time>
      </trkpt>
      <trkpt lat="42.89398" lon="0.10763">
        <ele>1608</ele>
        <time>2017-02-25T07:46:00Z</time>
      </trkpt>
      <trkpt lat="42.89389" lon="0.10763">
        <ele>1610</ele>
        <time>2017-02-25T07:46:08Z</time>
      </trkpt>
      <trkpt lat="42.89379" lon="0.10762">
        <ele>1612</ele>
        <time>2017-02-25T07:46:20Z</time>
      </trkpt>
      <trkpt lat="42.89377" lon="0.10761">
        <ele>1612</ele>
        <time>2017-02-25T07:46:24Z</time>
      </trkpt>
      <trkpt lat="42.89376" lon="0.10761">
        <ele>1612</ele>
        <time>2017-02-25T07:46:26Z</time>
      </trkpt>
      <trkpt lat="42.89375" lon="0.10761">
        <ele>1612</ele>
        <time>2017-02-25T07:46:27Z</time>
      </trkpt>
      <trkpt lat="42.8937" lon="0.10762">
        <ele>1614</ele>
        <time>2017-02-25T07:46:32Z</time>
      </trkpt>
      <trkpt lat="42.89369" lon="0.10762">
        <ele>1614</ele>
        <time>2017-02-25T07:46:33Z</time>
      </trkpt>
      <trkpt lat="42.89364" lon="0.10763">
        <ele>1614</ele>
        <time>2017-02-25T07:46:38Z</time>
      </trkpt>
      <trkpt lat="42.89363" lon="0.10763">
        <ele>1614</ele>
        <time>2017-02-25T07:46:39Z</time>
      </trkpt>
      <trkpt lat="42.89362" lon="0.10763">
        <ele>1614</ele>
        <time>2017-02-25T07:46:40Z</time>
      </trkpt>
      <trkpt lat="42.89361" lon="0.10763">
        <ele>1614</ele>
        <time>2017-02-25T07:46:41Z</time>
      </trkpt>
      <trkpt lat="42.89358" lon="0.10764">
        <ele>1614</ele>
        <time>2017-02-25T07:46:44Z</time>
      </trkpt>
      <trkpt lat="42.89355" lon="0.10764">
        <ele>1615</ele>
        <time>2017-02-25T07:46:47Z</time>
      </trkpt>
      <trkpt lat="42.89352" lon="0.10765">
        <ele>1615</ele>
        <time>2017-02-25T07:46:50Z</time>
      </trkpt>
      <trkpt lat="42.89349" lon="0.10766">
        <ele>1616</ele>
        <time>2017-02-25T07:46:53Z</time>
      </trkpt>
      <trkpt lat="42.89346" lon="0.10765">
        <ele>1616</ele>
        <time>2017-02-25T07:46:56Z</time>
      </trkpt>
      <trkpt lat="42.89345" lon="0.10764">
        <ele>1616</ele>
        <time>2017-02-25T07:46:57Z</time>
      </trkpt>
      <trkpt lat="42.89342" lon="0.10763">
        <ele>1616</ele>
        <time>2017-02-25T07:47:00Z</time>
      </trkpt>
      <trkpt lat="42.89334" lon="0.10758">
        <ele>1617</ele>
        <time>2017-02-25T07:47:09Z</time>
      </trkpt>
      <trkpt lat="42.89333" lon="0.10757">
        <ele>1617</ele>
        <time>2017-02-25T07:47:10Z</time>
      </trkpt>
      <trkpt lat="42.89332" lon="0.10757">
        <ele>1618</ele>
        <time>2017-02-25T07:47:11Z</time>
      </trkpt>
      <trkpt lat="42.89331" lon="0.10756">
        <ele>1618</ele>
        <time>2017-02-25T07:47:12Z</time>
      </trkpt>
      <trkpt lat="42.89331" lon="0.10755">
        <ele>1618</ele>
        <time>2017-02-25T07:47:13Z</time>
      </trkpt>
      <trkpt lat="42.89318" lon="0.10743">
        <ele>1621</ele>
        <time>2017-02-25T07:47:27Z</time>
      </trkpt>
      <trkpt lat="42.8931" lon="0.10738">
        <ele>1622</ele>
        <time>2017-02-25T07:47:36Z</time>
      </trkpt>
      <trkpt lat="42.89309" lon="0.10737">
        <ele>1622</ele>
        <time>2017-02-25T07:47:37Z</time>
      </trkpt>
      <trkpt lat="42.89308" lon="0.10737">
        <ele>1622</ele>
        <time>2017-02-25T07:47:38Z</time>
      </trkpt>
      <trkpt lat="42.89305" lon="0.10736">
        <ele>1622</ele>
        <time>2017-02-25T07:47:41Z</time>
      </trkpt>
      <trkpt lat="42.89304" lon="0.10736">
        <ele>1622</ele>
        <time>2017-02-25T07:47:42Z</time>
      </trkpt>
      <trkpt lat="42.89302" lon="0.10735">
        <ele>1623</ele>
        <time>2017-02-25T07:47:44Z</time>
      </trkpt>
      <trkpt lat="42.89293" lon="0.10735">
        <ele>1625</ele>
        <time>2017-02-25T07:47:53Z</time>
      </trkpt>
      <trkpt lat="42.89291" lon="0.10734">
        <ele>1625</ele>
        <time>2017-02-25T07:47:55Z</time>
      </trkpt>
      <trkpt lat="42.89288" lon="0.10733">
        <ele>1625</ele>
        <time>2017-02-25T07:47:58Z</time>
      </trkpt>
      <trkpt lat="42.89283" lon="0.10731">
        <ele>1626</ele>
        <time>2017-02-25T07:48:03Z</time>
      </trkpt>
      <trkpt lat="42.89264" lon="0.10727">
        <ele>1628</ele>
        <time>2017-02-25T07:48:19Z</time>
      </trkpt>
      <trkpt lat="42.89255" lon="0.10726">
        <ele>1630</ele>
        <time>2017-02-25T07:48:28Z</time>
      </trkpt>
      <trkpt lat="42.89246" lon="0.10723">
        <ele>1632</ele>
        <time>2017-02-25T07:48:36Z</time>
      </trkpt>
      <trkpt lat="42.89244" lon="0.10723">
        <ele>1632</ele>
        <time>2017-02-25T07:48:38Z</time>
      </trkpt>
      <trkpt lat="42.89243" lon="0.10722">
        <ele>1632</ele>
        <time>2017-02-25T07:48:39Z</time>
      </trkpt>
      <trkpt lat="42.8924" lon="0.10722">
        <ele>1632</ele>
        <time>2017-02-25T07:48:42Z</time>
      </trkpt>
      <trkpt lat="42.89239" lon="0.10722">
        <ele>1632</ele>
        <time>2017-02-25T07:48:43Z</time>
      </trkpt>
      <trkpt lat="42.89237" lon="0.10722">
        <ele>1633</ele>
        <time>2017-02-25T07:48:45Z</time>
      </trkpt>
      <trkpt lat="42.89226" lon="0.10722">
        <ele>1633</ele>
        <time>2017-02-25T07:48:55Z</time>
      </trkpt>
      <trkpt lat="42.89218" lon="0.10723">
        <ele>1635</ele>
        <time>2017-02-25T07:49:02Z</time>
      </trkpt>
      <trkpt lat="42.89217" lon="0.10723">
        <ele>1635</ele>
        <time>2017-02-25T07:49:03Z</time>
      </trkpt>
      <trkpt lat="42.89216" lon="0.10723">
        <ele>1635</ele>
        <time>2017-02-25T07:49:04Z</time>
      </trkpt>
      <trkpt lat="42.89205" lon="0.10721">
        <ele>1636</ele>
        <time>2017-02-25T07:49:15Z</time>
      </trkpt>
      <trkpt lat="42.89202" lon="0.1072">
        <ele>1636</ele>
        <time>2017-02-25T07:49:18Z</time>
      </trkpt>
      <trkpt lat="42.89199" lon="0.1072">
        <ele>1637</ele>
        <time>2017-02-25T07:49:21Z</time>
      </trkpt>
      <trkpt lat="42.89188" lon="0.10719">
        <ele>1638</ele>
        <time>2017-02-25T07:49:32Z</time>
      </trkpt>
      <trkpt lat="42.89187" lon="0.10719">
        <ele>1639</ele>
        <time>2017-02-25T07:49:33Z</time>
      </trkpt>
      <trkpt lat="42.89183" lon="0.10718">
        <ele>1640</ele>
        <time>2017-02-25T07:49:37Z</time>
      </trkpt>
      <trkpt lat="42.89182" lon="0.10718">
        <ele>1640</ele>
        <time>2017-02-25T07:49:38Z</time>
      </trkpt>
      <trkpt lat="42.8918" lon="0.10718">
        <ele>1641</ele>
        <time>2017-02-25T07:49:40Z</time>
      </trkpt>
      <trkpt lat="42.89171" lon="0.10714">
        <ele>1641</ele>
        <time>2017-02-25T07:49:49Z</time>
      </trkpt>
      <trkpt lat="42.89162" lon="0.10713">
        <ele>1642</ele>
        <time>2017-02-25T07:49:57Z</time>
      </trkpt>
      <trkpt lat="42.89161" lon="0.10713">
        <ele>1642</ele>
        <time>2017-02-25T07:49:59Z</time>
      </trkpt>
      <trkpt lat="42.89161" lon="0.10713">
        <ele>1643</ele>
        <time>2017-02-25T07:50:00Z</time>
      </trkpt>
      <trkpt lat="42.89159" lon="0.10714">
        <ele>1643</ele>
        <time>2017-02-25T07:50:03Z</time>
      </trkpt>
      <trkpt lat="42.89159" lon="0.10714">
        <ele>1643</ele>
        <time>2017-02-25T07:50:04Z</time>
      </trkpt>
      <trkpt lat="42.89157" lon="0.10714">
        <ele>1643</ele>
        <time>2017-02-25T07:50:08Z</time>
      </trkpt>
      <trkpt lat="42.89157" lon="0.10714">
        <ele>1643</ele>
        <time>2017-02-25T07:50:09Z</time>
      </trkpt>
      <trkpt lat="42.89156" lon="0.10715">
        <ele>1643</ele>
        <time>2017-02-25T07:50:11Z</time>
      </trkpt>
      <trkpt lat="42.89148" lon="0.10714">
        <ele>1645</ele>
        <time>2017-02-25T07:50:20Z</time>
      </trkpt>
      <trkpt lat="42.89146" lon="0.10715">
        <ele>1645</ele>
        <time>2017-02-25T07:50:23Z</time>
      </trkpt>
      <trkpt lat="42.89145" lon="0.10715">
        <ele>1645</ele>
        <time>2017-02-25T07:50:24Z</time>
      </trkpt>
      <trkpt lat="42.89144" lon="0.10716">
        <ele>1645</ele>
        <time>2017-02-25T07:50:27Z</time>
      </trkpt>
      <trkpt lat="42.89143" lon="0.10716">
        <ele>1645</ele>
        <time>2017-02-25T07:50:28Z</time>
      </trkpt>
      <trkpt lat="42.89141" lon="0.10717">
        <ele>1646</ele>
        <time>2017-02-25T07:50:31Z</time>
      </trkpt>
      <trkpt lat="42.89141" lon="0.10717">
        <ele>1646</ele>
        <time>2017-02-25T07:50:32Z</time>
      </trkpt>
      <trkpt lat="42.89139" lon="0.10718">
        <ele>1646</ele>
        <time>2017-02-25T07:50:35Z</time>
      </trkpt>
      <trkpt lat="42.89138" lon="0.10718">
        <ele>1646</ele>
        <time>2017-02-25T07:50:36Z</time>
      </trkpt>
      <trkpt lat="42.89138" lon="0.10718">
        <ele>1646</ele>
        <time>2017-02-25T07:50:37Z</time>
      </trkpt>
      <trkpt lat="42.89134" lon="0.1072">
        <ele>1646</ele>
        <time>2017-02-25T07:50:41Z</time>
      </trkpt>
      <trkpt lat="42.89133" lon="0.1072">
        <ele>1646</ele>
        <time>2017-02-25T07:50:42Z</time>
      </trkpt>
      <trkpt lat="42.8911" lon="0.10728">
        <ele>1649</ele>
        <time>2017-02-25T07:51:03Z</time>
      </trkpt>
      <trkpt lat="42.89099" lon="0.10728">
        <ele>1651</ele>
        <time>2017-02-25T07:51:14Z</time>
      </trkpt>
      <trkpt lat="42.8909" lon="0.10726">
        <ele>1653</ele>
        <time>2017-02-25T07:51:22Z</time>
      </trkpt>
      <trkpt lat="42.89082" lon="0.10725">
        <ele>1653</ele>
        <time>2017-02-25T07:51:29Z</time>
      </trkpt>
      <trkpt lat="42.89081" lon="0.10725">
        <ele>1653</ele>
        <time>2017-02-25T07:51:30Z</time>
      </trkpt>
      <trkpt lat="42.89072" lon="0.10728">
        <ele>1655</ele>
        <time>2017-02-25T07:51:39Z</time>
      </trkpt>
      <trkpt lat="42.8907" lon="0.10729">
        <ele>1655</ele>
        <time>2017-02-25T07:51:40Z</time>
      </trkpt>
      <trkpt lat="42.89069" lon="0.1073">
        <ele>1655</ele>
        <time>2017-02-25T07:51:41Z</time>
      </trkpt>
      <trkpt lat="42.89066" lon="0.10733">
        <ele>1656</ele>
        <time>2017-02-25T07:51:44Z</time>
      </trkpt>
      <trkpt lat="42.89064" lon="0.10734">
        <ele>1656</ele>
        <time>2017-02-25T07:51:45Z</time>
      </trkpt>
      <trkpt lat="42.89063" lon="0.10735">
        <ele>1656</ele>
        <time>2017-02-25T07:51:46Z</time>
      </trkpt>
      <trkpt lat="42.89054" lon="0.10742">
        <ele>1658</ele>
        <time>2017-02-25T07:51:53Z</time>
      </trkpt>
      <trkpt lat="42.89044" lon="0.10745">
        <ele>1658</ele>
        <time>2017-02-25T07:51:59Z</time>
      </trkpt>
      <trkpt lat="42.89036" lon="0.10749">
        <ele>1659</ele>
        <time>2017-02-25T07:52:07Z</time>
      </trkpt>
      <trkpt lat="42.89025" lon="0.10749">
        <ele>1660</ele>
        <time>2017-02-25T07:52:17Z</time>
      </trkpt>
      <trkpt lat="42.89017" lon="0.10751">
        <ele>1662</ele>
        <time>2017-02-25T07:52:24Z</time>
      </trkpt>
      <trkpt lat="42.88997" lon="0.10751">
        <ele>1664</ele>
        <time>2017-02-25T07:52:41Z</time>
      </trkpt>
      <trkpt lat="42.88988" lon="0.1075">
        <ele>1664</ele>
        <time>2017-02-25T07:52:48Z</time>
      </trkpt>
      <trkpt lat="42.88985" lon="0.10749">
        <ele>1664</ele>
        <time>2017-02-25T07:52:49Z</time>
      </trkpt>
      <trkpt lat="42.88983" lon="0.10748">
        <ele>1665</ele>
        <time>2017-02-25T07:52:51Z</time>
      </trkpt>
      <trkpt lat="42.88955" lon="0.10746">
        <ele>1668</ele>
        <time>2017-02-25T07:53:15Z</time>
      </trkpt>
      <trkpt lat="42.88952" lon="0.10747">
        <ele>1668</ele>
        <time>2017-02-25T07:53:17Z</time>
      </trkpt>
      <trkpt lat="42.88944" lon="0.10752">
        <ele>1669</ele>
        <time>2017-02-25T07:53:24Z</time>
      </trkpt>
      <trkpt lat="42.88935" lon="0.10755">
        <ele>1669</ele>
        <time>2017-02-25T07:53:32Z</time>
      </trkpt>
      <trkpt lat="42.88934" lon="0.10755">
        <ele>1669</ele>
        <time>2017-02-25T07:53:33Z</time>
      </trkpt>
      <trkpt lat="42.88927" lon="0.10759">
        <ele>1670</ele>
        <time>2017-02-25T07:53:40Z</time>
      </trkpt>
      <trkpt lat="42.88926" lon="0.1076">
        <ele>1670</ele>
        <time>2017-02-25T07:53:41Z</time>
      </trkpt>
      <trkpt lat="42.88922" lon="0.10762">
        <ele>1672</ele>
        <time>2017-02-25T07:53:46Z</time>
      </trkpt>
      <trkpt lat="42.88908" lon="0.10777">
        <ele>1672</ele>
        <time>2017-02-25T07:54:07Z</time>
      </trkpt>
      <trkpt lat="42.88895" lon="0.10785">
        <ele>1673</ele>
        <time>2017-02-25T07:54:20Z</time>
      </trkpt>
      <trkpt lat="42.88893" lon="0.10787">
        <ele>1673</ele>
        <time>2017-02-25T07:54:23Z</time>
      </trkpt>
      <trkpt lat="42.88892" lon="0.10787">
        <ele>1673</ele>
        <time>2017-02-25T07:54:24Z</time>
      </trkpt>
      <trkpt lat="42.88891" lon="0.10788">
        <ele>1674</ele>
        <time>2017-02-25T07:54:25Z</time>
      </trkpt>
      <trkpt lat="42.8889" lon="0.10788">
        <ele>1674</ele>
        <time>2017-02-25T07:54:26Z</time>
      </trkpt>
      <trkpt lat="42.88887" lon="0.1079">
        <ele>1674</ele>
        <time>2017-02-25T07:54:29Z</time>
      </trkpt>
      <trkpt lat="42.88886" lon="0.1079">
        <ele>1674</ele>
        <time>2017-02-25T07:54:30Z</time>
      </trkpt>
      <trkpt lat="42.88886" lon="0.1079">
        <ele>1675</ele>
        <time>2017-02-25T07:54:31Z</time>
      </trkpt>
      <trkpt lat="42.88876" lon="0.10794">
        <ele>1675</ele>
        <time>2017-02-25T07:54:38Z</time>
      </trkpt>
      <trkpt lat="42.88871" lon="0.10796">
        <ele>1676</ele>
        <time>2017-02-25T07:54:42Z</time>
      </trkpt>
      <trkpt lat="42.88869" lon="0.10796">
        <ele>1676</ele>
        <time>2017-02-25T07:54:43Z</time>
      </trkpt>
      <trkpt lat="42.88866" lon="0.10798">
        <ele>1677</ele>
        <time>2017-02-25T07:54:47Z</time>
      </trkpt>
      <trkpt lat="42.88864" lon="0.10798">
        <ele>1676</ele>
        <time>2017-02-25T07:54:49Z</time>
      </trkpt>
      <trkpt lat="42.88863" lon="0.10799">
        <ele>1676</ele>
        <time>2017-02-25T07:54:50Z</time>
      </trkpt>
      <trkpt lat="42.88861" lon="0.10799">
        <ele>1677</ele>
        <time>2017-02-25T07:54:52Z</time>
      </trkpt>
      <trkpt lat="42.88859" lon="0.108">
        <ele>1677</ele>
        <time>2017-02-25T07:54:55Z</time>
      </trkpt>
      <trkpt lat="42.88858" lon="0.10801">
        <ele>1677</ele>
        <time>2017-02-25T07:54:57Z</time>
      </trkpt>
      <trkpt lat="42.88857" lon="0.10801">
        <ele>1677</ele>
        <time>2017-02-25T07:54:58Z</time>
      </trkpt>
      <trkpt lat="42.88855" lon="0.10801">
        <ele>1677</ele>
        <time>2017-02-25T07:55:01Z</time>
      </trkpt>
      <trkpt lat="42.88854" lon="0.10801">
        <ele>1677</ele>
        <time>2017-02-25T07:55:02Z</time>
      </trkpt>
      <trkpt lat="42.88852" lon="0.10802">
        <ele>1678</ele>
        <time>2017-02-25T07:55:05Z</time>
      </trkpt>
      <trkpt lat="42.88851" lon="0.10802">
        <ele>1678</ele>
        <time>2017-02-25T07:55:06Z</time>
      </trkpt>
      <trkpt lat="42.8885" lon="0.10802">
        <ele>1678</ele>
        <time>2017-02-25T07:55:08Z</time>
      </trkpt>
      <trkpt lat="42.88849" lon="0.10803">
        <ele>1678</ele>
        <time>2017-02-25T07:55:10Z</time>
      </trkpt>
      <trkpt lat="42.88847" lon="0.10804">
        <ele>1679</ele>
        <time>2017-02-25T07:55:13Z</time>
      </trkpt>
      <trkpt lat="42.88844" lon="0.10806">
        <ele>1678</ele>
        <time>2017-02-25T07:55:17Z</time>
      </trkpt>
      <trkpt lat="42.88842" lon="0.10807">
        <ele>1678</ele>
        <time>2017-02-25T07:55:20Z</time>
      </trkpt>
      <trkpt lat="42.88841" lon="0.10807">
        <ele>1678</ele>
        <time>2017-02-25T07:55:21Z</time>
      </trkpt>
      <trkpt lat="42.88839" lon="0.10808">
        <ele>1679</ele>
        <time>2017-02-25T07:55:25Z</time>
      </trkpt>
      <trkpt lat="42.88838" lon="0.10808">
        <ele>1679</ele>
        <time>2017-02-25T07:55:26Z</time>
      </trkpt>
      <trkpt lat="42.88835" lon="0.1081">
        <ele>1680</ele>
        <time>2017-02-25T07:55:34Z</time>
      </trkpt>
      <trkpt lat="42.88834" lon="0.1081">
        <ele>1680</ele>
        <time>2017-02-25T07:55:35Z</time>
      </trkpt>
      <trkpt lat="42.88832" lon="0.10811">
        <ele>1680</ele>
        <time>2017-02-25T07:55:39Z</time>
      </trkpt>
      <trkpt lat="42.88832" lon="0.10811">
        <ele>1680</ele>
        <time>2017-02-25T07:55:40Z</time>
      </trkpt>
      <trkpt lat="42.8883" lon="0.10812">
        <ele>1680</ele>
        <time>2017-02-25T07:55:42Z</time>
      </trkpt>
      <trkpt lat="42.8883" lon="0.10812">
        <ele>1681</ele>
        <time>2017-02-25T07:55:43Z</time>
      </trkpt>
      <trkpt lat="42.88829" lon="0.10813">
        <ele>1681</ele>
        <time>2017-02-25T07:55:44Z</time>
      </trkpt>
      <trkpt lat="42.88826" lon="0.10814">
        <ele>1681</ele>
        <time>2017-02-25T07:55:48Z</time>
      </trkpt>
      <trkpt lat="42.88825" lon="0.10814">
        <ele>1681</ele>
        <time>2017-02-25T07:55:49Z</time>
      </trkpt>
      <trkpt lat="42.88824" lon="0.10815">
        <ele>1681</ele>
        <time>2017-02-25T07:55:51Z</time>
      </trkpt>
      <trkpt lat="42.88823" lon="0.10816">
        <ele>1681</ele>
        <time>2017-02-25T07:55:52Z</time>
      </trkpt>
      <trkpt lat="42.88819" lon="0.10817">
        <ele>1682</ele>
        <time>2017-02-25T07:56:01Z</time>
      </trkpt>
      <trkpt lat="42.88819" lon="0.10818">
        <ele>1682</ele>
        <time>2017-02-25T07:56:02Z</time>
      </trkpt>
      <trkpt lat="42.88805" lon="0.10823">
        <ele>1683</ele>
        <time>2017-02-25T07:56:18Z</time>
      </trkpt>
      <trkpt lat="42.88802" lon="0.10823">
        <ele>1684</ele>
        <time>2017-02-25T07:56:22Z</time>
      </trkpt>
      <trkpt lat="42.88801" lon="0.10823">
        <ele>1684</ele>
        <time>2017-02-25T07:56:23Z</time>
      </trkpt>
      <trkpt lat="42.88796" lon="0.10824">
        <ele>1684</ele>
        <time>2017-02-25T07:56:28Z</time>
      </trkpt>
      <trkpt lat="42.88793" lon="0.10825">
        <ele>1684</ele>
        <time>2017-02-25T07:56:31Z</time>
      </trkpt>
      <trkpt lat="42.88792" lon="0.10825">
        <ele>1684</ele>
        <time>2017-02-25T07:56:32Z</time>
      </trkpt>
      <trkpt lat="42.88791" lon="0.10826">
        <ele>1684</ele>
        <time>2017-02-25T07:56:34Z</time>
      </trkpt>
      <trkpt lat="42.88786" lon="0.10829">
        <ele>1685</ele>
        <time>2017-02-25T07:56:39Z</time>
      </trkpt>
      <trkpt lat="42.88786" lon="0.10829">
        <ele>1685</ele>
        <time>2017-02-25T07:56:40Z</time>
      </trkpt>
      <trkpt lat="42.88785" lon="0.10829">
        <ele>1686</ele>
        <time>2017-02-25T07:56:41Z</time>
      </trkpt>
      <trkpt lat="42.88784" lon="0.1083">
        <ele>1686</ele>
        <time>2017-02-25T07:56:42Z</time>
      </trkpt>
      <trkpt lat="42.88784" lon="0.1083">
        <ele>1686</ele>
        <time>2017-02-25T07:56:43Z</time>
      </trkpt>
      <trkpt lat="42.88783" lon="0.1083">
        <ele>1686</ele>
        <time>2017-02-25T07:56:44Z</time>
      </trkpt>
      <trkpt lat="42.88768" lon="0.10836">
        <ele>1687</ele>
        <time>2017-02-25T07:56:55Z</time>
      </trkpt>
      <trkpt lat="42.88766" lon="0.10836">
        <ele>1687</ele>
        <time>2017-02-25T07:56:56Z</time>
      </trkpt>
      <trkpt lat="42.88765" lon="0.10836">
        <ele>1687</ele>
        <time>2017-02-25T07:56:57Z</time>
      </trkpt>
      <trkpt lat="42.88764" lon="0.10836">
        <ele>1687</ele>
        <time>2017-02-25T07:56:58Z</time>
      </trkpt>
      <trkpt lat="42.88763" lon="0.10837">
        <ele>1687</ele>
        <time>2017-02-25T07:56:59Z</time>
      </trkpt>
      <trkpt lat="42.88762" lon="0.10837">
        <ele>1687</ele>
        <time>2017-02-25T07:57:00Z</time>
      </trkpt>
      <trkpt lat="42.88759" lon="0.10837">
        <ele>1687</ele>
        <time>2017-02-25T07:57:02Z</time>
      </trkpt>
      <trkpt lat="42.88752" lon="0.10836">
        <ele>1688</ele>
        <time>2017-02-25T07:57:08Z</time>
      </trkpt>
      <trkpt lat="42.88749" lon="0.10836">
        <ele>1688</ele>
        <time>2017-02-25T07:57:10Z</time>
      </trkpt>
      <trkpt lat="42.88747" lon="0.10836">
        <ele>1689</ele>
        <time>2017-02-25T07:57:12Z</time>
      </trkpt>
      <trkpt lat="42.88739" lon="0.10837">
        <ele>1690</ele>
        <time>2017-02-25T07:57:21Z</time>
      </trkpt>
      <trkpt lat="42.88737" lon="0.10836">
        <ele>1690</ele>
        <time>2017-02-25T07:57:24Z</time>
      </trkpt>
      <trkpt lat="42.88736" lon="0.10837">
        <ele>1690</ele>
        <time>2017-02-25T07:57:25Z</time>
      </trkpt>
      <trkpt lat="42.88735" lon="0.10837">
        <ele>1690</ele>
        <time>2017-02-25T07:57:26Z</time>
      </trkpt>
      <trkpt lat="42.88734" lon="0.10837">
        <ele>1691</ele>
        <time>2017-02-25T07:57:27Z</time>
      </trkpt>
      <trkpt lat="42.88733" lon="0.10837">
        <ele>1691</ele>
        <time>2017-02-25T07:57:28Z</time>
      </trkpt>
      <trkpt lat="42.88732" lon="0.10838">
        <ele>1691</ele>
        <time>2017-02-25T07:57:29Z</time>
      </trkpt>
      <trkpt lat="42.88731" lon="0.10838">
        <ele>1691</ele>
        <time>2017-02-25T07:57:30Z</time>
      </trkpt>
      <trkpt lat="42.8873" lon="0.10838">
        <ele>1691</ele>
        <time>2017-02-25T07:57:31Z</time>
      </trkpt>
      <trkpt lat="42.88729" lon="0.10838">
        <ele>1691</ele>
        <time>2017-02-25T07:57:32Z</time>
      </trkpt>
      <trkpt lat="42.88728" lon="0.10839">
        <ele>1691</ele>
        <time>2017-02-25T07:57:33Z</time>
      </trkpt>
      <trkpt lat="42.88726" lon="0.10838">
        <ele>1692</ele>
        <time>2017-02-25T07:57:34Z</time>
      </trkpt>
      <trkpt lat="42.88722" lon="0.10838">
        <ele>1692</ele>
        <time>2017-02-25T07:57:38Z</time>
      </trkpt>
      <trkpt lat="42.88711" lon="0.10839">
        <ele>1694</ele>
        <time>2017-02-25T07:57:48Z</time>
      </trkpt>
      <trkpt lat="42.8871" lon="0.10839">
        <ele>1694</ele>
        <time>2017-02-25T07:57:49Z</time>
      </trkpt>
      <trkpt lat="42.88709" lon="0.10839">
        <ele>1694</ele>
        <time>2017-02-25T07:57:50Z</time>
      </trkpt>
      <trkpt lat="42.88707" lon="0.1084">
        <ele>1695</ele>
        <time>2017-02-25T07:57:52Z</time>
      </trkpt>
      <trkpt lat="42.88706" lon="0.1084">
        <ele>1695</ele>
        <time>2017-02-25T07:57:53Z</time>
      </trkpt>
      <trkpt lat="42.88706" lon="0.10841">
        <ele>1695</ele>
        <time>2017-02-25T07:57:54Z</time>
      </trkpt>
      <trkpt lat="42.88705" lon="0.10841">
        <ele>1696</ele>
        <time>2017-02-25T07:57:55Z</time>
      </trkpt>
      <trkpt lat="42.88705" lon="0.10842">
        <ele>1696</ele>
        <time>2017-02-25T07:57:56Z</time>
      </trkpt>
      <trkpt lat="42.88704" lon="0.10842">
        <ele>1696</ele>
        <time>2017-02-25T07:57:57Z</time>
      </trkpt>
      <trkpt lat="42.88704" lon="0.10843">
        <ele>1696</ele>
        <time>2017-02-25T07:57:58Z</time>
      </trkpt>
      <trkpt lat="42.88703" lon="0.10843">
        <ele>1697</ele>
        <time>2017-02-25T07:57:59Z</time>
      </trkpt>
      <trkpt lat="42.88703" lon="0.10844">
        <ele>1698</ele>
        <time>2017-02-25T07:58:00Z</time>
      </trkpt>
      <trkpt lat="42.8869" lon="0.10856">
        <ele>1700</ele>
        <time>2017-02-25T07:58:09Z</time>
      </trkpt>
      <trkpt lat="42.88678" lon="0.10859">
        <ele>1703</ele>
        <time>2017-02-25T07:58:20Z</time>
      </trkpt>
      <trkpt lat="42.88677" lon="0.10859">
        <ele>1703</ele>
        <time>2017-02-25T07:58:21Z</time>
      </trkpt>
      <trkpt lat="42.88676" lon="0.10859">
        <ele>1704</ele>
        <time>2017-02-25T07:58:22Z</time>
      </trkpt>
      <trkpt lat="42.88675" lon="0.10859">
        <ele>1704</ele>
        <time>2017-02-25T07:58:23Z</time>
      </trkpt>
      <trkpt lat="42.88674" lon="0.1086">
        <ele>1704</ele>
        <time>2017-02-25T07:58:24Z</time>
      </trkpt>
      <trkpt lat="42.88673" lon="0.1086">
        <ele>1705</ele>
        <time>2017-02-25T07:58:25Z</time>
      </trkpt>
      <trkpt lat="42.88672" lon="0.1086">
        <ele>1705</ele>
        <time>2017-02-25T07:58:26Z</time>
      </trkpt>
      <trkpt lat="42.88671" lon="0.1086">
        <ele>1705</ele>
        <time>2017-02-25T07:58:27Z</time>
      </trkpt>
      <trkpt lat="42.88662" lon="0.10865">
        <ele>1706</ele>
        <time>2017-02-25T07:58:33Z</time>
      </trkpt>
      <trkpt lat="42.88653" lon="0.10864">
        <ele>1708</ele>
        <time>2017-02-25T07:58:42Z</time>
      </trkpt>
      <trkpt lat="42.88652" lon="0.10864">
        <ele>1708</ele>
        <time>2017-02-25T07:58:43Z</time>
      </trkpt>
      <trkpt lat="42.88647" lon="0.10865">
        <ele>1709</ele>
        <time>2017-02-25T07:58:47Z</time>
      </trkpt>
      <trkpt lat="42.88643" lon="0.10865">
        <ele>1709</ele>
        <time>2017-02-25T07:58:50Z</time>
      </trkpt>
      <trkpt lat="42.88634" lon="0.10869">
        <ele>1711</ele>
        <time>2017-02-25T07:58:57Z</time>
      </trkpt>
      <trkpt lat="42.8863" lon="0.1087">
        <ele>1712</ele>
        <time>2017-02-25T07:59:01Z</time>
      </trkpt>
      <trkpt lat="42.88629" lon="0.10871">
        <ele>1712</ele>
        <time>2017-02-25T07:59:02Z</time>
      </trkpt>
      <trkpt lat="42.88626" lon="0.10872">
        <ele>1713</ele>
        <time>2017-02-25T07:59:06Z</time>
      </trkpt>
      <trkpt lat="42.88625" lon="0.10872">
        <ele>1713</ele>
        <time>2017-02-25T07:59:07Z</time>
      </trkpt>
      <trkpt lat="42.88624" lon="0.10872">
        <ele>1714</ele>
        <time>2017-02-25T07:59:08Z</time>
      </trkpt>
      <trkpt lat="42.88623" lon="0.10873">
        <ele>1714</ele>
        <time>2017-02-25T07:59:09Z</time>
      </trkpt>
      <trkpt lat="42.88622" lon="0.10873">
        <ele>1714</ele>
        <time>2017-02-25T07:59:10Z</time>
      </trkpt>
      <trkpt lat="42.88616" lon="0.10873">
        <ele>1716</ele>
        <time>2017-02-25T07:59:15Z</time>
      </trkpt>
      <trkpt lat="42.88613" lon="0.10874">
        <ele>1716</ele>
        <time>2017-02-25T07:59:18Z</time>
      </trkpt>
      <trkpt lat="42.88584" lon="0.10898">
        <ele>1721</ele>
        <time>2017-02-25T07:59:47Z</time>
      </trkpt>
      <trkpt lat="42.88582" lon="0.109">
        <ele>1722</ele>
        <time>2017-02-25T07:59:49Z</time>
      </trkpt>
      <trkpt lat="42.88576" lon="0.10904">
        <ele>1723</ele>
        <time>2017-02-25T07:59:54Z</time>
      </trkpt>
      <trkpt lat="42.88571" lon="0.10907">
        <ele>1725</ele>
        <time>2017-02-25T07:59:59Z</time>
      </trkpt>
      <trkpt lat="42.88569" lon="0.10909">
        <ele>1725</ele>
        <time>2017-02-25T08:00:01Z</time>
      </trkpt>
      <trkpt lat="42.88567" lon="0.1091">
        <ele>1725</ele>
        <time>2017-02-25T08:00:03Z</time>
      </trkpt>
      <trkpt lat="42.88564" lon="0.10914">
        <ele>1726</ele>
        <time>2017-02-25T08:00:07Z</time>
      </trkpt>
      <trkpt lat="42.8856" lon="0.10918">
        <ele>1728</ele>
        <time>2017-02-25T08:00:11Z</time>
      </trkpt>
      <trkpt lat="42.88558" lon="0.1092">
        <ele>1728</ele>
        <time>2017-02-25T08:00:13Z</time>
      </trkpt>
      <trkpt lat="42.88556" lon="0.10922">
        <ele>1728</ele>
        <time>2017-02-25T08:00:15Z</time>
      </trkpt>
      <trkpt lat="42.88551" lon="0.10926">
        <ele>1728</ele>
        <time>2017-02-25T08:00:20Z</time>
      </trkpt>
      <trkpt lat="42.88547" lon="0.10932">
        <ele>1729</ele>
        <time>2017-02-25T08:00:25Z</time>
      </trkpt>
      <trkpt lat="42.88543" lon="0.10935">
        <ele>1729</ele>
        <time>2017-02-25T08:00:27Z</time>
      </trkpt>
      <trkpt lat="42.88542" lon="0.10938">
        <ele>1730</ele>
        <time>2017-02-25T08:00:29Z</time>
      </trkpt>
      <trkpt lat="42.88539" lon="0.10939">
        <ele>1730</ele>
        <time>2017-02-25T08:00:31Z</time>
      </trkpt>
      <trkpt lat="42.88536" lon="0.10941">
        <ele>1730</ele>
        <time>2017-02-25T08:00:33Z</time>
      </trkpt>
      <trkpt lat="42.88535" lon="0.10944">
        <ele>1730</ele>
        <time>2017-02-25T08:00:35Z</time>
      </trkpt>
      <trkpt lat="42.88533" lon="0.10946">
        <ele>1731</ele>
        <time>2017-02-25T08:00:37Z</time>
      </trkpt>
      <trkpt lat="42.88531" lon="0.10948">
        <ele>1732</ele>
        <time>2017-02-25T08:00:39Z</time>
      </trkpt>
      <trkpt lat="42.8853" lon="0.1095">
        <ele>1732</ele>
        <time>2017-02-25T08:00:41Z</time>
      </trkpt>
      <trkpt lat="42.88527" lon="0.10952">
        <ele>1732</ele>
        <time>2017-02-25T08:00:43Z</time>
      </trkpt>
      <trkpt lat="42.88526" lon="0.10954">
        <ele>1732</ele>
        <time>2017-02-25T08:00:45Z</time>
      </trkpt>
      <trkpt lat="42.88521" lon="0.10959">
        <ele>1733</ele>
        <time>2017-02-25T08:00:49Z</time>
      </trkpt>
      <trkpt lat="42.88519" lon="0.1096">
        <ele>1733</ele>
        <time>2017-02-25T08:00:51Z</time>
      </trkpt>
      <trkpt lat="42.88518" lon="0.10962">
        <ele>1733</ele>
        <time>2017-02-25T08:00:53Z</time>
      </trkpt>
      <trkpt lat="42.88516" lon="0.10964">
        <ele>1733</ele>
        <time>2017-02-25T08:00:55Z</time>
      </trkpt>
      <trkpt lat="42.88506" lon="0.10975">
        <ele>1733</ele>
        <time>2017-02-25T08:01:05Z</time>
      </trkpt>
      <trkpt lat="42.88502" lon="0.10983">
        <ele>1733</ele>
        <time>2017-02-25T08:01:11Z</time>
      </trkpt>
      <trkpt lat="42.885" lon="0.10985">
        <ele>1734</ele>
        <time>2017-02-25T08:01:13Z</time>
      </trkpt>
      <trkpt lat="42.88499" lon="0.10987">
        <ele>1734</ele>
        <time>2017-02-25T08:01:15Z</time>
      </trkpt>
      <trkpt lat="42.88492" lon="0.10996">
        <ele>1736</ele>
        <time>2017-02-25T08:01:24Z</time>
      </trkpt>
      <trkpt lat="42.88491" lon="0.10999">
        <ele>1736</ele>
        <time>2017-02-25T08:01:26Z</time>
      </trkpt>
      <trkpt lat="42.88489" lon="0.11001">
        <ele>1736</ele>
        <time>2017-02-25T08:01:28Z</time>
      </trkpt>
      <trkpt lat="42.88481" lon="0.1101">
        <ele>1737</ele>
        <time>2017-02-25T08:01:38Z</time>
      </trkpt>
      <trkpt lat="42.88479" lon="0.11012">
        <ele>1738</ele>
        <time>2017-02-25T08:01:40Z</time>
      </trkpt>
      <trkpt lat="42.88478" lon="0.11015">
        <ele>1739</ele>
        <time>2017-02-25T08:01:42Z</time>
      </trkpt>
      <trkpt lat="42.88476" lon="0.11017">
        <ele>1739</ele>
        <time>2017-02-25T08:01:44Z</time>
      </trkpt>
      <trkpt lat="42.88456" lon="0.11045">
        <ele>1742</ele>
        <time>2017-02-25T08:02:09Z</time>
      </trkpt>
      <trkpt lat="42.88455" lon="0.11048">
        <ele>1742</ele>
        <time>2017-02-25T08:02:11Z</time>
      </trkpt>
      <trkpt lat="42.88453" lon="0.1105">
        <ele>1742</ele>
        <time>2017-02-25T08:02:13Z</time>
      </trkpt>
      <trkpt lat="42.88451" lon="0.11052">
        <ele>1742</ele>
        <time>2017-02-25T08:02:15Z</time>
      </trkpt>
      <trkpt lat="42.88444" lon="0.11063">
        <ele>1743</ele>
        <time>2017-02-25T08:02:25Z</time>
      </trkpt>
      <trkpt lat="42.8844" lon="0.11068">
        <ele>1743</ele>
        <time>2017-02-25T08:02:29Z</time>
      </trkpt>
      <trkpt lat="42.88438" lon="0.11074">
        <ele>1743</ele>
        <time>2017-02-25T08:02:33Z</time>
      </trkpt>
      <trkpt lat="42.88423" lon="0.11097">
        <ele>1745</ele>
        <time>2017-02-25T08:02:54Z</time>
      </trkpt>
      <trkpt lat="42.88422" lon="0.11099">
        <ele>1745</ele>
        <time>2017-02-25T08:02:56Z</time>
      </trkpt>
      <trkpt lat="42.88421" lon="0.11102">
        <ele>1745</ele>
        <time>2017-02-25T08:03:01Z</time>
      </trkpt>
      <trkpt lat="42.88408" lon="0.11117">
        <ele>1747</ele>
        <time>2017-02-25T08:03:15Z</time>
      </trkpt>
      <trkpt lat="42.88403" lon="0.11122">
        <ele>1747</ele>
        <time>2017-02-25T08:03:19Z</time>
      </trkpt>
      <trkpt lat="42.88397" lon="0.1113">
        <ele>1747</ele>
        <time>2017-02-25T08:03:25Z</time>
      </trkpt>
      <trkpt lat="42.88385" lon="0.1115">
        <ele>1748</ele>
        <time>2017-02-25T08:03:39Z</time>
      </trkpt>
      <trkpt lat="42.88377" lon="0.11161">
        <ele>1748</ele>
        <time>2017-02-25T08:03:50Z</time>
      </trkpt>
      <trkpt lat="42.88374" lon="0.11163">
        <ele>1748</ele>
        <time>2017-02-25T08:03:52Z</time>
      </trkpt>
      <trkpt lat="42.88372" lon="0.11163">
        <ele>1748</ele>
        <time>2017-02-25T08:03:54Z</time>
      </trkpt>
      <trkpt lat="42.88367" lon="0.11163">
        <ele>1748</ele>
        <time>2017-02-25T08:03:58Z</time>
      </trkpt>
      <trkpt lat="42.88365" lon="0.11163">
        <ele>1749</ele>
        <time>2017-02-25T08:04:00Z</time>
      </trkpt>
      <trkpt lat="42.8836" lon="0.11162">
        <ele>1750</ele>
        <time>2017-02-25T08:04:04Z</time>
      </trkpt>
      <trkpt lat="42.88358" lon="0.11162">
        <ele>1750</ele>
        <time>2017-02-25T08:04:06Z</time>
      </trkpt>
      <trkpt lat="42.88344" lon="0.11165">
        <ele>1751</ele>
        <time>2017-02-25T08:04:18Z</time>
      </trkpt>
      <trkpt lat="42.88342" lon="0.11165">
        <ele>1752</ele>
        <time>2017-02-25T08:04:20Z</time>
      </trkpt>
      <trkpt lat="42.8834" lon="0.11165">
        <ele>1752</ele>
        <time>2017-02-25T08:04:22Z</time>
      </trkpt>
      <trkpt lat="42.8832" lon="0.11166">
        <ele>1753</ele>
        <time>2017-02-25T08:04:38Z</time>
      </trkpt>
      <trkpt lat="42.88314" lon="0.11166">
        <ele>1754</ele>
        <time>2017-02-25T08:04:42Z</time>
      </trkpt>
      <trkpt lat="42.88311" lon="0.11165">
        <ele>1754</ele>
        <time>2017-02-25T08:04:45Z</time>
      </trkpt>
      <trkpt lat="42.88309" lon="0.11165">
        <ele>1754</ele>
        <time>2017-02-25T08:04:46Z</time>
      </trkpt>
      <trkpt lat="42.88308" lon="0.11165">
        <ele>1754</ele>
        <time>2017-02-25T08:04:47Z</time>
      </trkpt>
      <trkpt lat="42.88305" lon="0.11165">
        <ele>1754</ele>
        <time>2017-02-25T08:04:49Z</time>
      </trkpt>
      <trkpt lat="42.88303" lon="0.11165">
        <ele>1755</ele>
        <time>2017-02-25T08:04:51Z</time>
      </trkpt>
      <trkpt lat="42.883" lon="0.11165">
        <ele>1755</ele>
        <time>2017-02-25T08:04:53Z</time>
      </trkpt>
      <trkpt lat="42.88288" lon="0.11165">
        <ele>1756</ele>
        <time>2017-02-25T08:05:03Z</time>
      </trkpt>
      <trkpt lat="42.88286" lon="0.11164">
        <ele>1756</ele>
        <time>2017-02-25T08:05:05Z</time>
      </trkpt>
      <trkpt lat="42.8828" lon="0.11165">
        <ele>1757</ele>
        <time>2017-02-25T08:05:11Z</time>
      </trkpt>
      <trkpt lat="42.88278" lon="0.11165">
        <ele>1757</ele>
        <time>2017-02-25T08:05:13Z</time>
      </trkpt>
      <trkpt lat="42.88273" lon="0.11165">
        <ele>1758</ele>
        <time>2017-02-25T08:05:18Z</time>
      </trkpt>
      <trkpt lat="42.88271" lon="0.11165">
        <ele>1759</ele>
        <time>2017-02-25T08:05:20Z</time>
      </trkpt>
      <trkpt lat="42.88268" lon="0.11165">
        <ele>1759</ele>
        <time>2017-02-25T08:05:22Z</time>
      </trkpt>
      <trkpt lat="42.88266" lon="0.11165">
        <ele>1759</ele>
        <time>2017-02-25T08:05:24Z</time>
      </trkpt>
      <trkpt lat="42.88264" lon="0.11164">
        <ele>1759</ele>
        <time>2017-02-25T08:05:27Z</time>
      </trkpt>
      <trkpt lat="42.88262" lon="0.11163">
        <ele>1760</ele>
        <time>2017-02-25T08:05:29Z</time>
      </trkpt>
      <trkpt lat="42.88255" lon="0.11163">
        <ele>1761</ele>
        <time>2017-02-25T08:05:38Z</time>
      </trkpt>
      <trkpt lat="42.88246" lon="0.11162">
        <ele>1764</ele>
        <time>2017-02-25T08:06:00Z</time>
      </trkpt>
      <trkpt lat="42.88242" lon="0.11164">
        <ele>1764</ele>
        <time>2017-02-25T08:06:04Z</time>
      </trkpt>
      <trkpt lat="42.88239" lon="0.11165">
        <ele>1765</ele>
        <time>2017-02-25T08:06:07Z</time>
      </trkpt>
      <trkpt lat="42.88232" lon="0.11168">
        <ele>1768</ele>
        <time>2017-02-25T08:06:19Z</time>
      </trkpt>
      <trkpt lat="42.88229" lon="0.11172">
        <ele>1769</ele>
        <time>2017-02-25T08:06:25Z</time>
      </trkpt>
      <trkpt lat="42.88227" lon="0.11173">
        <ele>1769</ele>
        <time>2017-02-25T08:06:28Z</time>
      </trkpt>
      <trkpt lat="42.88226" lon="0.11174">
        <ele>1769</ele>
        <time>2017-02-25T08:06:31Z</time>
      </trkpt>
      <trkpt lat="42.88224" lon="0.11176">
        <ele>1770</ele>
        <time>2017-02-25T08:06:34Z</time>
      </trkpt>
      <trkpt lat="42.88222" lon="0.11178">
        <ele>1772</ele>
        <time>2017-02-25T08:06:38Z</time>
      </trkpt>
      <trkpt lat="42.88218" lon="0.11176">
        <ele>1773</ele>
        <time>2017-02-25T08:06:46Z</time>
      </trkpt>
      <trkpt lat="42.88218" lon="0.11174">
        <ele>1773</ele>
        <time>2017-02-25T08:06:49Z</time>
      </trkpt>
      <trkpt lat="42.88218" lon="0.11171">
        <ele>1775</ele>
        <time>2017-02-25T08:06:53Z</time>
      </trkpt>
      <trkpt lat="42.88217" lon="0.11168">
        <ele>1776</ele>
        <time>2017-02-25T08:06:58Z</time>
      </trkpt>
      <trkpt lat="42.88214" lon="0.11164">
        <ele>1778</ele>
        <time>2017-02-25T08:07:04Z</time>
      </trkpt>
      <trkpt lat="42.8821" lon="0.11162">
        <ele>1778</ele>
        <time>2017-02-25T08:07:10Z</time>
      </trkpt>
      <trkpt lat="42.88208" lon="0.11164">
        <ele>1778</ele>
        <time>2017-02-25T08:07:11Z</time>
      </trkpt>
      <trkpt lat="42.88206" lon="0.11165">
        <ele>1779</ele>
        <time>2017-02-25T08:07:13Z</time>
      </trkpt>
      <trkpt lat="42.88204" lon="0.11164">
        <ele>1780</ele>
        <time>2017-02-25T08:07:17Z</time>
      </trkpt>
      <trkpt lat="42.88202" lon="0.11164">
        <ele>1781</ele>
        <time>2017-02-25T08:07:21Z</time>
      </trkpt>
      <trkpt lat="42.88199" lon="0.11164">
        <ele>1782</ele>
        <time>2017-02-25T08:07:25Z</time>
      </trkpt>
      <trkpt lat="42.88197" lon="0.11163">
        <ele>1783</ele>
        <time>2017-02-25T08:07:28Z</time>
      </trkpt>
      <trkpt lat="42.88194" lon="0.1116">
        <ele>1784</ele>
        <time>2017-02-25T08:07:37Z</time>
      </trkpt>
      <trkpt lat="42.88191" lon="0.11159">
        <ele>1785</ele>
        <time>2017-02-25T08:07:40Z</time>
      </trkpt>
      <trkpt lat="42.88189" lon="0.11156">
        <ele>1786</ele>
        <time>2017-02-25T08:07:46Z</time>
      </trkpt>
      <trkpt lat="42.88189" lon="0.11155">
        <ele>1786</ele>
        <time>2017-02-25T08:07:47Z</time>
      </trkpt>
      <trkpt lat="42.88189" lon="0.11154">
        <ele>1787</ele>
        <time>2017-02-25T08:07:48Z</time>
      </trkpt>
      <trkpt lat="42.8819" lon="0.11151">
        <ele>1787</ele>
        <time>2017-02-25T08:07:51Z</time>
      </trkpt>
      <trkpt lat="42.8819" lon="0.1115">
        <ele>1788</ele>
        <time>2017-02-25T08:07:52Z</time>
      </trkpt>
      <trkpt lat="42.8819" lon="0.11149">
        <ele>1788</ele>
        <time>2017-02-25T08:07:54Z</time>
      </trkpt>
      <trkpt lat="42.8819" lon="0.11148">
        <ele>1788</ele>
        <time>2017-02-25T08:07:55Z</time>
      </trkpt>
      <trkpt lat="42.88191" lon="0.11147">
        <ele>1788</ele>
        <time>2017-02-25T08:07:56Z</time>
      </trkpt>
      <trkpt lat="42.88191" lon="0.11138">
        <ele>1790</ele>
        <time>2017-02-25T08:08:05Z</time>
      </trkpt>
      <trkpt lat="42.88195" lon="0.11124">
        <ele>1794</ele>
        <time>2017-02-25T08:08:23Z</time>
      </trkpt>
      <trkpt lat="42.88196" lon="0.11121">
        <ele>1794</ele>
        <time>2017-02-25T08:08:26Z</time>
      </trkpt>
      <trkpt lat="42.88196" lon="0.11118">
        <ele>1795</ele>
        <time>2017-02-25T08:08:33Z</time>
      </trkpt>
      <trkpt lat="42.88196" lon="0.11115">
        <ele>1795</ele>
        <time>2017-02-25T08:08:38Z</time>
      </trkpt>
      <trkpt lat="42.88195" lon="0.11112">
        <ele>1795</ele>
        <time>2017-02-25T08:08:42Z</time>
      </trkpt>
      <trkpt lat="42.88194" lon="0.11109">
        <ele>1796</ele>
        <time>2017-02-25T08:08:47Z</time>
      </trkpt>
      <trkpt lat="42.88192" lon="0.11095">
        <ele>1799</ele>
        <time>2017-02-25T08:09:02Z</time>
      </trkpt>
      <trkpt lat="42.8819" lon="0.11089">
        <ele>1801</ele>
        <time>2017-02-25T08:09:09Z</time>
      </trkpt>
      <trkpt lat="42.88187" lon="0.11073">
        <ele>1804</ele>
        <time>2017-02-25T08:09:26Z</time>
      </trkpt>
      <trkpt lat="42.88186" lon="0.11062">
        <ele>1807</ele>
        <time>2017-02-25T08:09:39Z</time>
      </trkpt>
      <trkpt lat="42.88188" lon="0.11057">
        <ele>1807</ele>
        <time>2017-02-25T08:09:52Z</time>
      </trkpt>
      <trkpt lat="42.88187" lon="0.11054">
        <ele>1809</ele>
        <time>2017-02-25T08:09:56Z</time>
      </trkpt>
      <trkpt lat="42.8818" lon="0.11061">
        <ele>1809</ele>
        <time>2017-02-25T08:10:06Z</time>
      </trkpt>
      <trkpt lat="42.88172" lon="0.11072">
        <ele>1811</ele>
        <time>2017-02-25T08:10:16Z</time>
      </trkpt>
      <trkpt lat="42.88167" lon="0.1108">
        <ele>1814</ele>
        <time>2017-02-25T08:10:26Z</time>
      </trkpt>
      <trkpt lat="42.88167" lon="0.11081">
        <ele>1814</ele>
        <time>2017-02-25T08:10:27Z</time>
      </trkpt>
      <trkpt lat="42.88167" lon="0.11081">
        <ele>1814</ele>
        <time>2017-02-25T08:10:28Z</time>
      </trkpt>
      <trkpt lat="42.88167" lon="0.11082">
        <ele>1814</ele>
        <time>2017-02-25T08:10:29Z</time>
      </trkpt>
      <trkpt lat="42.88166" lon="0.11082">
        <ele>1814</ele>
        <time>2017-02-25T08:10:30Z</time>
      </trkpt>
      <trkpt lat="42.88165" lon="0.11084">
        <ele>1815</ele>
        <time>2017-02-25T08:10:35Z</time>
      </trkpt>
      <trkpt lat="42.88165" lon="0.11085">
        <ele>1815</ele>
        <time>2017-02-25T08:10:36Z</time>
      </trkpt>
      <trkpt lat="42.88165" lon="0.11085">
        <ele>1815</ele>
        <time>2017-02-25T08:10:37Z</time>
      </trkpt>
      <trkpt lat="42.88164" lon="0.11086">
        <ele>1815</ele>
        <time>2017-02-25T08:10:38Z</time>
      </trkpt>
      <trkpt lat="42.88164" lon="0.11086">
        <ele>1815</ele>
        <time>2017-02-25T08:10:39Z</time>
      </trkpt>
      <trkpt lat="42.88162" lon="0.11085">
        <ele>1816</ele>
        <time>2017-02-25T08:10:43Z</time>
      </trkpt>
      <trkpt lat="42.88162" lon="0.11082">
        <ele>1817</ele>
        <time>2017-02-25T08:10:49Z</time>
      </trkpt>
      <trkpt lat="42.88162" lon="0.11076">
        <ele>1818</ele>
        <time>2017-02-25T08:10:54Z</time>
      </trkpt>
      <trkpt lat="42.88161" lon="0.11066">
        <ele>1819</ele>
        <time>2017-02-25T08:11:00Z</time>
      </trkpt>
      <trkpt lat="42.88162" lon="0.11058">
        <ele>1820</ele>
        <time>2017-02-25T08:11:06Z</time>
      </trkpt>
      <trkpt lat="42.88162" lon="0.11055">
        <ele>1821</ele>
        <time>2017-02-25T08:11:08Z</time>
      </trkpt>
      <trkpt lat="42.88162" lon="0.11054">
        <ele>1821</ele>
        <time>2017-02-25T08:11:09Z</time>
      </trkpt>
      <trkpt lat="42.88162" lon="0.11052">
        <ele>1822</ele>
        <time>2017-02-25T08:11:11Z</time>
      </trkpt>
      <trkpt lat="42.88162" lon="0.11048">
        <ele>1822</ele>
        <time>2017-02-25T08:11:15Z</time>
      </trkpt>
      <trkpt lat="42.88161" lon="0.11048">
        <ele>1822</ele>
        <time>2017-02-25T08:11:16Z</time>
      </trkpt>
      <trkpt lat="42.8816" lon="0.1105">
        <ele>1823</ele>
        <time>2017-02-25T08:11:19Z</time>
      </trkpt>
      <trkpt lat="42.8816" lon="0.1105">
        <ele>1823</ele>
        <time>2017-02-25T08:11:20Z</time>
      </trkpt>
      <trkpt lat="42.88159" lon="0.11052">
        <ele>1823</ele>
        <time>2017-02-25T08:11:23Z</time>
      </trkpt>
      <trkpt lat="42.88158" lon="0.11052">
        <ele>1823</ele>
        <time>2017-02-25T08:11:24Z</time>
      </trkpt>
      <trkpt lat="42.88157" lon="0.11054">
        <ele>1823</ele>
        <time>2017-02-25T08:11:27Z</time>
      </trkpt>
      <trkpt lat="42.88155" lon="0.11056">
        <ele>1824</ele>
        <time>2017-02-25T08:11:31Z</time>
      </trkpt>
      <trkpt lat="42.88154" lon="0.11057">
        <ele>1825</ele>
        <time>2017-02-25T08:11:32Z</time>
      </trkpt>
      <trkpt lat="42.88148" lon="0.11065">
        <ele>1826</ele>
        <time>2017-02-25T08:11:41Z</time>
      </trkpt>
      <trkpt lat="42.88146" lon="0.11069">
        <ele>1827</ele>
        <time>2017-02-25T08:11:45Z</time>
      </trkpt>
      <trkpt lat="42.88144" lon="0.1107">
        <ele>1827</ele>
        <time>2017-02-25T08:11:47Z</time>
      </trkpt>
      <trkpt lat="42.88131" lon="0.11092">
        <ele>1831</ele>
        <time>2017-02-25T08:12:08Z</time>
      </trkpt>
      <trkpt lat="42.88129" lon="0.11095">
        <ele>1831</ele>
        <time>2017-02-25T08:12:10Z</time>
      </trkpt>
      <trkpt lat="42.88122" lon="0.11104">
        <ele>1835</ele>
        <time>2017-02-25T08:12:24Z</time>
      </trkpt>
      <trkpt lat="42.88118" lon="0.11104">
        <ele>1837</ele>
        <time>2017-02-25T08:12:31Z</time>
      </trkpt>
      <trkpt lat="42.88111" lon="0.11105">
        <ele>1837</ele>
        <time>2017-02-25T08:12:48Z</time>
      </trkpt>
      <trkpt lat="42.88107" lon="0.11104">
        <ele>1840</ele>
        <time>2017-02-25T08:13:11Z</time>
      </trkpt>
      <trkpt lat="42.88106" lon="0.11103">
        <ele>1840</ele>
        <time>2017-02-25T08:13:13Z</time>
      </trkpt>
      <trkpt lat="42.88104" lon="0.11097">
        <ele>1841</ele>
        <time>2017-02-25T08:13:19Z</time>
      </trkpt>
      <trkpt lat="42.88102" lon="0.11079">
        <ele>1846</ele>
        <time>2017-02-25T08:13:39Z</time>
      </trkpt>
      <trkpt lat="42.88103" lon="0.11076">
        <ele>1846</ele>
        <time>2017-02-25T08:13:41Z</time>
      </trkpt>
      <trkpt lat="42.88102" lon="0.11073">
        <ele>1847</ele>
        <time>2017-02-25T08:13:47Z</time>
      </trkpt>
      <trkpt lat="42.88102" lon="0.11073">
        <ele>1848</ele>
        <time>2017-02-25T08:13:48Z</time>
      </trkpt>
      <trkpt lat="42.88101" lon="0.11074">
        <ele>1848</ele>
        <time>2017-02-25T08:13:49Z</time>
      </trkpt>
      <trkpt lat="42.881" lon="0.11074">
        <ele>1848</ele>
        <time>2017-02-25T08:13:51Z</time>
      </trkpt>
      <trkpt lat="42.881" lon="0.11075">
        <ele>1848</ele>
        <time>2017-02-25T08:13:52Z</time>
      </trkpt>
      <trkpt lat="42.88099" lon="0.11076">
        <ele>1848</ele>
        <time>2017-02-25T08:13:54Z</time>
      </trkpt>
      <trkpt lat="42.88098" lon="0.11076">
        <ele>1848</ele>
        <time>2017-02-25T08:13:55Z</time>
      </trkpt>
      <trkpt lat="42.88097" lon="0.11077">
        <ele>1848</ele>
        <time>2017-02-25T08:13:57Z</time>
      </trkpt>
      <trkpt lat="42.88097" lon="0.11077">
        <ele>1848</ele>
        <time>2017-02-25T08:13:58Z</time>
      </trkpt>
      <trkpt lat="42.88096" lon="0.11078">
        <ele>1849</ele>
        <time>2017-02-25T08:14:00Z</time>
      </trkpt>
      <trkpt lat="42.88096" lon="0.11079">
        <ele>1849</ele>
        <time>2017-02-25T08:14:01Z</time>
      </trkpt>
      <trkpt lat="42.88085" lon="0.11087">
        <ele>1852</ele>
        <time>2017-02-25T08:14:16Z</time>
      </trkpt>
      <trkpt lat="42.88085" lon="0.11088">
        <ele>1852</ele>
        <time>2017-02-25T08:14:17Z</time>
      </trkpt>
      <trkpt lat="42.88084" lon="0.11088">
        <ele>1852</ele>
        <time>2017-02-25T08:14:18Z</time>
      </trkpt>
      <trkpt lat="42.88084" lon="0.11088">
        <ele>1852</ele>
        <time>2017-02-25T08:14:19Z</time>
      </trkpt>
      <trkpt lat="42.88083" lon="0.11089">
        <ele>1853</ele>
        <time>2017-02-25T08:14:20Z</time>
      </trkpt>
      <trkpt lat="42.88083" lon="0.11089">
        <ele>1853</ele>
        <time>2017-02-25T08:14:21Z</time>
      </trkpt>
      <trkpt lat="42.88082" lon="0.1109">
        <ele>1853</ele>
        <time>2017-02-25T08:14:22Z</time>
      </trkpt>
      <trkpt lat="42.88082" lon="0.1109">
        <ele>1853</ele>
        <time>2017-02-25T08:14:23Z</time>
      </trkpt>
      <trkpt lat="42.88081" lon="0.1109">
        <ele>1853</ele>
        <time>2017-02-25T08:14:24Z</time>
      </trkpt>
      <trkpt lat="42.88072" lon="0.11095">
        <ele>1856</ele>
        <time>2017-02-25T08:14:37Z</time>
      </trkpt>
      <trkpt lat="42.88069" lon="0.11082">
        <ele>1859</ele>
        <time>2017-02-25T08:14:48Z</time>
      </trkpt>
      <trkpt lat="42.8807" lon="0.11076">
        <ele>1860</ele>
        <time>2017-02-25T08:14:52Z</time>
      </trkpt>
      <trkpt lat="42.8807" lon="0.11074">
        <ele>1861</ele>
        <time>2017-02-25T08:14:53Z</time>
      </trkpt>
      <trkpt lat="42.88068" lon="0.11075">
        <ele>1861</ele>
        <time>2017-02-25T08:15:01Z</time>
      </trkpt>
      <trkpt lat="42.88067" lon="0.11076">
        <ele>1862</ele>
        <time>2017-02-25T08:15:02Z</time>
      </trkpt>
      <trkpt lat="42.88067" lon="0.11076">
        <ele>1862</ele>
        <time>2017-02-25T08:15:03Z</time>
      </trkpt>
      <trkpt lat="42.88066" lon="0.11077">
        <ele>1862</ele>
        <time>2017-02-25T08:15:05Z</time>
      </trkpt>
      <trkpt lat="42.88065" lon="0.11077">
        <ele>1862</ele>
        <time>2017-02-25T08:15:06Z</time>
      </trkpt>
      <trkpt lat="42.88064" lon="0.11078">
        <ele>1862</ele>
        <time>2017-02-25T08:15:07Z</time>
      </trkpt>
      <trkpt lat="42.88064" lon="0.11078">
        <ele>1862</ele>
        <time>2017-02-25T08:15:08Z</time>
      </trkpt>
      <trkpt lat="42.88063" lon="0.11079">
        <ele>1863</ele>
        <time>2017-02-25T08:15:10Z</time>
      </trkpt>
      <trkpt lat="42.88062" lon="0.11079">
        <ele>1863</ele>
        <time>2017-02-25T08:15:11Z</time>
      </trkpt>
      <trkpt lat="42.88061" lon="0.1108">
        <ele>1863</ele>
        <time>2017-02-25T08:15:13Z</time>
      </trkpt>
      <trkpt lat="42.88061" lon="0.1108">
        <ele>1864</ele>
        <time>2017-02-25T08:15:14Z</time>
      </trkpt>
      <trkpt lat="42.88059" lon="0.11082">
        <ele>1865</ele>
        <time>2017-02-25T08:15:18Z</time>
      </trkpt>
      <trkpt lat="42.88056" lon="0.11084">
        <ele>1866</ele>
        <time>2017-02-25T08:15:22Z</time>
      </trkpt>
      <trkpt lat="42.88055" lon="0.11084">
        <ele>1866</ele>
        <time>2017-02-25T08:15:23Z</time>
      </trkpt>
      <trkpt lat="42.88053" lon="0.11086">
        <ele>1866</ele>
        <time>2017-02-25T08:15:26Z</time>
      </trkpt>
      <trkpt lat="42.88053" lon="0.11086">
        <ele>1866</ele>
        <time>2017-02-25T08:15:27Z</time>
      </trkpt>
      <trkpt lat="42.88052" lon="0.11086">
        <ele>1866</ele>
        <time>2017-02-25T08:15:28Z</time>
      </trkpt>
      <trkpt lat="42.88052" lon="0.11086">
        <ele>1866</ele>
        <time>2017-02-25T08:15:30Z</time>
      </trkpt>
      <trkpt lat="42.88051" lon="0.11086">
        <ele>1866</ele>
        <time>2017-02-25T08:15:31Z</time>
      </trkpt>
      <trkpt lat="42.88051" lon="0.11087">
        <ele>1866</ele>
        <time>2017-02-25T08:15:33Z</time>
      </trkpt>
      <trkpt lat="42.8805" lon="0.11087">
        <ele>1866</ele>
        <time>2017-02-25T08:15:34Z</time>
      </trkpt>
      <trkpt lat="42.88049" lon="0.11087">
        <ele>1866</ele>
        <time>2017-02-25T08:15:38Z</time>
      </trkpt>
      <trkpt lat="42.88049" lon="0.11087">
        <ele>1866</ele>
        <time>2017-02-25T08:15:39Z</time>
      </trkpt>
      <trkpt lat="42.88048" lon="0.11087">
        <ele>1866</ele>
        <time>2017-02-25T08:15:41Z</time>
      </trkpt>
      <trkpt lat="42.88048" lon="0.11087">
        <ele>1866</ele>
        <time>2017-02-25T08:15:42Z</time>
      </trkpt>
      <trkpt lat="42.88048" lon="0.11087">
        <ele>1866</ele>
        <time>2017-02-25T08:15:44Z</time>
      </trkpt>
      <trkpt lat="42.88047" lon="0.11087">
        <ele>1866</ele>
        <time>2017-02-25T08:15:45Z</time>
      </trkpt>
      <trkpt lat="42.88047" lon="0.11087">
        <ele>1866</ele>
        <time>2017-02-25T08:15:47Z</time>
      </trkpt>
      <trkpt lat="42.88046" lon="0.11088">
        <ele>1866</ele>
        <time>2017-02-25T08:15:48Z</time>
      </trkpt>
      <trkpt lat="42.88046" lon="0.11088">
        <ele>1867</ele>
        <time>2017-02-25T08:15:50Z</time>
      </trkpt>
      <trkpt lat="42.88045" lon="0.11088">
        <ele>1867</ele>
        <time>2017-02-25T08:15:52Z</time>
      </trkpt>
      <trkpt lat="42.88045" lon="0.11088">
        <ele>1867</ele>
        <time>2017-02-25T08:15:53Z</time>
      </trkpt>
      <trkpt lat="42.88044" lon="0.11088">
        <ele>1868</ele>
        <time>2017-02-25T08:15:55Z</time>
      </trkpt>
      <trkpt lat="42.88044" lon="0.11088">
        <ele>1868</ele>
        <time>2017-02-25T08:15:56Z</time>
      </trkpt>
      <trkpt lat="42.88043" lon="0.11088">
        <ele>1868</ele>
        <time>2017-02-25T08:15:58Z</time>
      </trkpt>
      <trkpt lat="42.88041" lon="0.11087">
        <ele>1869</ele>
        <time>2017-02-25T08:16:01Z</time>
      </trkpt>
      <trkpt lat="42.8804" lon="0.11087">
        <ele>1870</ele>
        <time>2017-02-25T08:16:02Z</time>
      </trkpt>
      <trkpt lat="42.8804" lon="0.11086">
        <ele>1870</ele>
        <time>2017-02-25T08:16:03Z</time>
      </trkpt>
      <trkpt lat="42.88034" lon="0.11084">
        <ele>1872</ele>
        <time>2017-02-25T08:16:10Z</time>
      </trkpt>
      <trkpt lat="42.88034" lon="0.11083">
        <ele>1872</ele>
        <time>2017-02-25T08:16:11Z</time>
      </trkpt>
      <trkpt lat="42.88033" lon="0.11083">
        <ele>1872</ele>
        <time>2017-02-25T08:16:12Z</time>
      </trkpt>
      <trkpt lat="42.88032" lon="0.11083">
        <ele>1873</ele>
        <time>2017-02-25T08:16:14Z</time>
      </trkpt>
      <trkpt lat="42.88031" lon="0.11083">
        <ele>1873</ele>
        <time>2017-02-25T08:16:15Z</time>
      </trkpt>
      <trkpt lat="42.88029" lon="0.11083">
        <ele>1875</ele>
        <time>2017-02-25T08:16:18Z</time>
      </trkpt>
      <trkpt lat="42.88028" lon="0.11082">
        <ele>1875</ele>
        <time>2017-02-25T08:16:19Z</time>
      </trkpt>
      <trkpt lat="42.88027" lon="0.11082">
        <ele>1875</ele>
        <time>2017-02-25T08:16:21Z</time>
      </trkpt>
      <trkpt lat="42.88026" lon="0.11082">
        <ele>1875</ele>
        <time>2017-02-25T08:16:22Z</time>
      </trkpt>
      <trkpt lat="42.88025" lon="0.11082">
        <ele>1876</ele>
        <time>2017-02-25T08:16:23Z</time>
      </trkpt>
      <trkpt lat="42.88025" lon="0.11082">
        <ele>1876</ele>
        <time>2017-02-25T08:16:24Z</time>
      </trkpt>
      <trkpt lat="42.88024" lon="0.11083">
        <ele>1876</ele>
        <time>2017-02-25T08:16:25Z</time>
      </trkpt>
      <trkpt lat="42.88021" lon="0.11083">
        <ele>1876</ele>
        <time>2017-02-25T08:16:28Z</time>
      </trkpt>
      <trkpt lat="42.88021" lon="0.11084">
        <ele>1876</ele>
        <time>2017-02-25T08:16:29Z</time>
      </trkpt>
      <trkpt lat="42.8802" lon="0.11084">
        <ele>1876</ele>
        <time>2017-02-25T08:16:30Z</time>
      </trkpt>
      <trkpt lat="42.88016" lon="0.11086">
        <ele>1877</ele>
        <time>2017-02-25T08:16:35Z</time>
      </trkpt>
      <trkpt lat="42.88015" lon="0.11086">
        <ele>1877</ele>
        <time>2017-02-25T08:16:36Z</time>
      </trkpt>
      <trkpt lat="42.88014" lon="0.11086">
        <ele>1878</ele>
        <time>2017-02-25T08:16:37Z</time>
      </trkpt>
      <trkpt lat="42.88014" lon="0.11086">
        <ele>1878</ele>
        <time>2017-02-25T08:16:38Z</time>
      </trkpt>
      <trkpt lat="42.88012" lon="0.11087">
        <ele>1879</ele>
        <time>2017-02-25T08:16:40Z</time>
      </trkpt>
      <trkpt lat="42.88012" lon="0.11087">
        <ele>1879</ele>
        <time>2017-02-25T08:16:41Z</time>
      </trkpt>
      <trkpt lat="42.8801" lon="0.11088">
        <ele>1879</ele>
        <time>2017-02-25T08:16:43Z</time>
      </trkpt>
      <trkpt lat="42.88009" lon="0.11088">
        <ele>1879</ele>
        <time>2017-02-25T08:16:44Z</time>
      </trkpt>
      <trkpt lat="42.88009" lon="0.11088">
        <ele>1879</ele>
        <time>2017-02-25T08:16:45Z</time>
      </trkpt>
      <trkpt lat="42.88008" lon="0.11089">
        <ele>1879</ele>
        <time>2017-02-25T08:16:46Z</time>
      </trkpt>
      <trkpt lat="42.88007" lon="0.11089">
        <ele>1879</ele>
        <time>2017-02-25T08:16:47Z</time>
      </trkpt>
      <trkpt lat="42.87998" lon="0.1109">
        <ele>1882</ele>
        <time>2017-02-25T08:16:58Z</time>
      </trkpt>
      <trkpt lat="42.87991" lon="0.11097">
        <ele>1885</ele>
        <time>2017-02-25T08:17:09Z</time>
      </trkpt>
      <trkpt lat="42.8799" lon="0.11109">
        <ele>1886</ele>
        <time>2017-02-25T08:17:20Z</time>
      </trkpt>
      <trkpt lat="42.87991" lon="0.11113">
        <ele>1887</ele>
        <time>2017-02-25T08:17:24Z</time>
      </trkpt>
      <trkpt lat="42.87991" lon="0.11114">
        <ele>1887</ele>
        <time>2017-02-25T08:17:25Z</time>
      </trkpt>
      <trkpt lat="42.87991" lon="0.11119">
        <ele>1889</ele>
        <time>2017-02-25T08:17:31Z</time>
      </trkpt>
      <trkpt lat="42.87992" lon="0.1112">
        <ele>1889</ele>
        <time>2017-02-25T08:17:32Z</time>
      </trkpt>
      <trkpt lat="42.87992" lon="0.11123">
        <ele>1889</ele>
        <time>2017-02-25T08:17:35Z</time>
      </trkpt>
      <trkpt lat="42.87991" lon="0.11124">
        <ele>1889</ele>
        <time>2017-02-25T08:17:36Z</time>
      </trkpt>
      <trkpt lat="42.87991" lon="0.11125">
        <ele>1889</ele>
        <time>2017-02-25T08:17:37Z</time>
      </trkpt>
      <trkpt lat="42.8799" lon="0.11127">
        <ele>1890</ele>
        <time>2017-02-25T08:17:39Z</time>
      </trkpt>
      <trkpt lat="42.8799" lon="0.11128">
        <ele>1890</ele>
        <time>2017-02-25T08:17:40Z</time>
      </trkpt>
      <trkpt lat="42.87989" lon="0.11129">
        <ele>1890</ele>
        <time>2017-02-25T08:17:41Z</time>
      </trkpt>
      <trkpt lat="42.87989" lon="0.1113">
        <ele>1890</ele>
        <time>2017-02-25T08:17:42Z</time>
      </trkpt>
      <trkpt lat="42.87988" lon="0.11132">
        <ele>1890</ele>
        <time>2017-02-25T08:17:44Z</time>
      </trkpt>
      <trkpt lat="42.87987" lon="0.11133">
        <ele>1891</ele>
        <time>2017-02-25T08:17:45Z</time>
      </trkpt>
      <trkpt lat="42.87978" lon="0.11156">
        <ele>1895</ele>
        <time>2017-02-25T08:18:05Z</time>
      </trkpt>
      <trkpt lat="42.8797" lon="0.11165">
        <ele>1895</ele>
        <time>2017-02-25T08:18:14Z</time>
      </trkpt>
      <trkpt lat="42.87968" lon="0.1117">
        <ele>1895</ele>
        <time>2017-02-25T08:18:18Z</time>
      </trkpt>
      <trkpt lat="42.87957" lon="0.11196">
        <ele>1898</ele>
        <time>2017-02-25T08:18:39Z</time>
      </trkpt>
      <trkpt lat="42.87956" lon="0.11197">
        <ele>1898</ele>
        <time>2017-02-25T08:18:40Z</time>
      </trkpt>
      <trkpt lat="42.87956" lon="0.11199">
        <ele>1898</ele>
        <time>2017-02-25T08:18:43Z</time>
      </trkpt>
      <trkpt lat="42.87954" lon="0.11201">
        <ele>1899</ele>
        <time>2017-02-25T08:18:47Z</time>
      </trkpt>
      <trkpt lat="42.87954" lon="0.11202">
        <ele>1899</ele>
        <time>2017-02-25T08:18:48Z</time>
      </trkpt>
      <trkpt lat="42.87949" lon="0.11215">
        <ele>1899</ele>
        <time>2017-02-25T08:19:06Z</time>
      </trkpt>
      <trkpt lat="42.87946" lon="0.1122">
        <ele>1898</ele>
        <time>2017-02-25T08:19:16Z</time>
      </trkpt>
      <trkpt lat="42.87946" lon="0.11221">
        <ele>1898</ele>
        <time>2017-02-25T08:19:17Z</time>
      </trkpt>
      <trkpt lat="42.87941" lon="0.11228">
        <ele>1896</ele>
        <time>2017-02-25T08:19:22Z</time>
      </trkpt>
      <trkpt lat="42.87938" lon="0.11241">
        <ele>1893</ele>
        <time>2017-02-25T08:19:34Z</time>
      </trkpt>
      <trkpt lat="42.87938" lon="0.11243">
        <ele>1893</ele>
        <time>2017-02-25T08:19:35Z</time>
      </trkpt>
      <trkpt lat="42.87939" lon="0.11244">
        <ele>1893</ele>
        <time>2017-02-25T08:19:36Z</time>
      </trkpt>
      <trkpt lat="42.87944" lon="0.11269">
        <ele>1890</ele>
        <time>2017-02-25T08:19:50Z</time>
      </trkpt>
      <trkpt lat="42.87944" lon="0.11271">
        <ele>1890</ele>
        <time>2017-02-25T08:19:53Z</time>
      </trkpt>
      <trkpt lat="42.87944" lon="0.11272">
        <ele>1890</ele>
        <time>2017-02-25T08:19:54Z</time>
      </trkpt>
      <trkpt lat="42.87945" lon="0.11278">
        <ele>1890</ele>
        <time>2017-02-25T08:20:01Z</time>
      </trkpt>
      <trkpt lat="42.87945" lon="0.11279">
        <ele>1890</ele>
        <time>2017-02-25T08:20:02Z</time>
      </trkpt>
      <trkpt lat="42.87946" lon="0.11281">
        <ele>1889</ele>
        <time>2017-02-25T08:20:05Z</time>
      </trkpt>
      <trkpt lat="42.87946" lon="0.11282">
        <ele>1888</ele>
        <time>2017-02-25T08:20:08Z</time>
      </trkpt>
      <trkpt lat="42.87946" lon="0.11282">
        <ele>1888</ele>
        <time>2017-02-25T08:20:10Z</time>
      </trkpt>
      <trkpt lat="42.87946" lon="0.11282">
        <ele>1888</ele>
        <time>2017-02-25T08:20:12Z</time>
      </trkpt>
      <trkpt lat="42.87946" lon="0.11283">
        <ele>1888</ele>
        <time>2017-02-25T08:20:13Z</time>
      </trkpt>
      <trkpt lat="42.87947" lon="0.11283">
        <ele>1888</ele>
        <time>2017-02-25T08:20:15Z</time>
      </trkpt>
      <trkpt lat="42.87947" lon="0.11283">
        <ele>1888</ele>
        <time>2017-02-25T08:20:16Z</time>
      </trkpt>
      <trkpt lat="42.87947" lon="0.11284">
        <ele>1889</ele>
        <time>2017-02-25T08:20:19Z</time>
      </trkpt>
      <trkpt lat="42.87947" lon="0.11284">
        <ele>1889</ele>
        <time>2017-02-25T08:20:20Z</time>
      </trkpt>
      <trkpt lat="42.87947" lon="0.11284">
        <ele>1889</ele>
        <time>2017-02-25T08:20:22Z</time>
      </trkpt>
      <trkpt lat="42.87948" lon="0.11284">
        <ele>1889</ele>
        <time>2017-02-25T08:20:23Z</time>
      </trkpt>
      <trkpt lat="42.87948" lon="0.11285">
        <ele>1889</ele>
        <time>2017-02-25T08:20:26Z</time>
      </trkpt>
      <trkpt lat="42.87948" lon="0.11285">
        <ele>1889</ele>
        <time>2017-02-25T08:20:27Z</time>
      </trkpt>
      <trkpt lat="42.87948" lon="0.11286">
        <ele>1889</ele>
        <time>2017-02-25T08:20:29Z</time>
      </trkpt>
      <trkpt lat="42.87948" lon="0.11286">
        <ele>1889</ele>
        <time>2017-02-25T08:20:30Z</time>
      </trkpt>
      <trkpt lat="42.87949" lon="0.11286">
        <ele>1889</ele>
        <time>2017-02-25T08:20:33Z</time>
      </trkpt>
      <trkpt lat="42.87949" lon="0.11287">
        <ele>1889</ele>
        <time>2017-02-25T08:20:34Z</time>
      </trkpt>
      <trkpt lat="42.87949" lon="0.11287">
        <ele>1889</ele>
        <time>2017-02-25T08:20:37Z</time>
      </trkpt>
      <trkpt lat="42.87949" lon="0.11287">
        <ele>1889</ele>
        <time>2017-02-25T08:20:38Z</time>
      </trkpt>
      <trkpt lat="42.87949" lon="0.11288">
        <ele>1890</ele>
        <time>2017-02-25T08:20:39Z</time>
      </trkpt>
      <trkpt lat="42.8795" lon="0.11288">
        <ele>1890</ele>
        <time>2017-02-25T08:20:40Z</time>
      </trkpt>
      <trkpt lat="42.8795" lon="0.11288">
        <ele>1890</ele>
        <time>2017-02-25T08:20:41Z</time>
      </trkpt>
      <trkpt lat="42.8795" lon="0.11288">
        <ele>1889</ele>
        <time>2017-02-25T08:20:42Z</time>
      </trkpt>
      <trkpt lat="42.8795" lon="0.11288">
        <ele>1889</ele>
        <time>2017-02-25T08:20:44Z</time>
      </trkpt>
      <trkpt lat="42.8795" lon="0.11289">
        <ele>1889</ele>
        <time>2017-02-25T08:20:45Z</time>
      </trkpt>
      <trkpt lat="42.8795" lon="0.11289">
        <ele>1889</ele>
        <time>2017-02-25T08:20:48Z</time>
      </trkpt>
      <trkpt lat="42.87951" lon="0.11289">
        <ele>1889</ele>
        <time>2017-02-25T08:20:49Z</time>
      </trkpt>
      <trkpt lat="42.87951" lon="0.1129">
        <ele>1889</ele>
        <time>2017-02-25T08:20:50Z</time>
      </trkpt>
      <trkpt lat="42.87951" lon="0.1129">
        <ele>1889</ele>
        <time>2017-02-25T08:20:51Z</time>
      </trkpt>
      <trkpt lat="42.87951" lon="0.1129">
        <ele>1889</ele>
        <time>2017-02-25T08:20:52Z</time>
      </trkpt>
      <trkpt lat="42.87951" lon="0.11291">
        <ele>1889</ele>
        <time>2017-02-25T08:20:55Z</time>
      </trkpt>
      <trkpt lat="42.87951" lon="0.11291">
        <ele>1889</ele>
        <time>2017-02-25T08:20:56Z</time>
      </trkpt>
      <trkpt lat="42.87951" lon="0.11292">
        <ele>1889</ele>
        <time>2017-02-25T08:20:57Z</time>
      </trkpt>
      <trkpt lat="42.8795" lon="0.11293">
        <ele>1890</ele>
        <time>2017-02-25T08:21:00Z</time>
      </trkpt>
      <trkpt lat="42.8795" lon="0.11293">
        <ele>1890</ele>
        <time>2017-02-25T08:21:01Z</time>
      </trkpt>
      <trkpt lat="42.8795" lon="0.11294">
        <ele>1891</ele>
        <time>2017-02-25T08:21:03Z</time>
      </trkpt>
      <trkpt lat="42.8795" lon="0.11295">
        <ele>1891</ele>
        <time>2017-02-25T08:21:04Z</time>
      </trkpt>
      <trkpt lat="42.87949" lon="0.11296">
        <ele>1891</ele>
        <time>2017-02-25T08:21:06Z</time>
      </trkpt>
      <trkpt lat="42.87949" lon="0.11296">
        <ele>1891</ele>
        <time>2017-02-25T08:21:07Z</time>
      </trkpt>
      <trkpt lat="42.87949" lon="0.11298">
        <ele>1891</ele>
        <time>2017-02-25T08:21:10Z</time>
      </trkpt>
      <trkpt lat="42.87949" lon="0.11298">
        <ele>1891</ele>
        <time>2017-02-25T08:21:11Z</time>
      </trkpt>
      <trkpt lat="42.87948" lon="0.11299">
        <ele>1892</ele>
        <time>2017-02-25T08:21:13Z</time>
      </trkpt>
      <trkpt lat="42.87948" lon="0.113">
        <ele>1892</ele>
        <time>2017-02-25T08:21:14Z</time>
      </trkpt>
      <trkpt lat="42.87947" lon="0.11301">
        <ele>1894</ele>
        <time>2017-02-25T08:21:17Z</time>
      </trkpt>
      <trkpt lat="42.87947" lon="0.11302">
        <ele>1894</ele>
        <time>2017-02-25T08:21:18Z</time>
      </trkpt>
      <trkpt lat="42.87947" lon="0.11302">
        <ele>1894</ele>
        <time>2017-02-25T08:21:19Z</time>
      </trkpt>
      <trkpt lat="42.87947" lon="0.11302">
        <ele>1894</ele>
        <time>2017-02-25T08:21:20Z</time>
      </trkpt>
      <trkpt lat="42.87947" lon="0.11303">
        <ele>1894</ele>
        <time>2017-02-25T08:21:21Z</time>
      </trkpt>
      <trkpt lat="42.87946" lon="0.11303">
        <ele>1894</ele>
        <time>2017-02-25T08:21:23Z</time>
      </trkpt>
      <trkpt lat="42.87946" lon="0.11303">
        <ele>1894</ele>
        <time>2017-02-25T08:21:24Z</time>
      </trkpt>
      <trkpt lat="42.87946" lon="0.11304">
        <ele>1894</ele>
        <time>2017-02-25T08:21:25Z</time>
      </trkpt>
      <trkpt lat="42.87946" lon="0.11304">
        <ele>1894</ele>
        <time>2017-02-25T08:21:26Z</time>
      </trkpt>
      <trkpt lat="42.87945" lon="0.11304">
        <ele>1894</ele>
        <time>2017-02-25T08:21:28Z</time>
      </trkpt>
      <trkpt lat="42.87945" lon="0.11305">
        <ele>1894</ele>
        <time>2017-02-25T08:21:29Z</time>
      </trkpt>
      <trkpt lat="42.87945" lon="0.11305">
        <ele>1896</ele>
        <time>2017-02-25T08:21:31Z</time>
      </trkpt>
      <trkpt lat="42.87945" lon="0.11305">
        <ele>1896</ele>
        <time>2017-02-25T08:21:32Z</time>
      </trkpt>
      <trkpt lat="42.87944" lon="0.11305">
        <ele>1896</ele>
        <time>2017-02-25T08:21:33Z</time>
      </trkpt>
      <trkpt lat="42.87944" lon="0.11306">
        <ele>1896</ele>
        <time>2017-02-25T08:21:34Z</time>
      </trkpt>
      <trkpt lat="42.87944" lon="0.11306">
        <ele>1896</ele>
        <time>2017-02-25T08:21:36Z</time>
      </trkpt>
      <trkpt lat="42.87944" lon="0.11306">
        <ele>1896</ele>
        <time>2017-02-25T08:21:37Z</time>
      </trkpt>
      <trkpt lat="42.87943" lon="0.11307">
        <ele>1896</ele>
        <time>2017-02-25T08:21:39Z</time>
      </trkpt>
      <trkpt lat="42.87943" lon="0.11307">
        <ele>1896</ele>
        <time>2017-02-25T08:21:40Z</time>
      </trkpt>
      <trkpt lat="42.87943" lon="0.11307">
        <ele>1897</ele>
        <time>2017-02-25T08:21:41Z</time>
      </trkpt>
      <trkpt lat="42.87943" lon="0.11308">
        <ele>1897</ele>
        <time>2017-02-25T08:21:42Z</time>
      </trkpt>
      <trkpt lat="42.87942" lon="0.11308">
        <ele>1898</ele>
        <time>2017-02-25T08:21:44Z</time>
      </trkpt>
      <trkpt lat="42.87942" lon="0.11308">
        <ele>1898</ele>
        <time>2017-02-25T08:21:45Z</time>
      </trkpt>
      <trkpt lat="42.87942" lon="0.11309">
        <ele>1898</ele>
        <time>2017-02-25T08:21:47Z</time>
      </trkpt>
      <trkpt lat="42.87942" lon="0.11309">
        <ele>1898</ele>
        <time>2017-02-25T08:21:48Z</time>
      </trkpt>
      <trkpt lat="42.87941" lon="0.11309">
        <ele>1898</ele>
        <time>2017-02-25T08:21:49Z</time>
      </trkpt>
      <trkpt lat="42.87941" lon="0.1131">
        <ele>1898</ele>
        <time>2017-02-25T08:21:50Z</time>
      </trkpt>
      <trkpt lat="42.87941" lon="0.1131">
        <ele>1898</ele>
        <time>2017-02-25T08:21:52Z</time>
      </trkpt>
      <trkpt lat="42.87941" lon="0.1131">
        <ele>1899</ele>
        <time>2017-02-25T08:21:53Z</time>
      </trkpt>
      <trkpt lat="42.8794" lon="0.11311">
        <ele>1899</ele>
        <time>2017-02-25T08:21:55Z</time>
      </trkpt>
      <trkpt lat="42.8794" lon="0.11311">
        <ele>1899</ele>
        <time>2017-02-25T08:21:56Z</time>
      </trkpt>
      <trkpt lat="42.8794" lon="0.11311">
        <ele>1900</ele>
        <time>2017-02-25T08:21:57Z</time>
      </trkpt>
      <trkpt lat="42.8794" lon="0.11311">
        <ele>1900</ele>
        <time>2017-02-25T08:21:58Z</time>
      </trkpt>
      <trkpt lat="42.87939" lon="0.11311">
        <ele>1900</ele>
        <time>2017-02-25T08:21:59Z</time>
      </trkpt>
      <trkpt lat="42.87939" lon="0.11311">
        <ele>1900</ele>
        <time>2017-02-25T08:22:00Z</time>
      </trkpt>
      <trkpt lat="42.87939" lon="0.11312">
        <ele>1900</ele>
        <time>2017-02-25T08:22:01Z</time>
      </trkpt>
      <trkpt lat="42.87939" lon="0.11312">
        <ele>1900</ele>
        <time>2017-02-25T08:22:02Z</time>
      </trkpt>
      <trkpt lat="42.87939" lon="0.11312">
        <ele>1901</ele>
        <time>2017-02-25T08:22:03Z</time>
      </trkpt>
      <trkpt lat="42.87938" lon="0.11312">
        <ele>1901</ele>
        <time>2017-02-25T08:22:04Z</time>
      </trkpt>
      <trkpt lat="42.87938" lon="0.11312">
        <ele>1901</ele>
        <time>2017-02-25T08:22:05Z</time>
      </trkpt>
      <trkpt lat="42.87938" lon="0.11312">
        <ele>1901</ele>
        <time>2017-02-25T08:22:06Z</time>
      </trkpt>
      <trkpt lat="42.87938" lon="0.11312">
        <ele>1902</ele>
        <time>2017-02-25T08:22:07Z</time>
      </trkpt>
      <trkpt lat="42.87938" lon="0.11313">
        <ele>1903</ele>
        <time>2017-02-25T08:22:08Z</time>
      </trkpt>
      <trkpt lat="42.87937" lon="0.11313">
        <ele>1903</ele>
        <time>2017-02-25T08:22:09Z</time>
      </trkpt>
      <trkpt lat="42.87937" lon="0.11313">
        <ele>1903</ele>
        <time>2017-02-25T08:22:10Z</time>
      </trkpt>
      <trkpt lat="42.87937" lon="0.11313">
        <ele>1904</ele>
        <time>2017-02-25T08:22:11Z</time>
      </trkpt>
      <trkpt lat="42.87937" lon="0.11313">
        <ele>1904</ele>
        <time>2017-02-25T08:22:12Z</time>
      </trkpt>
      <trkpt lat="42.87937" lon="0.11313">
        <ele>1904</ele>
        <time>2017-02-25T08:22:13Z</time>
      </trkpt>
      <trkpt lat="42.87936" lon="0.11313">
        <ele>1904</ele>
        <time>2017-02-25T08:22:14Z</time>
      </trkpt>
      <trkpt lat="42.87936" lon="0.11314">
        <ele>1904</ele>
        <time>2017-02-25T08:22:15Z</time>
      </trkpt>
      <trkpt lat="42.87936" lon="0.11314">
        <ele>1905</ele>
        <time>2017-02-25T08:22:16Z</time>
      </trkpt>
      <trkpt lat="42.87936" lon="0.11314">
        <ele>1905</ele>
        <time>2017-02-25T08:22:17Z</time>
      </trkpt>
      <trkpt lat="42.87935" lon="0.11314">
        <ele>1905</ele>
        <time>2017-02-25T08:22:18Z</time>
      </trkpt>
      <trkpt lat="42.87935" lon="0.11314">
        <ele>1905</ele>
        <time>2017-02-25T08:22:19Z</time>
      </trkpt>
      <trkpt lat="42.87935" lon="0.11314">
        <ele>1905</ele>
        <time>2017-02-25T08:22:20Z</time>
      </trkpt>
      <trkpt lat="42.87935" lon="0.11315">
        <ele>1905</ele>
        <time>2017-02-25T08:22:21Z</time>
      </trkpt>
      <trkpt lat="42.87935" lon="0.11315">
        <ele>1906</ele>
        <time>2017-02-25T08:22:22Z</time>
      </trkpt>
      <trkpt lat="42.87934" lon="0.11315">
        <ele>1906</ele>
        <time>2017-02-25T08:22:23Z</time>
      </trkpt>
      <trkpt lat="42.87934" lon="0.11315">
        <ele>1906</ele>
        <time>2017-02-25T08:22:24Z</time>
      </trkpt>
      <trkpt lat="42.87934" lon="0.11315">
        <ele>1906</ele>
        <time>2017-02-25T08:22:25Z</time>
      </trkpt>
      <trkpt lat="42.87934" lon="0.11315">
        <ele>1907</ele>
        <time>2017-02-25T08:22:26Z</time>
      </trkpt>
      <trkpt lat="42.87934" lon="0.11315">
        <ele>1907</ele>
        <time>2017-02-25T08:22:27Z</time>
      </trkpt>
      <trkpt lat="42.87933" lon="0.11316">
        <ele>1907</ele>
        <time>2017-02-25T08:22:28Z</time>
      </trkpt>
      <trkpt lat="42.87933" lon="0.11316">
        <ele>1907</ele>
        <time>2017-02-25T08:22:29Z</time>
      </trkpt>
      <trkpt lat="42.87933" lon="0.11316">
        <ele>1907</ele>
        <time>2017-02-25T08:22:30Z</time>
      </trkpt>
      <trkpt lat="42.87933" lon="0.11316">
        <ele>1907</ele>
        <time>2017-02-25T08:22:31Z</time>
      </trkpt>
      <trkpt lat="42.87933" lon="0.11316">
        <ele>1907</ele>
        <time>2017-02-25T08:22:32Z</time>
      </trkpt>
      <trkpt lat="42.87932" lon="0.11316">
        <ele>1907</ele>
        <time>2017-02-25T08:22:33Z</time>
      </trkpt>
      <trkpt lat="42.87932" lon="0.11316">
        <ele>1907</ele>
        <time>2017-02-25T08:22:34Z</time>
      </trkpt>
      <trkpt lat="42.87932" lon="0.11317">
        <ele>1908</ele>
        <time>2017-02-25T08:22:35Z</time>
      </trkpt>
      <trkpt lat="42.87932" lon="0.11317">
        <ele>1908</ele>
        <time>2017-02-25T08:22:36Z</time>
      </trkpt>
      <trkpt lat="42.87932" lon="0.11317">
        <ele>1908</ele>
        <time>2017-02-25T08:22:37Z</time>
      </trkpt>
      <trkpt lat="42.87931" lon="0.11317">
        <ele>1908</ele>
        <time>2017-02-25T08:22:38Z</time>
      </trkpt>
      <trkpt lat="42.87931" lon="0.11318">
        <ele>1909</ele>
        <time>2017-02-25T08:22:40Z</time>
      </trkpt>
      <trkpt lat="42.87931" lon="0.11318">
        <ele>1909</ele>
        <time>2017-02-25T08:22:41Z</time>
      </trkpt>
      <trkpt lat="42.87931" lon="0.11318">
        <ele>1909</ele>
        <time>2017-02-25T08:22:42Z</time>
      </trkpt>
      <trkpt lat="42.87931" lon="0.11318">
        <ele>1909</ele>
        <time>2017-02-25T08:22:43Z</time>
      </trkpt>
      <trkpt lat="42.87931" lon="0.11319">
        <ele>1909</ele>
        <time>2017-02-25T08:22:44Z</time>
      </trkpt>
      <trkpt lat="42.87931" lon="0.11319">
        <ele>1910</ele>
        <time>2017-02-25T08:22:45Z</time>
      </trkpt>
      <trkpt lat="42.8793" lon="0.11319">
        <ele>1910</ele>
        <time>2017-02-25T08:22:46Z</time>
      </trkpt>
      <trkpt lat="42.8793" lon="0.1132">
        <ele>1910</ele>
        <time>2017-02-25T08:22:48Z</time>
      </trkpt>
      <trkpt lat="42.8793" lon="0.1132">
        <ele>1910</ele>
        <time>2017-02-25T08:22:49Z</time>
      </trkpt>
      <trkpt lat="42.8793" lon="0.1132">
        <ele>1910</ele>
        <time>2017-02-25T08:22:50Z</time>
      </trkpt>
      <trkpt lat="42.8793" lon="0.1132">
        <ele>1910</ele>
        <time>2017-02-25T08:22:51Z</time>
      </trkpt>
      <trkpt lat="42.8793" lon="0.11321">
        <ele>1911</ele>
        <time>2017-02-25T08:22:53Z</time>
      </trkpt>
      <trkpt lat="42.87929" lon="0.11321">
        <ele>1911</ele>
        <time>2017-02-25T08:22:54Z</time>
      </trkpt>
      <trkpt lat="42.87929" lon="0.11321">
        <ele>1912</ele>
        <time>2017-02-25T08:22:55Z</time>
      </trkpt>
      <trkpt lat="42.87929" lon="0.11321">
        <ele>1912</ele>
        <time>2017-02-25T08:22:56Z</time>
      </trkpt>
      <trkpt lat="42.87929" lon="0.11322">
        <ele>1912</ele>
        <time>2017-02-25T08:22:57Z</time>
      </trkpt>
      <trkpt lat="42.87929" lon="0.11322">
        <ele>1912</ele>
        <time>2017-02-25T08:22:58Z</time>
      </trkpt>
      <trkpt lat="42.87929" lon="0.11322">
        <ele>1912</ele>
        <time>2017-02-25T08:22:59Z</time>
      </trkpt>
      <trkpt lat="42.87929" lon="0.11322">
        <ele>1913</ele>
        <time>2017-02-25T08:23:00Z</time>
      </trkpt>
      <trkpt lat="42.87929" lon="0.11323">
        <ele>1913</ele>
        <time>2017-02-25T08:23:01Z</time>
      </trkpt>
      <trkpt lat="42.87928" lon="0.11323">
        <ele>1913</ele>
        <time>2017-02-25T08:23:02Z</time>
      </trkpt>
      <trkpt lat="42.87928" lon="0.11323">
        <ele>1914</ele>
        <time>2017-02-25T08:23:04Z</time>
      </trkpt>
      <trkpt lat="42.87928" lon="0.11324">
        <ele>1914</ele>
        <time>2017-02-25T08:23:05Z</time>
      </trkpt>
      <trkpt lat="42.87928" lon="0.11324">
        <ele>1914</ele>
        <time>2017-02-25T08:23:06Z</time>
      </trkpt>
      <trkpt lat="42.87928" lon="0.11324">
        <ele>1914</ele>
        <time>2017-02-25T08:23:07Z</time>
      </trkpt>
      <trkpt lat="42.87928" lon="0.11325">
        <ele>1914</ele>
        <time>2017-02-25T08:23:09Z</time>
      </trkpt>
      <trkpt lat="42.87927" lon="0.11325">
        <ele>1914</ele>
        <time>2017-02-25T08:23:10Z</time>
      </trkpt>
      <trkpt lat="42.87927" lon="0.11325">
        <ele>1915</ele>
        <time>2017-02-25T08:23:12Z</time>
      </trkpt>
      <trkpt lat="42.87927" lon="0.11326">
        <ele>1915</ele>
        <time>2017-02-25T08:23:13Z</time>
      </trkpt>
      <trkpt lat="42.87927" lon="0.11326">
        <ele>1916</ele>
        <time>2017-02-25T08:23:14Z</time>
      </trkpt>
      <trkpt lat="42.87927" lon="0.11326">
        <ele>1916</ele>
        <time>2017-02-25T08:23:15Z</time>
      </trkpt>
      <trkpt lat="42.87927" lon="0.11326">
        <ele>1916</ele>
        <time>2017-02-25T08:23:17Z</time>
      </trkpt>
      <trkpt lat="42.87926" lon="0.11327">
        <ele>1916</ele>
        <time>2017-02-25T08:23:18Z</time>
      </trkpt>
      <trkpt lat="42.87926" lon="0.11327">
        <ele>1916</ele>
        <time>2017-02-25T08:23:19Z</time>
      </trkpt>
      <trkpt lat="42.87926" lon="0.11327">
        <ele>1916</ele>
        <time>2017-02-25T08:23:20Z</time>
      </trkpt>
      <trkpt lat="42.87926" lon="0.11328">
        <ele>1917</ele>
        <time>2017-02-25T08:23:21Z</time>
      </trkpt>
      <trkpt lat="42.87926" lon="0.11328">
        <ele>1917</ele>
        <time>2017-02-25T08:23:22Z</time>
      </trkpt>
      <trkpt lat="42.87925" lon="0.11328">
        <ele>1918</ele>
        <time>2017-02-25T08:23:23Z</time>
      </trkpt>
      <trkpt lat="42.87925" lon="0.11328">
        <ele>1918</ele>
        <time>2017-02-25T08:23:24Z</time>
      </trkpt>
      <trkpt lat="42.87925" lon="0.11329">
        <ele>1918</ele>
        <time>2017-02-25T08:23:25Z</time>
      </trkpt>
      <trkpt lat="42.87924" lon="0.11329">
        <ele>1918</ele>
        <time>2017-02-25T08:23:27Z</time>
      </trkpt>
      <trkpt lat="42.87924" lon="0.1133">
        <ele>1918</ele>
        <time>2017-02-25T08:23:28Z</time>
      </trkpt>
      <trkpt lat="42.87924" lon="0.1133">
        <ele>1919</ele>
        <time>2017-02-25T08:23:29Z</time>
      </trkpt>
      <trkpt lat="42.87924" lon="0.1133">
        <ele>1919</ele>
        <time>2017-02-25T08:23:30Z</time>
      </trkpt>
      <trkpt lat="42.87923" lon="0.1133">
        <ele>1919</ele>
        <time>2017-02-25T08:23:31Z</time>
      </trkpt>
      <trkpt lat="42.87923" lon="0.11331">
        <ele>1919</ele>
        <time>2017-02-25T08:23:32Z</time>
      </trkpt>
      <trkpt lat="42.87923" lon="0.11331">
        <ele>1919</ele>
        <time>2017-02-25T08:23:33Z</time>
      </trkpt>
      <trkpt lat="42.87923" lon="0.11331">
        <ele>1919</ele>
        <time>2017-02-25T08:23:34Z</time>
      </trkpt>
      <trkpt lat="42.87922" lon="0.11332">
        <ele>1919</ele>
        <time>2017-02-25T08:23:35Z</time>
      </trkpt>
      <trkpt lat="42.87922" lon="0.11332">
        <ele>1920</ele>
        <time>2017-02-25T08:23:36Z</time>
      </trkpt>
      <trkpt lat="42.87922" lon="0.11332">
        <ele>1920</ele>
        <time>2017-02-25T08:23:37Z</time>
      </trkpt>
      <trkpt lat="42.87922" lon="0.11332">
        <ele>1920</ele>
        <time>2017-02-25T08:23:38Z</time>
      </trkpt>
      <trkpt lat="42.87921" lon="0.11333">
        <ele>1921</ele>
        <time>2017-02-25T08:23:39Z</time>
      </trkpt>
      <trkpt lat="42.87921" lon="0.11333">
        <ele>1921</ele>
        <time>2017-02-25T08:23:41Z</time>
      </trkpt>
      <trkpt lat="42.87921" lon="0.11334">
        <ele>1921</ele>
        <time>2017-02-25T08:23:42Z</time>
      </trkpt>
      <trkpt lat="42.87921" lon="0.11334">
        <ele>1921</ele>
        <time>2017-02-25T08:23:43Z</time>
      </trkpt>
      <trkpt lat="42.8792" lon="0.11334">
        <ele>1922</ele>
        <time>2017-02-25T08:23:44Z</time>
      </trkpt>
      <trkpt lat="42.8792" lon="0.11334">
        <ele>1922</ele>
        <time>2017-02-25T08:23:45Z</time>
      </trkpt>
      <trkpt lat="42.8792" lon="0.11335">
        <ele>1922</ele>
        <time>2017-02-25T08:23:46Z</time>
      </trkpt>
      <trkpt lat="42.8792" lon="0.11335">
        <ele>1922</ele>
        <time>2017-02-25T08:23:47Z</time>
      </trkpt>
      <trkpt lat="42.87919" lon="0.11335">
        <ele>1922</ele>
        <time>2017-02-25T08:23:48Z</time>
      </trkpt>
      <trkpt lat="42.87919" lon="0.11336">
        <ele>1922</ele>
        <time>2017-02-25T08:23:49Z</time>
      </trkpt>
      <trkpt lat="42.87919" lon="0.11336">
        <ele>1922</ele>
        <time>2017-02-25T08:23:50Z</time>
      </trkpt>
      <trkpt lat="42.87918" lon="0.11336">
        <ele>1923</ele>
        <time>2017-02-25T08:23:51Z</time>
      </trkpt>
      <trkpt lat="42.87918" lon="0.11337">
        <ele>1923</ele>
        <time>2017-02-25T08:23:52Z</time>
      </trkpt>
      <trkpt lat="42.87918" lon="0.11337">
        <ele>1923</ele>
        <time>2017-02-25T08:23:53Z</time>
      </trkpt>
      <trkpt lat="42.87917" lon="0.11337">
        <ele>1923</ele>
        <time>2017-02-25T08:23:54Z</time>
      </trkpt>
      <trkpt lat="42.87917" lon="0.11338">
        <ele>1923</ele>
        <time>2017-02-25T08:23:55Z</time>
      </trkpt>
      <trkpt lat="42.87917" lon="0.11338">
        <ele>1923</ele>
        <time>2017-02-25T08:23:56Z</time>
      </trkpt>
      <trkpt lat="42.87917" lon="0.11338">
        <ele>1924</ele>
        <time>2017-02-25T08:23:57Z</time>
      </trkpt>
      <trkpt lat="42.87916" lon="0.11338">
        <ele>1924</ele>
        <time>2017-02-25T08:23:58Z</time>
      </trkpt>
      <trkpt lat="42.87916" lon="0.11339">
        <ele>1924</ele>
        <time>2017-02-25T08:23:59Z</time>
      </trkpt>
      <trkpt lat="42.87916" lon="0.11339">
        <ele>1925</ele>
        <time>2017-02-25T08:24:00Z</time>
      </trkpt>
      <trkpt lat="42.87915" lon="0.11339">
        <ele>1925</ele>
        <time>2017-02-25T08:24:01Z</time>
      </trkpt>
      <trkpt lat="42.87915" lon="0.1134">
        <ele>1925</ele>
        <time>2017-02-25T08:24:02Z</time>
      </trkpt>
      <trkpt lat="42.87915" lon="0.1134">
        <ele>1925</ele>
        <time>2017-02-25T08:24:03Z</time>
      </trkpt>
      <trkpt lat="42.87914" lon="0.1134">
        <ele>1925</ele>
        <time>2017-02-25T08:24:04Z</time>
      </trkpt>
      <trkpt lat="42.87914" lon="0.11341">
        <ele>1925</ele>
        <time>2017-02-25T08:24:05Z</time>
      </trkpt>
      <trkpt lat="42.87914" lon="0.11341">
        <ele>1925</ele>
        <time>2017-02-25T08:24:06Z</time>
      </trkpt>
      <trkpt lat="42.87914" lon="0.11341">
        <ele>1925</ele>
        <time>2017-02-25T08:24:07Z</time>
      </trkpt>
      <trkpt lat="42.87913" lon="0.11342">
        <ele>1926</ele>
        <time>2017-02-25T08:24:08Z</time>
      </trkpt>
      <trkpt lat="42.87913" lon="0.11342">
        <ele>1926</ele>
        <time>2017-02-25T08:24:09Z</time>
      </trkpt>
      <trkpt lat="42.87913" lon="0.11342">
        <ele>1926</ele>
        <time>2017-02-25T08:24:10Z</time>
      </trkpt>
      <trkpt lat="42.87912" lon="0.11342">
        <ele>1927</ele>
        <time>2017-02-25T08:24:11Z</time>
      </trkpt>
      <trkpt lat="42.87912" lon="0.11343">
        <ele>1927</ele>
        <time>2017-02-25T08:24:12Z</time>
      </trkpt>
      <trkpt lat="42.87912" lon="0.11343">
        <ele>1927</ele>
        <time>2017-02-25T08:24:13Z</time>
      </trkpt>
      <trkpt lat="42.87912" lon="0.11343">
        <ele>1927</ele>
        <time>2017-02-25T08:24:14Z</time>
      </trkpt>
      <trkpt lat="42.87912" lon="0.11343">
        <ele>1927</ele>
        <time>2017-02-25T08:24:15Z</time>
      </trkpt>
      <trkpt lat="42.87912" lon="0.11343">
        <ele>1928</ele>
        <time>2017-02-25T08:24:16Z</time>
      </trkpt>
      <trkpt lat="42.87911" lon="0.11344">
        <ele>1928</ele>
        <time>2017-02-25T08:24:17Z</time>
      </trkpt>
      <trkpt lat="42.87911" lon="0.11344">
        <ele>1928</ele>
        <time>2017-02-25T08:24:19Z</time>
      </trkpt>
      <trkpt lat="42.87911" lon="0.11344">
        <ele>1928</ele>
        <time>2017-02-25T08:24:20Z</time>
      </trkpt>
      <trkpt lat="42.87911" lon="0.11344">
        <ele>1928</ele>
        <time>2017-02-25T08:24:21Z</time>
      </trkpt>
      <trkpt lat="42.87911" lon="0.11345">
        <ele>1929</ele>
        <time>2017-02-25T08:24:22Z</time>
      </trkpt>
      <trkpt lat="42.8791" lon="0.11345">
        <ele>1930</ele>
        <time>2017-02-25T08:24:24Z</time>
      </trkpt>
      <trkpt lat="42.8791" lon="0.11345">
        <ele>1930</ele>
        <time>2017-02-25T08:24:25Z</time>
      </trkpt>
      <trkpt lat="42.8791" lon="0.11345">
        <ele>1930</ele>
        <time>2017-02-25T08:24:26Z</time>
      </trkpt>
      <trkpt lat="42.8791" lon="0.11346">
        <ele>1930</ele>
        <time>2017-02-25T08:24:27Z</time>
      </trkpt>
      <trkpt lat="42.8791" lon="0.11346">
        <ele>1930</ele>
        <time>2017-02-25T08:24:28Z</time>
      </trkpt>
      <trkpt lat="42.8791" lon="0.11346">
        <ele>1930</ele>
        <time>2017-02-25T08:24:29Z</time>
      </trkpt>
      <trkpt lat="42.87909" lon="0.11346">
        <ele>1930</ele>
        <time>2017-02-25T08:24:31Z</time>
      </trkpt>
      <trkpt lat="42.87909" lon="0.11347">
        <ele>1931</ele>
        <time>2017-02-25T08:24:32Z</time>
      </trkpt>
      <trkpt lat="42.87909" lon="0.11347">
        <ele>1931</ele>
        <time>2017-02-25T08:24:33Z</time>
      </trkpt>
      <trkpt lat="42.87909" lon="0.11347">
        <ele>1932</ele>
        <time>2017-02-25T08:24:34Z</time>
      </trkpt>
      <trkpt lat="42.87908" lon="0.11347">
        <ele>1932</ele>
        <time>2017-02-25T08:24:36Z</time>
      </trkpt>
      <trkpt lat="42.87908" lon="0.11348">
        <ele>1932</ele>
        <time>2017-02-25T08:24:37Z</time>
      </trkpt>
      <trkpt lat="42.87908" lon="0.11348">
        <ele>1932</ele>
        <time>2017-02-25T08:24:38Z</time>
      </trkpt>
      <trkpt lat="42.87908" lon="0.11348">
        <ele>1932</ele>
        <time>2017-02-25T08:24:39Z</time>
      </trkpt>
      <trkpt lat="42.87908" lon="0.11348">
        <ele>1932</ele>
        <time>2017-02-25T08:24:40Z</time>
      </trkpt>
      <trkpt lat="42.87908" lon="0.11348">
        <ele>1933</ele>
        <time>2017-02-25T08:24:41Z</time>
      </trkpt>
      <trkpt lat="42.87907" lon="0.11349">
        <ele>1933</ele>
        <time>2017-02-25T08:24:43Z</time>
      </trkpt>
      <trkpt lat="42.87907" lon="0.11349">
        <ele>1933</ele>
        <time>2017-02-25T08:24:44Z</time>
      </trkpt>
      <trkpt lat="42.87907" lon="0.11349">
        <ele>1933</ele>
        <time>2017-02-25T08:24:45Z</time>
      </trkpt>
      <trkpt lat="42.87907" lon="0.11349">
        <ele>1933</ele>
        <time>2017-02-25T08:24:46Z</time>
      </trkpt>
      <trkpt lat="42.87906" lon="0.1135">
        <ele>1934</ele>
        <time>2017-02-25T08:24:48Z</time>
      </trkpt>
      <trkpt lat="42.87906" lon="0.1135">
        <ele>1934</ele>
        <time>2017-02-25T08:24:49Z</time>
      </trkpt>
      <trkpt lat="42.87906" lon="0.1135">
        <ele>1935</ele>
        <time>2017-02-25T08:24:50Z</time>
      </trkpt>
      <trkpt lat="42.87906" lon="0.1135">
        <ele>1935</ele>
        <time>2017-02-25T08:24:51Z</time>
      </trkpt>
      <trkpt lat="42.87906" lon="0.11351">
        <ele>1935</ele>
        <time>2017-02-25T08:24:52Z</time>
      </trkpt>
      <trkpt lat="42.87906" lon="0.11351">
        <ele>1935</ele>
        <time>2017-02-25T08:24:53Z</time>
      </trkpt>
      <trkpt lat="42.87906" lon="0.11351">
        <ele>1935</ele>
        <time>2017-02-25T08:24:54Z</time>
      </trkpt>
      <trkpt lat="42.87905" lon="0.11351">
        <ele>1935</ele>
        <time>2017-02-25T08:24:55Z</time>
      </trkpt>
      <trkpt lat="42.87905" lon="0.11352">
        <ele>1935</ele>
        <time>2017-02-25T08:24:56Z</time>
      </trkpt>
      <trkpt lat="42.87905" lon="0.11352">
        <ele>1935</ele>
        <time>2017-02-25T08:24:58Z</time>
      </trkpt>
      <trkpt lat="42.87905" lon="0.11353">
        <ele>1935</ele>
        <time>2017-02-25T08:24:59Z</time>
      </trkpt>
      <trkpt lat="42.87904" lon="0.11353">
        <ele>1936</ele>
        <time>2017-02-25T08:25:00Z</time>
      </trkpt>
      <trkpt lat="42.87904" lon="0.11354">
        <ele>1936</ele>
        <time>2017-02-25T08:25:01Z</time>
      </trkpt>
      <trkpt lat="42.87904" lon="0.11354">
        <ele>1936</ele>
        <time>2017-02-25T08:25:02Z</time>
      </trkpt>
      <trkpt lat="42.87904" lon="0.11354">
        <ele>1937</ele>
        <time>2017-02-25T08:25:03Z</time>
      </trkpt>
      <trkpt lat="42.87904" lon="0.11355">
        <ele>1937</ele>
        <time>2017-02-25T08:25:04Z</time>
      </trkpt>
      <trkpt lat="42.87903" lon="0.11355">
        <ele>1937</ele>
        <time>2017-02-25T08:25:06Z</time>
      </trkpt>
      <trkpt lat="42.87903" lon="0.11356">
        <ele>1937</ele>
        <time>2017-02-25T08:25:07Z</time>
      </trkpt>
      <trkpt lat="42.87903" lon="0.11356">
        <ele>1937</ele>
        <time>2017-02-25T08:25:09Z</time>
      </trkpt>
      <trkpt lat="42.87902" lon="0.11357">
        <ele>1938</ele>
        <time>2017-02-25T08:25:10Z</time>
      </trkpt>
      <trkpt lat="42.87902" lon="0.11358">
        <ele>1938</ele>
        <time>2017-02-25T08:25:12Z</time>
      </trkpt>
      <trkpt lat="42.87902" lon="0.11358">
        <ele>1938</ele>
        <time>2017-02-25T08:25:13Z</time>
      </trkpt>
      <trkpt lat="42.87902" lon="0.11358">
        <ele>1939</ele>
        <time>2017-02-25T08:25:14Z</time>
      </trkpt>
      <trkpt lat="42.87902" lon="0.11359">
        <ele>1939</ele>
        <time>2017-02-25T08:25:15Z</time>
      </trkpt>
      <trkpt lat="42.87901" lon="0.11359">
        <ele>1939</ele>
        <time>2017-02-25T08:25:16Z</time>
      </trkpt>
      <trkpt lat="42.87901" lon="0.11359">
        <ele>1939</ele>
        <time>2017-02-25T08:25:17Z</time>
      </trkpt>
      <trkpt lat="42.87901" lon="0.1136">
        <ele>1939</ele>
        <time>2017-02-25T08:25:18Z</time>
      </trkpt>
      <trkpt lat="42.87901" lon="0.1136">
        <ele>1940</ele>
        <time>2017-02-25T08:25:20Z</time>
      </trkpt>
      <trkpt lat="42.879" lon="0.11361">
        <ele>1940</ele>
        <time>2017-02-25T08:25:21Z</time>
      </trkpt>
      <trkpt lat="42.879" lon="0.11361">
        <ele>1940</ele>
        <time>2017-02-25T08:25:22Z</time>
      </trkpt>
      <trkpt lat="42.879" lon="0.11361">
        <ele>1940</ele>
        <time>2017-02-25T08:25:23Z</time>
      </trkpt>
      <trkpt lat="42.879" lon="0.11362">
        <ele>1941</ele>
        <time>2017-02-25T08:25:24Z</time>
      </trkpt>
      <trkpt lat="42.879" lon="0.11362">
        <ele>1941</ele>
        <time>2017-02-25T08:25:25Z</time>
      </trkpt>
      <trkpt lat="42.87899" lon="0.11362">
        <ele>1942</ele>
        <time>2017-02-25T08:25:26Z</time>
      </trkpt>
      <trkpt lat="42.87899" lon="0.11362">
        <ele>1942</ele>
        <time>2017-02-25T08:25:27Z</time>
      </trkpt>
      <trkpt lat="42.87899" lon="0.11363">
        <ele>1942</ele>
        <time>2017-02-25T08:25:28Z</time>
      </trkpt>
      <trkpt lat="42.87899" lon="0.11363">
        <ele>1942</ele>
        <time>2017-02-25T08:25:29Z</time>
      </trkpt>
      <trkpt lat="42.87898" lon="0.11363">
        <ele>1942</ele>
        <time>2017-02-25T08:25:30Z</time>
      </trkpt>
      <trkpt lat="42.87898" lon="0.11364">
        <ele>1942</ele>
        <time>2017-02-25T08:25:32Z</time>
      </trkpt>
      <trkpt lat="42.87898" lon="0.11364">
        <ele>1942</ele>
        <time>2017-02-25T08:25:33Z</time>
      </trkpt>
      <trkpt lat="42.87898" lon="0.11364">
        <ele>1943</ele>
        <time>2017-02-25T08:25:34Z</time>
      </trkpt>
      <trkpt lat="42.87897" lon="0.11364">
        <ele>1943</ele>
        <time>2017-02-25T08:25:35Z</time>
      </trkpt>
      <trkpt lat="42.87897" lon="0.11365">
        <ele>1943</ele>
        <time>2017-02-25T08:25:36Z</time>
      </trkpt>
      <trkpt lat="42.87897" lon="0.11365">
        <ele>1943</ele>
        <time>2017-02-25T08:25:37Z</time>
      </trkpt>
      <trkpt lat="42.87897" lon="0.11365">
        <ele>1943</ele>
        <time>2017-02-25T08:25:38Z</time>
      </trkpt>
      <trkpt lat="42.87897" lon="0.11365">
        <ele>1943</ele>
        <time>2017-02-25T08:25:39Z</time>
      </trkpt>
      <trkpt lat="42.87896" lon="0.11366">
        <ele>1943</ele>
        <time>2017-02-25T08:25:40Z</time>
      </trkpt>
      <trkpt lat="42.87896" lon="0.11366">
        <ele>1943</ele>
        <time>2017-02-25T08:25:41Z</time>
      </trkpt>
      <trkpt lat="42.87896" lon="0.11366">
        <ele>1943</ele>
        <time>2017-02-25T08:25:42Z</time>
      </trkpt>
      <trkpt lat="42.87896" lon="0.11366">
        <ele>1943</ele>
        <time>2017-02-25T08:25:43Z</time>
      </trkpt>
      <trkpt lat="42.87896" lon="0.11367">
        <ele>1944</ele>
        <time>2017-02-25T08:25:44Z</time>
      </trkpt>
      <trkpt lat="42.87895" lon="0.11367">
        <ele>1944</ele>
        <time>2017-02-25T08:25:45Z</time>
      </trkpt>
      <trkpt lat="42.87895" lon="0.11367">
        <ele>1944</ele>
        <time>2017-02-25T08:25:46Z</time>
      </trkpt>
      <trkpt lat="42.87895" lon="0.11367">
        <ele>1945</ele>
        <time>2017-02-25T08:25:48Z</time>
      </trkpt>
      <trkpt lat="42.87895" lon="0.11368">
        <ele>1945</ele>
        <time>2017-02-25T08:25:49Z</time>
      </trkpt>
      <trkpt lat="42.87894" lon="0.11368">
        <ele>1945</ele>
        <time>2017-02-25T08:25:50Z</time>
      </trkpt>
      <trkpt lat="42.87894" lon="0.11368">
        <ele>1945</ele>
        <time>2017-02-25T08:25:51Z</time>
      </trkpt>
      <trkpt lat="42.87894" lon="0.11368">
        <ele>1945</ele>
        <time>2017-02-25T08:25:52Z</time>
      </trkpt>
      <trkpt lat="42.87894" lon="0.11369">
        <ele>1945</ele>
        <time>2017-02-25T08:25:53Z</time>
      </trkpt>
      <trkpt lat="42.87893" lon="0.11369">
        <ele>1945</ele>
        <time>2017-02-25T08:25:54Z</time>
      </trkpt>
      <trkpt lat="42.87893" lon="0.11369">
        <ele>1945</ele>
        <time>2017-02-25T08:25:55Z</time>
      </trkpt>
      <trkpt lat="42.87893" lon="0.11369">
        <ele>1946</ele>
        <time>2017-02-25T08:25:56Z</time>
      </trkpt>
      <trkpt lat="42.87892" lon="0.11372">
        <ele>1948</ele>
        <time>2017-02-25T08:26:01Z</time>
      </trkpt>
      <trkpt lat="42.87892" lon="0.11372">
        <ele>1948</ele>
        <time>2017-02-25T08:26:02Z</time>
      </trkpt>
      <trkpt lat="42.8789" lon="0.11377">
        <ele>1949</ele>
        <time>2017-02-25T08:26:13Z</time>
      </trkpt>
      <trkpt lat="42.8789" lon="0.11377">
        <ele>1949</ele>
        <time>2017-02-25T08:26:14Z</time>
      </trkpt>
      <trkpt lat="42.87888" lon="0.1138">
        <ele>1952</ele>
        <time>2017-02-25T08:26:20Z</time>
      </trkpt>
      <trkpt lat="42.87888" lon="0.1138">
        <ele>1952</ele>
        <time>2017-02-25T08:26:21Z</time>
      </trkpt>
      <trkpt lat="42.87888" lon="0.11381">
        <ele>1952</ele>
        <time>2017-02-25T08:26:22Z</time>
      </trkpt>
      <trkpt lat="42.87888" lon="0.11381">
        <ele>1952</ele>
        <time>2017-02-25T08:26:23Z</time>
      </trkpt>
      <trkpt lat="42.87887" lon="0.11381">
        <ele>1953</ele>
        <time>2017-02-25T08:26:24Z</time>
      </trkpt>
      <trkpt lat="42.87887" lon="0.11382">
        <ele>1953</ele>
        <time>2017-02-25T08:26:25Z</time>
      </trkpt>
      <trkpt lat="42.87887" lon="0.11382">
        <ele>1954</ele>
        <time>2017-02-25T08:26:26Z</time>
      </trkpt>
      <trkpt lat="42.87886" lon="0.11383">
        <ele>1954</ele>
        <time>2017-02-25T08:26:28Z</time>
      </trkpt>
      <trkpt lat="42.87886" lon="0.11383">
        <ele>1954</ele>
        <time>2017-02-25T08:26:29Z</time>
      </trkpt>
      <trkpt lat="42.87886" lon="0.11383">
        <ele>1954</ele>
        <time>2017-02-25T08:26:30Z</time>
      </trkpt>
      <trkpt lat="42.87885" lon="0.11384">
        <ele>1954</ele>
        <time>2017-02-25T08:26:31Z</time>
      </trkpt>
      <trkpt lat="42.87885" lon="0.11384">
        <ele>1955</ele>
        <time>2017-02-25T08:26:32Z</time>
      </trkpt>
      <trkpt lat="42.87885" lon="0.11384">
        <ele>1955</ele>
        <time>2017-02-25T08:26:33Z</time>
      </trkpt>
      <trkpt lat="42.87885" lon="0.11385">
        <ele>1955</ele>
        <time>2017-02-25T08:26:34Z</time>
      </trkpt>
      <trkpt lat="42.87884" lon="0.11385">
        <ele>1955</ele>
        <time>2017-02-25T08:26:35Z</time>
      </trkpt>
      <trkpt lat="42.87884" lon="0.11385">
        <ele>1955</ele>
        <time>2017-02-25T08:26:36Z</time>
      </trkpt>
      <trkpt lat="42.87884" lon="0.11386">
        <ele>1955</ele>
        <time>2017-02-25T08:26:37Z</time>
      </trkpt>
      <trkpt lat="42.87883" lon="0.11386">
        <ele>1956</ele>
        <time>2017-02-25T08:26:39Z</time>
      </trkpt>
      <trkpt lat="42.87883" lon="0.11387">
        <ele>1957</ele>
        <time>2017-02-25T08:26:40Z</time>
      </trkpt>
      <trkpt lat="42.87883" lon="0.11387">
        <ele>1957</ele>
        <time>2017-02-25T08:26:41Z</time>
      </trkpt>
      <trkpt lat="42.87882" lon="0.11387">
        <ele>1957</ele>
        <time>2017-02-25T08:26:42Z</time>
      </trkpt>
      <trkpt lat="42.87882" lon="0.11388">
        <ele>1957</ele>
        <time>2017-02-25T08:26:43Z</time>
      </trkpt>
      <trkpt lat="42.87882" lon="0.11388">
        <ele>1957</ele>
        <time>2017-02-25T08:26:44Z</time>
      </trkpt>
      <trkpt lat="42.87881" lon="0.11388">
        <ele>1957</ele>
        <time>2017-02-25T08:26:46Z</time>
      </trkpt>
      <trkpt lat="42.87881" lon="0.11389">
        <ele>1958</ele>
        <time>2017-02-25T08:26:47Z</time>
      </trkpt>
      <trkpt lat="42.87881" lon="0.11389">
        <ele>1958</ele>
        <time>2017-02-25T08:26:48Z</time>
      </trkpt>
      <trkpt lat="42.87881" lon="0.11389">
        <ele>1958</ele>
        <time>2017-02-25T08:26:49Z</time>
      </trkpt>
      <trkpt lat="42.87881" lon="0.11389">
        <ele>1958</ele>
        <time>2017-02-25T08:26:50Z</time>
      </trkpt>
      <trkpt lat="42.87881" lon="0.11389">
        <ele>1958</ele>
        <time>2017-02-25T08:26:51Z</time>
      </trkpt>
      <trkpt lat="42.8788" lon="0.1139">
        <ele>1958</ele>
        <time>2017-02-25T08:26:52Z</time>
      </trkpt>
      <trkpt lat="42.8788" lon="0.1139">
        <ele>1958</ele>
        <time>2017-02-25T08:26:53Z</time>
      </trkpt>
      <trkpt lat="42.8788" lon="0.1139">
        <ele>1959</ele>
        <time>2017-02-25T08:26:54Z</time>
      </trkpt>
      <trkpt lat="42.8788" lon="0.1139">
        <ele>1959</ele>
        <time>2017-02-25T08:26:55Z</time>
      </trkpt>
      <trkpt lat="42.8788" lon="0.1139">
        <ele>1959</ele>
        <time>2017-02-25T08:26:56Z</time>
      </trkpt>
      <trkpt lat="42.8788" lon="0.11391">
        <ele>1959</ele>
        <time>2017-02-25T08:26:57Z</time>
      </trkpt>
      <trkpt lat="42.87879" lon="0.11391">
        <ele>1959</ele>
        <time>2017-02-25T08:26:58Z</time>
      </trkpt>
      <trkpt lat="42.87879" lon="0.11391">
        <ele>1959</ele>
        <time>2017-02-25T08:27:00Z</time>
      </trkpt>
      <trkpt lat="42.87879" lon="0.11391">
        <ele>1960</ele>
        <time>2017-02-25T08:27:01Z</time>
      </trkpt>
      <trkpt lat="42.87879" lon="0.11392">
        <ele>1960</ele>
        <time>2017-02-25T08:27:02Z</time>
      </trkpt>
      <trkpt lat="42.87879" lon="0.11392">
        <ele>1960</ele>
        <time>2017-02-25T08:27:03Z</time>
      </trkpt>
      <trkpt lat="42.87878" lon="0.11392">
        <ele>1960</ele>
        <time>2017-02-25T08:27:04Z</time>
      </trkpt>
      <trkpt lat="42.87878" lon="0.11392">
        <ele>1960</ele>
        <time>2017-02-25T08:27:05Z</time>
      </trkpt>
      <trkpt lat="42.87878" lon="0.11393">
        <ele>1961</ele>
        <time>2017-02-25T08:27:06Z</time>
      </trkpt>
      <trkpt lat="42.87878" lon="0.11393">
        <ele>1961</ele>
        <time>2017-02-25T08:27:07Z</time>
      </trkpt>
      <trkpt lat="42.87878" lon="0.11393">
        <ele>1961</ele>
        <time>2017-02-25T08:27:08Z</time>
      </trkpt>
      <trkpt lat="42.87878" lon="0.11393">
        <ele>1961</ele>
        <time>2017-02-25T08:27:09Z</time>
      </trkpt>
      <trkpt lat="42.87878" lon="0.11393">
        <ele>1961</ele>
        <time>2017-02-25T08:27:10Z</time>
      </trkpt>
      <trkpt lat="42.87877" lon="0.11394">
        <ele>1962</ele>
        <time>2017-02-25T08:27:11Z</time>
      </trkpt>
      <trkpt lat="42.87877" lon="0.11394">
        <ele>1962</ele>
        <time>2017-02-25T08:27:12Z</time>
      </trkpt>
      <trkpt lat="42.87877" lon="0.11394">
        <ele>1962</ele>
        <time>2017-02-25T08:27:14Z</time>
      </trkpt>
      <trkpt lat="42.87877" lon="0.11394">
        <ele>1962</ele>
        <time>2017-02-25T08:27:15Z</time>
      </trkpt>
      <trkpt lat="42.87877" lon="0.11395">
        <ele>1962</ele>
        <time>2017-02-25T08:27:16Z</time>
      </trkpt>
      <trkpt lat="42.87876" lon="0.11395">
        <ele>1962</ele>
        <time>2017-02-25T08:27:17Z</time>
      </trkpt>
      <trkpt lat="42.87876" lon="0.11395">
        <ele>1962</ele>
        <time>2017-02-25T08:27:18Z</time>
      </trkpt>
      <trkpt lat="42.87876" lon="0.11395">
        <ele>1963</ele>
        <time>2017-02-25T08:27:19Z</time>
      </trkpt>
      <trkpt lat="42.87876" lon="0.11395">
        <ele>1964</ele>
        <time>2017-02-25T08:27:20Z</time>
      </trkpt>
      <trkpt lat="42.87876" lon="0.11396">
        <ele>1964</ele>
        <time>2017-02-25T08:27:21Z</time>
      </trkpt>
      <trkpt lat="42.87876" lon="0.11396">
        <ele>1964</ele>
        <time>2017-02-25T08:27:22Z</time>
      </trkpt>
      <trkpt lat="42.87875" lon="0.11396">
        <ele>1964</ele>
        <time>2017-02-25T08:27:23Z</time>
      </trkpt>
      <trkpt lat="42.87875" lon="0.11396">
        <ele>1964</ele>
        <time>2017-02-25T08:27:24Z</time>
      </trkpt>
      <trkpt lat="42.87875" lon="0.11396">
        <ele>1965</ele>
        <time>2017-02-25T08:27:25Z</time>
      </trkpt>
      <trkpt lat="42.87875" lon="0.11397">
        <ele>1965</ele>
        <time>2017-02-25T08:27:26Z</time>
      </trkpt>
      <trkpt lat="42.87875" lon="0.11397">
        <ele>1965</ele>
        <time>2017-02-25T08:27:27Z</time>
      </trkpt>
      <trkpt lat="42.87873" lon="0.11399">
        <ele>1967</ele>
        <time>2017-02-25T08:27:39Z</time>
      </trkpt>
      <trkpt lat="42.87872" lon="0.114">
        <ele>1968</ele>
        <time>2017-02-25T08:27:50Z</time>
      </trkpt>
      <trkpt lat="42.8787" lon="0.11401">
        <ele>1970</ele>
        <time>2017-02-25T08:28:05Z</time>
      </trkpt>
      <trkpt lat="42.87868" lon="0.11402">
        <ele>1971</ele>
        <time>2017-02-25T08:28:15Z</time>
      </trkpt>
      <trkpt lat="42.87865" lon="0.11404">
        <ele>1975</ele>
        <time>2017-02-25T08:28:37Z</time>
      </trkpt>
      <trkpt lat="42.87863" lon="0.11404">
        <ele>1978</ele>
        <time>2017-02-25T08:28:50Z</time>
      </trkpt>
      <trkpt lat="42.87861" lon="0.11405">
        <ele>1980</ele>
        <time>2017-02-25T08:29:02Z</time>
      </trkpt>
      <trkpt lat="42.87857" lon="0.11406">
        <ele>1983</ele>
        <time>2017-02-25T08:29:18Z</time>
      </trkpt>
      <trkpt lat="42.87855" lon="0.11407">
        <ele>1985</ele>
        <time>2017-02-25T08:29:26Z</time>
      </trkpt>
      <trkpt lat="42.87853" lon="0.11408">
        <ele>1987</ele>
        <time>2017-02-25T08:29:36Z</time>
      </trkpt>
      <trkpt lat="42.87852" lon="0.11409">
        <ele>1988</ele>
        <time>2017-02-25T08:29:43Z</time>
      </trkpt>
      <trkpt lat="42.87847" lon="0.11414">
        <ele>1993</ele>
        <time>2017-02-25T08:30:12Z</time>
      </trkpt>
      <trkpt lat="42.87845" lon="0.11415">
        <ele>1996</ele>
        <time>2017-02-25T08:30:20Z</time>
      </trkpt>
      <trkpt lat="42.87843" lon="0.11416">
        <ele>1996</ele>
        <time>2017-02-25T08:30:28Z</time>
      </trkpt>
      <trkpt lat="42.87841" lon="0.11416">
        <ele>1998</ele>
        <time>2017-02-25T08:30:30Z</time>
      </trkpt>
      <trkpt lat="42.87839" lon="0.11417">
        <ele>1999</ele>
        <time>2017-02-25T08:30:42Z</time>
      </trkpt>
      <trkpt lat="42.87838" lon="0.11419">
        <ele>2001</ele>
        <time>2017-02-25T08:30:53Z</time>
      </trkpt>
      <trkpt lat="42.87836" lon="0.11419">
        <ele>2004</ele>
        <time>2017-02-25T08:30:59Z</time>
      </trkpt>
      <trkpt lat="42.87834" lon="0.1142">
        <ele>2006</ele>
        <time>2017-02-25T08:31:10Z</time>
      </trkpt>
      <trkpt lat="42.87832" lon="0.1142">
        <ele>2007</ele>
        <time>2017-02-25T08:31:20Z</time>
      </trkpt>
      <trkpt lat="42.87828" lon="0.11422">
        <ele>2010</ele>
        <time>2017-02-25T08:31:34Z</time>
      </trkpt>
      <trkpt lat="42.87826" lon="0.11422">
        <ele>2012</ele>
        <time>2017-02-25T08:31:45Z</time>
      </trkpt>
      <trkpt lat="42.87825" lon="0.11423">
        <ele>2014</ele>
        <time>2017-02-25T08:31:54Z</time>
      </trkpt>
      <trkpt lat="42.87823" lon="0.11425">
        <ele>2016</ele>
        <time>2017-02-25T08:32:04Z</time>
      </trkpt>
      <trkpt lat="42.87819" lon="0.11426">
        <ele>2018</ele>
        <time>2017-02-25T08:32:14Z</time>
      </trkpt>
      <trkpt lat="42.87817" lon="0.11426">
        <ele>2019</ele>
        <time>2017-02-25T08:32:23Z</time>
      </trkpt>
      <trkpt lat="42.87815" lon="0.11427">
        <ele>2021</ele>
        <time>2017-02-25T08:32:29Z</time>
      </trkpt>
      <trkpt lat="42.87813" lon="0.11431">
        <ele>2024</ele>
        <time>2017-02-25T08:32:43Z</time>
      </trkpt>
      <trkpt lat="42.87811" lon="0.11432">
        <ele>2026</ele>
        <time>2017-02-25T08:32:50Z</time>
      </trkpt>
      <trkpt lat="42.87808" lon="0.11435">
        <ele>2027</ele>
        <time>2017-02-25T08:33:02Z</time>
      </trkpt>
      <trkpt lat="42.87806" lon="0.11436">
        <ele>2029</ele>
        <time>2017-02-25T08:33:06Z</time>
      </trkpt>
      <trkpt lat="42.87803" lon="0.11434">
        <ele>2030</ele>
        <time>2017-02-25T08:33:10Z</time>
      </trkpt>
      <trkpt lat="42.87799" lon="0.11435">
        <ele>2031</ele>
        <time>2017-02-25T08:33:17Z</time>
      </trkpt>
      <trkpt lat="42.87795" lon="0.11431">
        <ele>2033</ele>
        <time>2017-02-25T08:33:46Z</time>
      </trkpt>
      <trkpt lat="42.87796" lon="0.11428">
        <ele>2035</ele>
        <time>2017-02-25T08:33:53Z</time>
      </trkpt>
      <trkpt lat="42.87795" lon="0.11426">
        <ele>2036</ele>
        <time>2017-02-25T08:33:58Z</time>
      </trkpt>
      <trkpt lat="42.87794" lon="0.11423">
        <ele>2036</ele>
        <time>2017-02-25T08:34:04Z</time>
      </trkpt>
      <trkpt lat="42.87793" lon="0.11421">
        <ele>2037</ele>
        <time>2017-02-25T08:34:09Z</time>
      </trkpt>
      <trkpt lat="42.87791" lon="0.11416">
        <ele>2040</ele>
        <time>2017-02-25T08:34:18Z</time>
      </trkpt>
      <trkpt lat="42.8779" lon="0.11414">
        <ele>2041</ele>
        <time>2017-02-25T08:34:24Z</time>
      </trkpt>
      <trkpt lat="42.87788" lon="0.11412">
        <ele>2042</ele>
        <time>2017-02-25T08:34:29Z</time>
      </trkpt>
      <trkpt lat="42.87786" lon="0.11411">
        <ele>2043</ele>
        <time>2017-02-25T08:34:33Z</time>
      </trkpt>
      <trkpt lat="42.87774" lon="0.11411">
        <ele>2045</ele>
        <time>2017-02-25T08:34:48Z</time>
      </trkpt>
      <trkpt lat="42.87772" lon="0.11411">
        <ele>2045</ele>
        <time>2017-02-25T08:34:50Z</time>
      </trkpt>
      <trkpt lat="42.8777" lon="0.1141">
        <ele>2045</ele>
        <time>2017-02-25T08:36:17Z</time>
      </trkpt>
      <trkpt lat="42.87769" lon="0.11408">
        <ele>2047</ele>
        <time>2017-02-25T08:36:38Z</time>
      </trkpt>
      <trkpt lat="42.87768" lon="0.11406">
        <ele>2047</ele>
        <time>2017-02-25T08:36:40Z</time>
      </trkpt>
      <trkpt lat="42.87767" lon="0.11403">
        <ele>2047</ele>
        <time>2017-02-25T08:36:44Z</time>
      </trkpt>
      <trkpt lat="42.87766" lon="0.114">
        <ele>2047</ele>
        <time>2017-02-25T08:36:47Z</time>
      </trkpt>
      <trkpt lat="42.87763" lon="0.11394">
        <ele>2047</ele>
        <time>2017-02-25T08:36:51Z</time>
      </trkpt>
      <trkpt lat="42.87758" lon="0.11387">
        <ele>2045</ele>
        <time>2017-02-25T08:36:55Z</time>
      </trkpt>
      <trkpt lat="42.87736" lon="0.11335">
        <ele>2046</ele>
        <time>2017-02-25T08:37:27Z</time>
      </trkpt>
      <trkpt lat="42.87734" lon="0.11332">
        <ele>2046</ele>
        <time>2017-02-25T08:37:29Z</time>
      </trkpt>
      <trkpt lat="42.87731" lon="0.11326">
        <ele>2046</ele>
        <time>2017-02-25T08:37:33Z</time>
      </trkpt>
      <trkpt lat="42.87712" lon="0.11294">
        <ele>2046</ele>
        <time>2017-02-25T08:37:53Z</time>
      </trkpt>
      <trkpt lat="42.87705" lon="0.1128">
        <ele>2045</ele>
        <time>2017-02-25T08:38:03Z</time>
      </trkpt>
      <trkpt lat="42.87703" lon="0.11272">
        <ele>2045</ele>
        <time>2017-02-25T08:38:07Z</time>
      </trkpt>
      <trkpt lat="42.87702" lon="0.11268">
        <ele>2045</ele>
        <time>2017-02-25T08:38:09Z</time>
      </trkpt>
      <trkpt lat="42.877" lon="0.11261">
        <ele>2045</ele>
        <time>2017-02-25T08:38:13Z</time>
      </trkpt>
      <trkpt lat="42.87695" lon="0.11254">
        <ele>2046</ele>
        <time>2017-02-25T08:38:20Z</time>
      </trkpt>
      <trkpt lat="42.87687" lon="0.11244">
        <ele>2047</ele>
        <time>2017-02-25T08:38:28Z</time>
      </trkpt>
      <trkpt lat="42.87681" lon="0.11239">
        <ele>2048</ele>
        <time>2017-02-25T08:38:34Z</time>
      </trkpt>
      <trkpt lat="42.87679" lon="0.11238">
        <ele>2048</ele>
        <time>2017-02-25T08:38:36Z</time>
      </trkpt>
      <trkpt lat="42.87672" lon="0.11232">
        <ele>2049</ele>
        <time>2017-02-25T08:38:45Z</time>
      </trkpt>
      <trkpt lat="42.8767" lon="0.11231">
        <ele>2049</ele>
        <time>2017-02-25T08:38:47Z</time>
      </trkpt>
      <trkpt lat="42.87668" lon="0.11229">
        <ele>2051</ele>
        <time>2017-02-25T08:38:50Z</time>
      </trkpt>
      <trkpt lat="42.87664" lon="0.11226">
        <ele>2051</ele>
        <time>2017-02-25T08:38:55Z</time>
      </trkpt>
      <trkpt lat="42.87651" lon="0.11207">
        <ele>2054</ele>
        <time>2017-02-25T08:39:14Z</time>
      </trkpt>
      <trkpt lat="42.87649" lon="0.11206">
        <ele>2054</ele>
        <time>2017-02-25T08:39:16Z</time>
      </trkpt>
      <trkpt lat="42.87648" lon="0.11205">
        <ele>2053</ele>
        <time>2017-02-25T08:39:18Z</time>
      </trkpt>
      <trkpt lat="42.87646" lon="0.11206">
        <ele>2054</ele>
        <time>2017-02-25T08:39:22Z</time>
      </trkpt>
      <trkpt lat="42.87644" lon="0.11207">
        <ele>2054</ele>
        <time>2017-02-25T08:39:25Z</time>
      </trkpt>
      <trkpt lat="42.87642" lon="0.11209">
        <ele>2054</ele>
        <time>2017-02-25T08:39:28Z</time>
      </trkpt>
      <trkpt lat="42.87624" lon="0.11231">
        <ele>2056</ele>
        <time>2017-02-25T08:39:50Z</time>
      </trkpt>
      <trkpt lat="42.8759" lon="0.1127">
        <ele>2058</ele>
        <time>2017-02-25T08:40:33Z</time>
      </trkpt>
      <trkpt lat="42.87575" lon="0.11283">
        <ele>2060</ele>
        <time>2017-02-25T08:40:52Z</time>
      </trkpt>
      <trkpt lat="42.87571" lon="0.11287">
        <ele>2060</ele>
        <time>2017-02-25T08:40:56Z</time>
      </trkpt>
      <trkpt lat="42.87559" lon="0.11297">
        <ele>2063</ele>
        <time>2017-02-25T08:41:30Z</time>
      </trkpt>
      <trkpt lat="42.87558" lon="0.11298">
        <ele>2063</ele>
        <time>2017-02-25T08:41:33Z</time>
      </trkpt>
      <trkpt lat="42.87544" lon="0.1131">
        <ele>2064</ele>
        <time>2017-02-25T08:41:49Z</time>
      </trkpt>
      <trkpt lat="42.87522" lon="0.11324">
        <ele>2068</ele>
        <time>2017-02-25T08:42:14Z</time>
      </trkpt>
      <trkpt lat="42.8752" lon="0.11325">
        <ele>2069</ele>
        <time>2017-02-25T08:42:17Z</time>
      </trkpt>
      <trkpt lat="42.87518" lon="0.11326">
        <ele>2069</ele>
        <time>2017-02-25T08:42:20Z</time>
      </trkpt>
      <trkpt lat="42.87506" lon="0.11336">
        <ele>2070</ele>
        <time>2017-02-25T08:42:35Z</time>
      </trkpt>
      <trkpt lat="42.87504" lon="0.11337">
        <ele>2070</ele>
        <time>2017-02-25T08:42:37Z</time>
      </trkpt>
      <trkpt lat="42.87472" lon="0.11364">
        <ele>2074</ele>
        <time>2017-02-25T08:43:09Z</time>
      </trkpt>
      <trkpt lat="42.8747" lon="0.11365">
        <ele>2074</ele>
        <time>2017-02-25T08:43:11Z</time>
      </trkpt>
      <trkpt lat="42.87465" lon="0.11372">
        <ele>2075</ele>
        <time>2017-02-25T08:43:17Z</time>
      </trkpt>
      <trkpt lat="42.87463" lon="0.11375">
        <ele>2076</ele>
        <time>2017-02-25T08:43:19Z</time>
      </trkpt>
      <trkpt lat="42.87457" lon="0.11382">
        <ele>2076</ele>
        <time>2017-02-25T08:43:27Z</time>
      </trkpt>
      <trkpt lat="42.87452" lon="0.11387">
        <ele>2076</ele>
        <time>2017-02-25T08:43:33Z</time>
      </trkpt>
      <trkpt lat="42.87439" lon="0.11393">
        <ele>2078</ele>
        <time>2017-02-25T08:43:47Z</time>
      </trkpt>
      <trkpt lat="42.87436" lon="0.11395">
        <ele>2078</ele>
        <time>2017-02-25T08:43:49Z</time>
      </trkpt>
      <trkpt lat="42.87434" lon="0.11396">
        <ele>2078</ele>
        <time>2017-02-25T08:43:51Z</time>
      </trkpt>
      <trkpt lat="42.87418" lon="0.11408">
        <ele>2079</ele>
        <time>2017-02-25T08:44:05Z</time>
      </trkpt>
      <trkpt lat="42.87405" lon="0.1142">
        <ele>2078</ele>
        <time>2017-02-25T08:44:15Z</time>
      </trkpt>
      <trkpt lat="42.8739" lon="0.11431">
        <ele>2076</ele>
        <time>2017-02-25T08:44:26Z</time>
      </trkpt>
      <trkpt lat="42.87386" lon="0.11434">
        <ele>2076</ele>
        <time>2017-02-25T08:44:30Z</time>
      </trkpt>
      <trkpt lat="42.87373" lon="0.11443">
        <ele>2077</ele>
        <time>2017-02-25T08:44:42Z</time>
      </trkpt>
      <trkpt lat="42.87371" lon="0.11445">
        <ele>2077</ele>
        <time>2017-02-25T08:44:44Z</time>
      </trkpt>
      <trkpt lat="42.87366" lon="0.11448">
        <ele>2078</ele>
        <time>2017-02-25T08:44:50Z</time>
      </trkpt>
      <trkpt lat="42.87361" lon="0.1145">
        <ele>2078</ele>
        <time>2017-02-25T08:44:56Z</time>
      </trkpt>
      <trkpt lat="42.87359" lon="0.11451">
        <ele>2079</ele>
        <time>2017-02-25T08:44:58Z</time>
      </trkpt>
      <trkpt lat="42.87357" lon="0.11452">
        <ele>2079</ele>
        <time>2017-02-25T08:45:00Z</time>
      </trkpt>
      <trkpt lat="42.87355" lon="0.11452">
        <ele>2079</ele>
        <time>2017-02-25T08:45:02Z</time>
      </trkpt>
      <trkpt lat="42.87353" lon="0.11454">
        <ele>2079</ele>
        <time>2017-02-25T08:45:04Z</time>
      </trkpt>
      <trkpt lat="42.87348" lon="0.11457">
        <ele>2079</ele>
        <time>2017-02-25T08:45:08Z</time>
      </trkpt>
      <trkpt lat="42.8734" lon="0.11462">
        <ele>2079</ele>
        <time>2017-02-25T08:45:14Z</time>
      </trkpt>
      <trkpt lat="42.87338" lon="0.11463">
        <ele>2079</ele>
        <time>2017-02-25T08:45:16Z</time>
      </trkpt>
      <trkpt lat="42.87319" lon="0.11475">
        <ele>2081</ele>
        <time>2017-02-25T08:45:34Z</time>
      </trkpt>
      <trkpt lat="42.87316" lon="0.11476">
        <ele>2081</ele>
        <time>2017-02-25T08:45:36Z</time>
      </trkpt>
      <trkpt lat="42.87314" lon="0.11476">
        <ele>2081</ele>
        <time>2017-02-25T08:45:38Z</time>
      </trkpt>
      <trkpt lat="42.87313" lon="0.11477">
        <ele>2081</ele>
        <time>2017-02-25T08:45:40Z</time>
      </trkpt>
      <trkpt lat="42.87307" lon="0.11479">
        <ele>2082</ele>
        <time>2017-02-25T08:45:46Z</time>
      </trkpt>
      <trkpt lat="42.87301" lon="0.1148">
        <ele>2083</ele>
        <time>2017-02-25T08:45:52Z</time>
      </trkpt>
      <trkpt lat="42.87299" lon="0.1148">
        <ele>2083</ele>
        <time>2017-02-25T08:45:54Z</time>
      </trkpt>
      <trkpt lat="42.87297" lon="0.1148">
        <ele>2083</ele>
        <time>2017-02-25T08:45:56Z</time>
      </trkpt>
      <trkpt lat="42.87293" lon="0.1148">
        <ele>2084</ele>
        <time>2017-02-25T08:46:00Z</time>
      </trkpt>
      <trkpt lat="42.87275" lon="0.11479">
        <ele>2085</ele>
        <time>2017-02-25T08:46:18Z</time>
      </trkpt>
      <trkpt lat="42.87273" lon="0.11479">
        <ele>2085</ele>
        <time>2017-02-25T08:46:20Z</time>
      </trkpt>
      <trkpt lat="42.87271" lon="0.11478">
        <ele>2085</ele>
        <time>2017-02-25T08:46:22Z</time>
      </trkpt>
      <trkpt lat="42.87269" lon="0.11478">
        <ele>2088</ele>
        <time>2017-02-25T08:46:24Z</time>
      </trkpt>
      <trkpt lat="42.87264" lon="0.11476">
        <ele>2089</ele>
        <time>2017-02-25T08:46:30Z</time>
      </trkpt>
      <trkpt lat="42.87249" lon="0.11475">
        <ele>2090</ele>
        <time>2017-02-25T08:46:44Z</time>
      </trkpt>
      <trkpt lat="42.87247" lon="0.11474">
        <ele>2090</ele>
        <time>2017-02-25T08:46:46Z</time>
      </trkpt>
      <trkpt lat="42.87243" lon="0.11473">
        <ele>2091</ele>
        <time>2017-02-25T08:46:50Z</time>
      </trkpt>
      <trkpt lat="42.87237" lon="0.1147">
        <ele>2091</ele>
        <time>2017-02-25T08:46:56Z</time>
      </trkpt>
      <trkpt lat="42.87235" lon="0.1147">
        <ele>2092</ele>
        <time>2017-02-25T08:46:58Z</time>
      </trkpt>
      <trkpt lat="42.87227" lon="0.11464">
        <ele>2093</ele>
        <time>2017-02-25T08:47:06Z</time>
      </trkpt>
      <trkpt lat="42.87226" lon="0.11462">
        <ele>2094</ele>
        <time>2017-02-25T08:47:08Z</time>
      </trkpt>
      <trkpt lat="42.87224" lon="0.11461">
        <ele>2094</ele>
        <time>2017-02-25T08:47:10Z</time>
      </trkpt>
      <trkpt lat="42.87219" lon="0.11458">
        <ele>2094</ele>
        <time>2017-02-25T08:47:14Z</time>
      </trkpt>
      <trkpt lat="42.87213" lon="0.11457">
        <ele>2094</ele>
        <time>2017-02-25T08:47:18Z</time>
      </trkpt>
      <trkpt lat="42.87206" lon="0.11452">
        <ele>2095</ele>
        <time>2017-02-25T08:47:24Z</time>
      </trkpt>
      <trkpt lat="42.87202" lon="0.1145">
        <ele>2095</ele>
        <time>2017-02-25T08:47:28Z</time>
      </trkpt>
      <trkpt lat="42.87199" lon="0.11449">
        <ele>2095</ele>
        <time>2017-02-25T08:47:30Z</time>
      </trkpt>
      <trkpt lat="42.87197" lon="0.11448">
        <ele>2096</ele>
        <time>2017-02-25T08:47:32Z</time>
      </trkpt>
      <trkpt lat="42.87195" lon="0.11447">
        <ele>2096</ele>
        <time>2017-02-25T08:47:34Z</time>
      </trkpt>
      <trkpt lat="42.87193" lon="0.11444">
        <ele>2096</ele>
        <time>2017-02-25T08:48:24Z</time>
      </trkpt>
      <trkpt lat="42.87194" lon="0.11442">
        <ele>2096</ele>
        <time>2017-02-25T08:48:26Z</time>
      </trkpt>
      <trkpt lat="42.87193" lon="0.11439">
        <ele>2096</ele>
        <time>2017-02-25T08:48:29Z</time>
      </trkpt>
      <trkpt lat="42.8719" lon="0.11434">
        <ele>2096</ele>
        <time>2017-02-25T08:48:34Z</time>
      </trkpt>
      <trkpt lat="42.87184" lon="0.11425">
        <ele>2098</ele>
        <time>2017-02-25T08:48:42Z</time>
      </trkpt>
      <trkpt lat="42.87182" lon="0.11422">
        <ele>2099</ele>
        <time>2017-02-25T08:48:44Z</time>
      </trkpt>
      <trkpt lat="42.87168" lon="0.11401">
        <ele>2103</ele>
        <time>2017-02-25T08:49:03Z</time>
      </trkpt>
      <trkpt lat="42.87164" lon="0.11396">
        <ele>2104</ele>
        <time>2017-02-25T08:49:08Z</time>
      </trkpt>
      <trkpt lat="42.87159" lon="0.1139">
        <ele>2105</ele>
        <time>2017-02-25T08:49:15Z</time>
      </trkpt>
      <trkpt lat="42.87158" lon="0.11387">
        <ele>2105</ele>
        <time>2017-02-25T08:49:18Z</time>
      </trkpt>
      <trkpt lat="42.87155" lon="0.11381">
        <ele>2107</ele>
        <time>2017-02-25T08:49:24Z</time>
      </trkpt>
      <trkpt lat="42.87154" lon="0.11379">
        <ele>2108</ele>
        <time>2017-02-25T08:49:27Z</time>
      </trkpt>
      <trkpt lat="42.87152" lon="0.11379">
        <ele>2108</ele>
        <time>2017-02-25T08:49:31Z</time>
      </trkpt>
      <trkpt lat="42.87148" lon="0.11376">
        <ele>2110</ele>
        <time>2017-02-25T08:49:40Z</time>
      </trkpt>
      <trkpt lat="42.87143" lon="0.11371">
        <ele>2113</ele>
        <time>2017-02-25T08:49:48Z</time>
      </trkpt>
      <trkpt lat="42.8714" lon="0.11371">
        <ele>2114</ele>
        <time>2017-02-25T08:49:51Z</time>
      </trkpt>
      <trkpt lat="42.87138" lon="0.1137">
        <ele>2115</ele>
        <time>2017-02-25T08:49:54Z</time>
      </trkpt>
      <trkpt lat="42.87134" lon="0.11369">
        <ele>2116</ele>
        <time>2017-02-25T08:50:00Z</time>
      </trkpt>
      <trkpt lat="42.87135" lon="0.11366">
        <ele>2117</ele>
        <time>2017-02-25T08:50:07Z</time>
      </trkpt>
      <trkpt lat="42.8714" lon="0.1136">
        <ele>2118</ele>
        <time>2017-02-25T08:50:13Z</time>
      </trkpt>
      <trkpt lat="42.87141" lon="0.11358">
        <ele>2119</ele>
        <time>2017-02-25T08:50:16Z</time>
      </trkpt>
      <trkpt lat="42.87142" lon="0.11355">
        <ele>2119</ele>
        <time>2017-02-25T08:50:19Z</time>
      </trkpt>
      <trkpt lat="42.87141" lon="0.11349">
        <ele>2120</ele>
        <time>2017-02-25T08:50:23Z</time>
      </trkpt>
      <trkpt lat="42.87141" lon="0.11346">
        <ele>2121</ele>
        <time>2017-02-25T08:50:26Z</time>
      </trkpt>
      <trkpt lat="42.87139" lon="0.11344">
        <ele>2122</ele>
        <time>2017-02-25T08:50:29Z</time>
      </trkpt>
      <trkpt lat="42.87137" lon="0.11343">
        <ele>2123</ele>
        <time>2017-02-25T08:50:31Z</time>
      </trkpt>
      <trkpt lat="42.87135" lon="0.11341">
        <ele>2124</ele>
        <time>2017-02-25T08:50:34Z</time>
      </trkpt>
      <trkpt lat="42.87133" lon="0.1134">
        <ele>2125</ele>
        <time>2017-02-25T08:50:37Z</time>
      </trkpt>
      <trkpt lat="42.87131" lon="0.1134">
        <ele>2126</ele>
        <time>2017-02-25T08:50:39Z</time>
      </trkpt>
      <trkpt lat="42.87127" lon="0.11341">
        <ele>2126</ele>
        <time>2017-02-25T08:50:43Z</time>
      </trkpt>
      <trkpt lat="42.87125" lon="0.11342">
        <ele>2127</ele>
        <time>2017-02-25T08:50:45Z</time>
      </trkpt>
      <trkpt lat="42.87122" lon="0.11343">
        <ele>2127</ele>
        <time>2017-02-25T08:50:48Z</time>
      </trkpt>
      <trkpt lat="42.87115" lon="0.11344">
        <ele>2129</ele>
        <time>2017-02-25T08:50:56Z</time>
      </trkpt>
      <trkpt lat="42.87113" lon="0.11345">
        <ele>2130</ele>
        <time>2017-02-25T08:50:59Z</time>
      </trkpt>
      <trkpt lat="42.8711" lon="0.11346">
        <ele>2130</ele>
        <time>2017-02-25T08:51:02Z</time>
      </trkpt>
      <trkpt lat="42.87096" lon="0.11348">
        <ele>2134</ele>
        <time>2017-02-25T08:51:18Z</time>
      </trkpt>
      <trkpt lat="42.87094" lon="0.11348">
        <ele>2134</ele>
        <time>2017-02-25T08:51:20Z</time>
      </trkpt>
      <trkpt lat="42.8709" lon="0.11346">
        <ele>2136</ele>
        <time>2017-02-25T08:51:26Z</time>
      </trkpt>
      <trkpt lat="42.87088" lon="0.11344">
        <ele>2137</ele>
        <time>2017-02-25T08:51:29Z</time>
      </trkpt>
      <trkpt lat="42.87086" lon="0.11344">
        <ele>2139</ele>
        <time>2017-02-25T08:51:32Z</time>
      </trkpt>
      <trkpt lat="42.87084" lon="0.11342">
        <ele>2140</ele>
        <time>2017-02-25T08:51:35Z</time>
      </trkpt>
      <trkpt lat="42.87082" lon="0.11342">
        <ele>2140</ele>
        <time>2017-02-25T08:51:38Z</time>
      </trkpt>
      <trkpt lat="42.87076" lon="0.11343">
        <ele>2142</ele>
        <time>2017-02-25T08:51:45Z</time>
      </trkpt>
      <trkpt lat="42.87074" lon="0.11344">
        <ele>2143</ele>
        <time>2017-02-25T08:51:47Z</time>
      </trkpt>
      <trkpt lat="42.87072" lon="0.11345">
        <ele>2143</ele>
        <time>2017-02-25T08:51:49Z</time>
      </trkpt>
      <trkpt lat="42.87066" lon="0.1135">
        <ele>2145</ele>
        <time>2017-02-25T08:51:58Z</time>
      </trkpt>
      <trkpt lat="42.87064" lon="0.11352">
        <ele>2145</ele>
        <time>2017-02-25T08:52:01Z</time>
      </trkpt>
      <trkpt lat="42.87062" lon="0.11351">
        <ele>2146</ele>
        <time>2017-02-25T08:52:04Z</time>
      </trkpt>
      <trkpt lat="42.87062" lon="0.11348">
        <ele>2146</ele>
        <time>2017-02-25T08:52:07Z</time>
      </trkpt>
      <trkpt lat="42.87062" lon="0.11346">
        <ele>2146</ele>
        <time>2017-02-25T08:52:09Z</time>
      </trkpt>
      <trkpt lat="42.87064" lon="0.1134">
        <ele>2148</ele>
        <time>2017-02-25T08:52:14Z</time>
      </trkpt>
      <trkpt lat="42.87065" lon="0.11337">
        <ele>2148</ele>
        <time>2017-02-25T08:52:17Z</time>
      </trkpt>
      <trkpt lat="42.87065" lon="0.11333">
        <ele>2148</ele>
        <time>2017-02-25T08:52:21Z</time>
      </trkpt>
      <trkpt lat="42.87066" lon="0.11331">
        <ele>2149</ele>
        <time>2017-02-25T08:52:24Z</time>
      </trkpt>
      <trkpt lat="42.87067" lon="0.11328">
        <ele>2149</ele>
        <time>2017-02-25T08:52:28Z</time>
      </trkpt>
      <trkpt lat="42.87071" lon="0.11325">
        <ele>2150</ele>
        <time>2017-02-25T08:52:38Z</time>
      </trkpt>
      <trkpt lat="42.87074" lon="0.11316">
        <ele>2151</ele>
        <time>2017-02-25T08:52:52Z</time>
      </trkpt>
      <trkpt lat="42.87073" lon="0.11313">
        <ele>2152</ele>
        <time>2017-02-25T08:52:55Z</time>
      </trkpt>
      <trkpt lat="42.87071" lon="0.11314">
        <ele>2152</ele>
        <time>2017-02-25T08:53:00Z</time>
      </trkpt>
      <trkpt lat="42.87069" lon="0.11315">
        <ele>2153</ele>
        <time>2017-02-25T08:53:02Z</time>
      </trkpt>
      <trkpt lat="42.87065" lon="0.11317">
        <ele>2154</ele>
        <time>2017-02-25T08:53:06Z</time>
      </trkpt>
      <trkpt lat="42.87066" lon="0.11312">
        <ele>2155</ele>
        <time>2017-02-25T08:53:17Z</time>
      </trkpt>
      <trkpt lat="42.87067" lon="0.1131">
        <ele>2155</ele>
        <time>2017-02-25T08:53:19Z</time>
      </trkpt>
      <trkpt lat="42.87067" lon="0.11306">
        <ele>2155</ele>
        <time>2017-02-25T08:53:22Z</time>
      </trkpt>
      <trkpt lat="42.87068" lon="0.11303">
        <ele>2156</ele>
        <time>2017-02-25T08:53:25Z</time>
      </trkpt>
      <trkpt lat="42.87069" lon="0.113">
        <ele>2157</ele>
        <time>2017-02-25T08:53:28Z</time>
      </trkpt>
      <trkpt lat="42.8707" lon="0.11298">
        <ele>2157</ele>
        <time>2017-02-25T08:53:31Z</time>
      </trkpt>
      <trkpt lat="42.87068" lon="0.11299">
        <ele>2158</ele>
        <time>2017-02-25T08:53:36Z</time>
      </trkpt>
      <trkpt lat="42.87061" lon="0.11302">
        <ele>2159</ele>
        <time>2017-02-25T08:53:42Z</time>
      </trkpt>
      <trkpt lat="42.87059" lon="0.11304">
        <ele>2159</ele>
        <time>2017-02-25T08:53:44Z</time>
      </trkpt>
      <trkpt lat="42.87053" lon="0.11309">
        <ele>2161</ele>
        <time>2017-02-25T08:53:51Z</time>
      </trkpt>
      <trkpt lat="42.87046" lon="0.11313">
        <ele>2162</ele>
        <time>2017-02-25T08:53:57Z</time>
      </trkpt>
      <trkpt lat="42.87044" lon="0.11313">
        <ele>2163</ele>
        <time>2017-02-25T08:53:59Z</time>
      </trkpt>
      <trkpt lat="42.87043" lon="0.11313">
        <ele>2163</ele>
        <time>2017-02-25T08:54:01Z</time>
      </trkpt>
      <trkpt lat="42.8704" lon="0.11315">
        <ele>2164</ele>
        <time>2017-02-25T08:54:04Z</time>
      </trkpt>
      <trkpt lat="42.87038" lon="0.11315">
        <ele>2164</ele>
        <time>2017-02-25T08:54:06Z</time>
      </trkpt>
      <trkpt lat="42.87036" lon="0.11316">
        <ele>2165</ele>
        <time>2017-02-25T08:54:09Z</time>
      </trkpt>
      <trkpt lat="42.87031" lon="0.11305">
        <ele>2169</ele>
        <time>2017-02-25T08:54:24Z</time>
      </trkpt>
      <trkpt lat="42.8703" lon="0.11303">
        <ele>2170</ele>
        <time>2017-02-25T08:54:27Z</time>
      </trkpt>
      <trkpt lat="42.87029" lon="0.11301">
        <ele>2171</ele>
        <time>2017-02-25T08:54:31Z</time>
      </trkpt>
      <trkpt lat="42.87029" lon="0.11298">
        <ele>2172</ele>
        <time>2017-02-25T08:54:35Z</time>
      </trkpt>
      <trkpt lat="42.87029" lon="0.11295">
        <ele>2172</ele>
        <time>2017-02-25T08:54:38Z</time>
      </trkpt>
      <trkpt lat="42.87029" lon="0.11292">
        <ele>2173</ele>
        <time>2017-02-25T08:54:41Z</time>
      </trkpt>
      <trkpt lat="42.8703" lon="0.11289">
        <ele>2173</ele>
        <time>2017-02-25T08:54:44Z</time>
      </trkpt>
      <trkpt lat="42.87031" lon="0.11287">
        <ele>2174</ele>
        <time>2017-02-25T08:54:47Z</time>
      </trkpt>
      <trkpt lat="42.87032" lon="0.11284">
        <ele>2175</ele>
        <time>2017-02-25T08:54:50Z</time>
      </trkpt>
      <trkpt lat="42.87033" lon="0.11282">
        <ele>2176</ele>
        <time>2017-02-25T08:54:53Z</time>
      </trkpt>
      <trkpt lat="42.87034" lon="0.11279">
        <ele>2176</ele>
        <time>2017-02-25T08:54:56Z</time>
      </trkpt>
      <trkpt lat="42.87032" lon="0.11279">
        <ele>2177</ele>
        <time>2017-02-25T08:55:03Z</time>
      </trkpt>
      <trkpt lat="42.87027" lon="0.11279">
        <ele>2178</ele>
        <time>2017-02-25T08:55:08Z</time>
      </trkpt>
      <trkpt lat="42.8702" lon="0.1128">
        <ele>2180</ele>
        <time>2017-02-25T08:55:16Z</time>
      </trkpt>
      <trkpt lat="42.87018" lon="0.1128">
        <ele>2180</ele>
        <time>2017-02-25T08:55:18Z</time>
      </trkpt>
      <trkpt lat="42.87016" lon="0.11281">
        <ele>2180</ele>
        <time>2017-02-25T08:55:20Z</time>
      </trkpt>
      <trkpt lat="42.87012" lon="0.11282">
        <ele>2182</ele>
        <time>2017-02-25T08:55:24Z</time>
      </trkpt>
      <trkpt lat="42.87008" lon="0.11281">
        <ele>2183</ele>
        <time>2017-02-25T08:55:28Z</time>
      </trkpt>
      <trkpt lat="42.87007" lon="0.11279">
        <ele>2184</ele>
        <time>2017-02-25T08:55:58Z</time>
      </trkpt>
      <trkpt lat="42.87005" lon="0.11277">
        <ele>2183</ele>
        <time>2017-02-25T08:56:01Z</time>
      </trkpt>
      <trkpt lat="42.87003" lon="0.11276">
        <ele>2183</ele>
        <time>2017-02-25T08:56:04Z</time>
      </trkpt>
      <trkpt lat="42.86998" lon="0.11273">
        <ele>2183</ele>
        <time>2017-02-25T08:56:08Z</time>
      </trkpt>
      <trkpt lat="42.86996" lon="0.11272">
        <ele>2183</ele>
        <time>2017-02-25T08:56:09Z</time>
      </trkpt>
      <trkpt lat="42.86989" lon="0.11267">
        <ele>2181</ele>
        <time>2017-02-25T08:56:12Z</time>
      </trkpt>
      <trkpt lat="42.86987" lon="0.11266">
        <ele>2180</ele>
        <time>2017-02-25T08:56:14Z</time>
      </trkpt>
      <trkpt lat="42.86985" lon="0.11264">
        <ele>2180</ele>
        <time>2017-02-25T08:56:16Z</time>
      </trkpt>
      <trkpt lat="42.86983" lon="0.11264">
        <ele>2180</ele>
        <time>2017-02-25T08:56:17Z</time>
      </trkpt>
      <trkpt lat="42.86981" lon="0.11262">
        <ele>2180</ele>
        <time>2017-02-25T08:56:18Z</time>
      </trkpt>
      <trkpt lat="42.86979" lon="0.11261">
        <ele>2179</ele>
        <time>2017-02-25T08:56:19Z</time>
      </trkpt>
      <trkpt lat="42.86977" lon="0.11259">
        <ele>2179</ele>
        <time>2017-02-25T08:56:21Z</time>
      </trkpt>
      <trkpt lat="42.86963" lon="0.11252">
        <ele>2179</ele>
        <time>2017-02-25T08:56:35Z</time>
      </trkpt>
      <trkpt lat="42.86957" lon="0.11247">
        <ele>2179</ele>
        <time>2017-02-25T08:56:38Z</time>
      </trkpt>
      <trkpt lat="42.86951" lon="0.11241">
        <ele>2178</ele>
        <time>2017-02-25T08:56:42Z</time>
      </trkpt>
      <trkpt lat="42.86949" lon="0.11239">
        <ele>2178</ele>
        <time>2017-02-25T08:56:44Z</time>
      </trkpt>
      <trkpt lat="42.86947" lon="0.11239">
        <ele>2178</ele>
        <time>2017-02-25T08:57:04Z</time>
      </trkpt>
      <trkpt lat="42.86942" lon="0.11235">
        <ele>2178</ele>
        <time>2017-02-25T08:57:08Z</time>
      </trkpt>
      <trkpt lat="42.8694" lon="0.11234">
        <ele>2178</ele>
        <time>2017-02-25T08:57:09Z</time>
      </trkpt>
      <trkpt lat="42.86937" lon="0.11232">
        <ele>2178</ele>
        <time>2017-02-25T08:57:11Z</time>
      </trkpt>
      <trkpt lat="42.86935" lon="0.1123">
        <ele>2178</ele>
        <time>2017-02-25T08:57:13Z</time>
      </trkpt>
      <trkpt lat="42.8693" lon="0.11227">
        <ele>2178</ele>
        <time>2017-02-25T08:57:17Z</time>
      </trkpt>
      <trkpt lat="42.86928" lon="0.11225">
        <ele>2180</ele>
        <time>2017-02-25T08:57:19Z</time>
      </trkpt>
      <trkpt lat="42.86927" lon="0.11223">
        <ele>2180</ele>
        <time>2017-02-25T08:57:21Z</time>
      </trkpt>
      <trkpt lat="42.86925" lon="0.11221">
        <ele>2181</ele>
        <time>2017-02-25T08:57:23Z</time>
      </trkpt>
      <trkpt lat="42.8692" lon="0.1122">
        <ele>2181</ele>
        <time>2017-02-25T08:57:27Z</time>
      </trkpt>
      <trkpt lat="42.86918" lon="0.11219">
        <ele>2181</ele>
        <time>2017-02-25T08:57:29Z</time>
      </trkpt>
      <trkpt lat="42.86916" lon="0.11219">
        <ele>2181</ele>
        <time>2017-02-25T08:57:31Z</time>
      </trkpt>
      <trkpt lat="42.86913" lon="0.11218">
        <ele>2182</ele>
        <time>2017-02-25T08:57:33Z</time>
      </trkpt>
      <trkpt lat="42.86911" lon="0.11216">
        <ele>2182</ele>
        <time>2017-02-25T08:57:35Z</time>
      </trkpt>
      <trkpt lat="42.86903" lon="0.11207">
        <ele>2182</ele>
        <time>2017-02-25T08:57:42Z</time>
      </trkpt>
      <trkpt lat="42.86888" lon="0.11194">
        <ele>2184</ele>
        <time>2017-02-25T08:57:56Z</time>
      </trkpt>
      <trkpt lat="42.86886" lon="0.11193">
        <ele>2184</ele>
        <time>2017-02-25T08:57:58Z</time>
      </trkpt>
      <trkpt lat="42.8688" lon="0.11188">
        <ele>2185</ele>
        <time>2017-02-25T08:58:04Z</time>
      </trkpt>
      <trkpt lat="42.86879" lon="0.11186">
        <ele>2185</ele>
        <time>2017-02-25T08:58:06Z</time>
      </trkpt>
      <trkpt lat="42.86873" lon="0.11182">
        <ele>2186</ele>
        <time>2017-02-25T08:58:12Z</time>
      </trkpt>
      <trkpt lat="42.86871" lon="0.11181">
        <ele>2187</ele>
        <time>2017-02-25T08:58:14Z</time>
      </trkpt>
      <trkpt lat="42.86868" lon="0.11181">
        <ele>2187</ele>
        <time>2017-02-25T08:58:16Z</time>
      </trkpt>
      <trkpt lat="42.86866" lon="0.11181">
        <ele>2187</ele>
        <time>2017-02-25T08:58:18Z</time>
      </trkpt>
      <trkpt lat="42.86861" lon="0.11181">
        <ele>2189</ele>
        <time>2017-02-25T08:58:22Z</time>
      </trkpt>
      <trkpt lat="42.86859" lon="0.11181">
        <ele>2189</ele>
        <time>2017-02-25T08:58:24Z</time>
      </trkpt>
      <trkpt lat="42.86857" lon="0.1118">
        <ele>2190</ele>
        <time>2017-02-25T08:58:26Z</time>
      </trkpt>
      <trkpt lat="42.86855" lon="0.11179">
        <ele>2190</ele>
        <time>2017-02-25T08:58:28Z</time>
      </trkpt>
      <trkpt lat="42.86853" lon="0.11178">
        <ele>2192</ele>
        <time>2017-02-25T08:58:30Z</time>
      </trkpt>
      <trkpt lat="42.8685" lon="0.11176">
        <ele>2192</ele>
        <time>2017-02-25T08:58:34Z</time>
      </trkpt>
      <trkpt lat="42.86848" lon="0.11174">
        <ele>2193</ele>
        <time>2017-02-25T08:58:36Z</time>
      </trkpt>
      <trkpt lat="42.86846" lon="0.11172">
        <ele>2193</ele>
        <time>2017-02-25T08:58:39Z</time>
      </trkpt>
      <trkpt lat="42.86845" lon="0.11171">
        <ele>2193</ele>
        <time>2017-02-25T08:58:41Z</time>
      </trkpt>
      <trkpt lat="42.86843" lon="0.11168">
        <ele>2193</ele>
        <time>2017-02-25T08:58:44Z</time>
      </trkpt>
      <trkpt lat="42.86841" lon="0.11155">
        <ele>2197</ele>
        <time>2017-02-25T08:58:55Z</time>
      </trkpt>
      <trkpt lat="42.86842" lon="0.11138">
        <ele>2199</ele>
        <time>2017-02-25T08:59:08Z</time>
      </trkpt>
      <trkpt lat="42.86843" lon="0.11122">
        <ele>2201</ele>
        <time>2017-02-25T08:59:18Z</time>
      </trkpt>
      <trkpt lat="42.86842" lon="0.11119">
        <ele>2202</ele>
        <time>2017-02-25T08:59:21Z</time>
      </trkpt>
      <trkpt lat="42.86839" lon="0.11115">
        <ele>2203</ele>
        <time>2017-02-25T08:59:28Z</time>
      </trkpt>
      <trkpt lat="42.8683" lon="0.11111">
        <ele>2206</ele>
        <time>2017-02-25T08:59:39Z</time>
      </trkpt>
      <trkpt lat="42.86828" lon="0.1111">
        <ele>2206</ele>
        <time>2017-02-25T08:59:41Z</time>
      </trkpt>
      <trkpt lat="42.86824" lon="0.11106">
        <ele>2207</ele>
        <time>2017-02-25T08:59:45Z</time>
      </trkpt>
      <trkpt lat="42.86822" lon="0.11101">
        <ele>2207</ele>
        <time>2017-02-25T08:59:49Z</time>
      </trkpt>
      <trkpt lat="42.86821" lon="0.11095">
        <ele>2208</ele>
        <time>2017-02-25T08:59:53Z</time>
      </trkpt>
      <trkpt lat="42.86821" lon="0.11085">
        <ele>2208</ele>
        <time>2017-02-25T08:59:59Z</time>
      </trkpt>
      <trkpt lat="42.86829" lon="0.11041">
        <ele>2209</ele>
        <time>2017-02-25T09:00:23Z</time>
      </trkpt>
      <trkpt lat="42.86828" lon="0.11029">
        <ele>2209</ele>
        <time>2017-02-25T09:00:31Z</time>
      </trkpt>
      <trkpt lat="42.86829" lon="0.11018">
        <ele>2210</ele>
        <time>2017-02-25T09:00:37Z</time>
      </trkpt>
      <trkpt lat="42.86827" lon="0.11002">
        <ele>2209</ele>
        <time>2017-02-25T09:00:44Z</time>
      </trkpt>
      <trkpt lat="42.86826" lon="0.10998">
        <ele>2209</ele>
        <time>2017-02-25T09:00:46Z</time>
      </trkpt>
      <trkpt lat="42.86822" lon="0.10987">
        <ele>2209</ele>
        <time>2017-02-25T09:00:54Z</time>
      </trkpt>
      <trkpt lat="42.8682" lon="0.10985">
        <ele>2209</ele>
        <time>2017-02-25T09:00:56Z</time>
      </trkpt>
      <trkpt lat="42.86818" lon="0.1098">
        <ele>2210</ele>
        <time>2017-02-25T09:01:00Z</time>
      </trkpt>
      <trkpt lat="42.86817" lon="0.10978">
        <ele>2210</ele>
        <time>2017-02-25T09:01:02Z</time>
      </trkpt>
      <trkpt lat="42.86812" lon="0.10969">
        <ele>2210</ele>
        <time>2017-02-25T09:01:08Z</time>
      </trkpt>
      <trkpt lat="42.86805" lon="0.10958">
        <ele>2212</ele>
        <time>2017-02-25T09:01:19Z</time>
      </trkpt>
      <trkpt lat="42.86794" lon="0.10936">
        <ele>2212</ele>
        <time>2017-02-25T09:01:37Z</time>
      </trkpt>
      <trkpt lat="42.86791" lon="0.10929">
        <ele>2213</ele>
        <time>2017-02-25T09:01:43Z</time>
      </trkpt>
      <trkpt lat="42.86777" lon="0.10902">
        <ele>2217</ele>
        <time>2017-02-25T09:02:09Z</time>
      </trkpt>
      <trkpt lat="42.86774" lon="0.10898">
        <ele>2217</ele>
        <time>2017-02-25T09:02:14Z</time>
      </trkpt>
      <trkpt lat="42.86773" lon="0.10896">
        <ele>2218</ele>
        <time>2017-02-25T09:02:16Z</time>
      </trkpt>
      <trkpt lat="42.86772" lon="0.10892">
        <ele>2218</ele>
        <time>2017-02-25T09:02:19Z</time>
      </trkpt>
      <trkpt lat="42.86769" lon="0.10884">
        <ele>2220</ele>
        <time>2017-02-25T09:02:28Z</time>
      </trkpt>
      <trkpt lat="42.86768" lon="0.10875">
        <ele>2222</ele>
        <time>2017-02-25T09:02:37Z</time>
      </trkpt>
      <trkpt lat="42.86767" lon="0.10869">
        <ele>2223</ele>
        <time>2017-02-25T09:02:43Z</time>
      </trkpt>
      <trkpt lat="42.86765" lon="0.10861">
        <ele>2225</ele>
        <time>2017-02-25T09:02:52Z</time>
      </trkpt>
      <trkpt lat="42.86764" lon="0.10858">
        <ele>2226</ele>
        <time>2017-02-25T09:02:55Z</time>
      </trkpt>
      <trkpt lat="42.86762" lon="0.10855">
        <ele>2226</ele>
        <time>2017-02-25T09:02:58Z</time>
      </trkpt>
      <trkpt lat="42.86754" lon="0.10844">
        <ele>2229</ele>
        <time>2017-02-25T09:03:13Z</time>
      </trkpt>
      <trkpt lat="42.86746" lon="0.10833">
        <ele>2230</ele>
        <time>2017-02-25T09:03:25Z</time>
      </trkpt>
      <trkpt lat="42.86745" lon="0.10831">
        <ele>2230</ele>
        <time>2017-02-25T09:03:28Z</time>
      </trkpt>
      <trkpt lat="42.86744" lon="0.10828">
        <ele>2230</ele>
        <time>2017-02-25T09:03:30Z</time>
      </trkpt>
      <trkpt lat="42.86743" lon="0.10825">
        <ele>2231</ele>
        <time>2017-02-25T09:03:33Z</time>
      </trkpt>
      <trkpt lat="42.86743" lon="0.10823">
        <ele>2232</ele>
        <time>2017-02-25T09:03:35Z</time>
      </trkpt>
      <trkpt lat="42.86743" lon="0.10819">
        <ele>2232</ele>
        <time>2017-02-25T09:03:38Z</time>
      </trkpt>
      <trkpt lat="42.86744" lon="0.10813">
        <ele>2234</ele>
        <time>2017-02-25T09:03:44Z</time>
      </trkpt>
      <trkpt lat="42.86749" lon="0.10799">
        <ele>2237</ele>
        <time>2017-02-25T09:03:57Z</time>
      </trkpt>
      <trkpt lat="42.86749" lon="0.10796">
        <ele>2237</ele>
        <time>2017-02-25T09:04:00Z</time>
      </trkpt>
      <trkpt lat="42.86748" lon="0.10793">
        <ele>2238</ele>
        <time>2017-02-25T09:04:04Z</time>
      </trkpt>
      <trkpt lat="42.86746" lon="0.10792">
        <ele>2239</ele>
        <time>2017-02-25T09:04:09Z</time>
      </trkpt>
      <trkpt lat="42.86744" lon="0.1079">
        <ele>2239</ele>
        <time>2017-02-25T09:04:12Z</time>
      </trkpt>
      <trkpt lat="42.86742" lon="0.10788">
        <ele>2239</ele>
        <time>2017-02-25T09:04:14Z</time>
      </trkpt>
      <trkpt lat="42.86741" lon="0.10787">
        <ele>2240</ele>
        <time>2017-02-25T09:04:16Z</time>
      </trkpt>
      <trkpt lat="42.86739" lon="0.10785">
        <ele>2241</ele>
        <time>2017-02-25T09:04:18Z</time>
      </trkpt>
      <trkpt lat="42.86737" lon="0.10785">
        <ele>2241</ele>
        <time>2017-02-25T09:04:20Z</time>
      </trkpt>
      <trkpt lat="42.86735" lon="0.10784">
        <ele>2242</ele>
        <time>2017-02-25T09:04:23Z</time>
      </trkpt>
      <trkpt lat="42.86733" lon="0.10783">
        <ele>2243</ele>
        <time>2017-02-25T09:04:26Z</time>
      </trkpt>
      <trkpt lat="42.86729" lon="0.10779">
        <ele>2243</ele>
        <time>2017-02-25T09:04:31Z</time>
      </trkpt>
      <trkpt lat="42.86727" lon="0.10778">
        <ele>2244</ele>
        <time>2017-02-25T09:04:33Z</time>
      </trkpt>
      <trkpt lat="42.86726" lon="0.10776">
        <ele>2244</ele>
        <time>2017-02-25T09:04:35Z</time>
      </trkpt>
      <trkpt lat="42.86724" lon="0.10774">
        <ele>2244</ele>
        <time>2017-02-25T09:04:38Z</time>
      </trkpt>
      <trkpt lat="42.86722" lon="0.10771">
        <ele>2244</ele>
        <time>2017-02-25T09:04:41Z</time>
      </trkpt>
      <trkpt lat="42.8672" lon="0.10766">
        <ele>2245</ele>
        <time>2017-02-25T09:04:46Z</time>
      </trkpt>
      <trkpt lat="42.8672" lon="0.10763">
        <ele>2246</ele>
        <time>2017-02-25T09:04:48Z</time>
      </trkpt>
      <trkpt lat="42.86705" lon="0.10739">
        <ele>2249</ele>
        <time>2017-02-25T09:05:13Z</time>
      </trkpt>
      <trkpt lat="42.867" lon="0.10734">
        <ele>2250</ele>
        <time>2017-02-25T09:05:19Z</time>
      </trkpt>
      <trkpt lat="42.86698" lon="0.10732">
        <ele>2250</ele>
        <time>2017-02-25T09:05:21Z</time>
      </trkpt>
      <trkpt lat="42.86681" lon="0.10721">
        <ele>2252</ele>
        <time>2017-02-25T09:05:38Z</time>
      </trkpt>
      <trkpt lat="42.86679" lon="0.10721">
        <ele>2252</ele>
        <time>2017-02-25T09:05:40Z</time>
      </trkpt>
      <trkpt lat="42.86677" lon="0.10721">
        <ele>2252</ele>
        <time>2017-02-25T09:05:42Z</time>
      </trkpt>
      <trkpt lat="42.86674" lon="0.1072">
        <ele>2252</ele>
        <time>2017-02-25T09:05:44Z</time>
      </trkpt>
      <trkpt lat="42.86664" lon="0.10716">
        <ele>2254</ele>
        <time>2017-02-25T09:05:54Z</time>
      </trkpt>
      <trkpt lat="42.86652" lon="0.10715">
        <ele>2255</ele>
        <time>2017-02-25T09:06:04Z</time>
      </trkpt>
      <trkpt lat="42.8665" lon="0.10714">
        <ele>2255</ele>
        <time>2017-02-25T09:06:06Z</time>
      </trkpt>
      <trkpt lat="42.86648" lon="0.10713">
        <ele>2255</ele>
        <time>2017-02-25T09:06:08Z</time>
      </trkpt>
      <trkpt lat="42.86646" lon="0.10712">
        <ele>2255</ele>
        <time>2017-02-25T09:06:10Z</time>
      </trkpt>
      <trkpt lat="42.86645" lon="0.10711">
        <ele>2255</ele>
        <time>2017-02-25T09:06:12Z</time>
      </trkpt>
      <trkpt lat="42.86643" lon="0.1071">
        <ele>2256</ele>
        <time>2017-02-25T09:06:14Z</time>
      </trkpt>
      <trkpt lat="42.86641" lon="0.10707">
        <ele>2257</ele>
        <time>2017-02-25T09:06:17Z</time>
      </trkpt>
      <trkpt lat="42.86641" lon="0.10704">
        <ele>2257</ele>
        <time>2017-02-25T09:06:19Z</time>
      </trkpt>
      <trkpt lat="42.86641" lon="0.10701">
        <ele>2258</ele>
        <time>2017-02-25T09:06:21Z</time>
      </trkpt>
      <trkpt lat="42.86642" lon="0.10699">
        <ele>2258</ele>
        <time>2017-02-25T09:06:23Z</time>
      </trkpt>
      <trkpt lat="42.86643" lon="0.10696">
        <ele>2258</ele>
        <time>2017-02-25T09:06:25Z</time>
      </trkpt>
      <trkpt lat="42.86645" lon="0.10691">
        <ele>2259</ele>
        <time>2017-02-25T09:06:29Z</time>
      </trkpt>
      <trkpt lat="42.86648" lon="0.10686">
        <ele>2260</ele>
        <time>2017-02-25T09:06:33Z</time>
      </trkpt>
      <trkpt lat="42.86649" lon="0.10681">
        <ele>2261</ele>
        <time>2017-02-25T09:06:38Z</time>
      </trkpt>
      <trkpt lat="42.86648" lon="0.10678">
        <ele>2262</ele>
        <time>2017-02-25T09:06:41Z</time>
      </trkpt>
      <trkpt lat="42.86646" lon="0.10676">
        <ele>2262</ele>
        <time>2017-02-25T09:06:44Z</time>
      </trkpt>
      <trkpt lat="42.86645" lon="0.10676">
        <ele>2263</ele>
        <time>2017-02-25T09:06:46Z</time>
      </trkpt>
      <trkpt lat="42.86642" lon="0.10677">
        <ele>2263</ele>
        <time>2017-02-25T09:06:48Z</time>
      </trkpt>
      <trkpt lat="42.8664" lon="0.10677">
        <ele>2263</ele>
        <time>2017-02-25T09:06:50Z</time>
      </trkpt>
      <trkpt lat="42.86638" lon="0.10679">
        <ele>2263</ele>
        <time>2017-02-25T09:06:52Z</time>
      </trkpt>
      <trkpt lat="42.86633" lon="0.1068">
        <ele>2265</ele>
        <time>2017-02-25T09:06:56Z</time>
      </trkpt>
      <trkpt lat="42.86631" lon="0.10681">
        <ele>2265</ele>
        <time>2017-02-25T09:06:59Z</time>
      </trkpt>
      <trkpt lat="42.86624" lon="0.1068">
        <ele>2266</ele>
        <time>2017-02-25T09:07:06Z</time>
      </trkpt>
      <trkpt lat="42.8662" lon="0.10678">
        <ele>2267</ele>
        <time>2017-02-25T09:07:11Z</time>
      </trkpt>
      <trkpt lat="42.86618" lon="0.10676">
        <ele>2268</ele>
        <time>2017-02-25T09:07:13Z</time>
      </trkpt>
      <trkpt lat="42.86617" lon="0.10675">
        <ele>2268</ele>
        <time>2017-02-25T09:07:15Z</time>
      </trkpt>
      <trkpt lat="42.86615" lon="0.10672">
        <ele>2268</ele>
        <time>2017-02-25T09:07:17Z</time>
      </trkpt>
      <trkpt lat="42.86611" lon="0.10663">
        <ele>2269</ele>
        <time>2017-02-25T09:07:25Z</time>
      </trkpt>
      <trkpt lat="42.8661" lon="0.10661">
        <ele>2269</ele>
        <time>2017-02-25T09:07:27Z</time>
      </trkpt>
      <trkpt lat="42.86608" lon="0.10659">
        <ele>2270</ele>
        <time>2017-02-25T09:07:29Z</time>
      </trkpt>
      <trkpt lat="42.86607" lon="0.10657">
        <ele>2270</ele>
        <time>2017-02-25T09:07:31Z</time>
      </trkpt>
      <trkpt lat="42.86606" lon="0.10655">
        <ele>2270</ele>
        <time>2017-02-25T09:07:33Z</time>
      </trkpt>
      <trkpt lat="42.86602" lon="0.1065">
        <ele>2271</ele>
        <time>2017-02-25T09:07:38Z</time>
      </trkpt>
      <trkpt lat="42.866" lon="0.10648">
        <ele>2272</ele>
        <time>2017-02-25T09:07:41Z</time>
      </trkpt>
      <trkpt lat="42.86598" lon="0.10646">
        <ele>2272</ele>
        <time>2017-02-25T09:07:44Z</time>
      </trkpt>
      <trkpt lat="42.86596" lon="0.10644">
        <ele>2272</ele>
        <time>2017-02-25T09:07:47Z</time>
      </trkpt>
      <trkpt lat="42.86594" lon="0.10644">
        <ele>2273</ele>
        <time>2017-02-25T09:07:49Z</time>
      </trkpt>
      <trkpt lat="42.86592" lon="0.10642">
        <ele>2273</ele>
        <time>2017-02-25T09:07:52Z</time>
      </trkpt>
      <trkpt lat="42.8659" lon="0.1064">
        <ele>2273</ele>
        <time>2017-02-25T09:07:54Z</time>
      </trkpt>
      <trkpt lat="42.86588" lon="0.10639">
        <ele>2273</ele>
        <time>2017-02-25T09:07:57Z</time>
      </trkpt>
      <trkpt lat="42.86586" lon="0.10638">
        <ele>2274</ele>
        <time>2017-02-25T09:08:00Z</time>
      </trkpt>
      <trkpt lat="42.86585" lon="0.10639">
        <ele>2273</ele>
        <time>2017-02-25T09:08:14Z</time>
      </trkpt>
      <trkpt lat="42.86583" lon="0.10641">
        <ele>2274</ele>
        <time>2017-02-25T09:08:35Z</time>
      </trkpt>
      <trkpt lat="42.86584" lon="0.10639">
        <ele>2275</ele>
        <time>2017-02-25T09:09:42Z</time>
      </trkpt>
      <trkpt lat="42.86584" lon="0.10642">
        <ele>2275</ele>
        <time>2017-02-25T09:11:34Z</time>
      </trkpt>
      <trkpt lat="42.86582" lon="0.10647">
        <ele>2274</ele>
        <time>2017-02-25T09:11:36Z</time>
      </trkpt>
      <trkpt lat="42.8658" lon="0.10649">
        <ele>2273</ele>
        <time>2017-02-25T09:11:37Z</time>
      </trkpt>
      <trkpt lat="42.86579" lon="0.1065">
        <ele>2273</ele>
        <time>2017-02-25T09:11:38Z</time>
      </trkpt>
      <trkpt lat="42.86577" lon="0.10653">
        <ele>2273</ele>
        <time>2017-02-25T09:11:41Z</time>
      </trkpt>
      <trkpt lat="42.86567" lon="0.10685">
        <ele>2269</ele>
        <time>2017-02-25T09:11:48Z</time>
      </trkpt>
      <trkpt lat="42.86563" lon="0.10705">
        <ele>2268</ele>
        <time>2017-02-25T09:11:50Z</time>
      </trkpt>
      <trkpt lat="42.86562" lon="0.10716">
        <ele>2267</ele>
        <time>2017-02-25T09:11:51Z</time>
      </trkpt>
      <trkpt lat="42.86562" lon="0.10728">
        <ele>2266</ele>
        <time>2017-02-25T09:11:52Z</time>
      </trkpt>
      <trkpt lat="42.86575" lon="0.108">
        <ele>2260</ele>
        <time>2017-02-25T09:11:58Z</time>
      </trkpt>
      <trkpt lat="42.86581" lon="0.10821">
        <ele>2258</ele>
        <time>2017-02-25T09:12:00Z</time>
      </trkpt>
      <trkpt lat="42.86582" lon="0.10829">
        <ele>2256</ele>
        <time>2017-02-25T09:12:01Z</time>
      </trkpt>
      <trkpt lat="42.86583" lon="0.10844">
        <ele>2256</ele>
        <time>2017-02-25T09:12:03Z</time>
      </trkpt>
      <trkpt lat="42.86581" lon="0.10851">
        <ele>2256</ele>
        <time>2017-02-25T09:12:04Z</time>
      </trkpt>
      <trkpt lat="42.86578" lon="0.10861">
        <ele>2253</ele>
        <time>2017-02-25T09:12:06Z</time>
      </trkpt>
      <trkpt lat="42.86577" lon="0.10867">
        <ele>2253</ele>
        <time>2017-02-25T09:12:07Z</time>
      </trkpt>
      <trkpt lat="42.86577" lon="0.10875">
        <ele>2252</ele>
        <time>2017-02-25T09:12:08Z</time>
      </trkpt>
      <trkpt lat="42.86577" lon="0.10882">
        <ele>2252</ele>
        <time>2017-02-25T09:12:09Z</time>
      </trkpt>
      <trkpt lat="42.86572" lon="0.10895">
        <ele>2249</ele>
        <time>2017-02-25T09:12:11Z</time>
      </trkpt>
      <trkpt lat="42.86572" lon="0.10903">
        <ele>2248</ele>
        <time>2017-02-25T09:12:12Z</time>
      </trkpt>
      <trkpt lat="42.86572" lon="0.10913">
        <ele>2248</ele>
        <time>2017-02-25T09:12:13Z</time>
      </trkpt>
      <trkpt lat="42.86562" lon="0.11002">
        <ele>2236</ele>
        <time>2017-02-25T09:12:23Z</time>
      </trkpt>
      <trkpt lat="42.86562" lon="0.11011">
        <ele>2235</ele>
        <time>2017-02-25T09:12:24Z</time>
      </trkpt>
      <trkpt lat="42.86595" lon="0.11133">
        <ele>2220</ele>
        <time>2017-02-25T09:12:35Z</time>
      </trkpt>
      <trkpt lat="42.866" lon="0.11143">
        <ele>2219</ele>
        <time>2017-02-25T09:12:36Z</time>
      </trkpt>
      <trkpt lat="42.86611" lon="0.11158">
        <ele>2218</ele>
        <time>2017-02-25T09:12:38Z</time>
      </trkpt>
      <trkpt lat="42.86625" lon="0.11173">
        <ele>2217</ele>
        <time>2017-02-25T09:12:41Z</time>
      </trkpt>
      <trkpt lat="42.86628" lon="0.11179">
        <ele>2216</ele>
        <time>2017-02-25T09:12:42Z</time>
      </trkpt>
      <trkpt lat="42.86631" lon="0.11185">
        <ele>2216</ele>
        <time>2017-02-25T09:12:43Z</time>
      </trkpt>
      <trkpt lat="42.8664" lon="0.11231">
        <ele>2214</ele>
        <time>2017-02-25T09:12:52Z</time>
      </trkpt>
      <trkpt lat="42.8664" lon="0.11236">
        <ele>2214</ele>
        <time>2017-02-25T09:12:54Z</time>
      </trkpt>
      <trkpt lat="42.86639" lon="0.11242">
        <ele>2214</ele>
        <time>2017-02-25T09:12:56Z</time>
      </trkpt>
      <trkpt lat="42.86638" lon="0.11246">
        <ele>2214</ele>
        <time>2017-02-25T09:12:58Z</time>
      </trkpt>
      <trkpt lat="42.86638" lon="0.11257">
        <ele>2214</ele>
        <time>2017-02-25T09:13:01Z</time>
      </trkpt>
      <trkpt lat="42.86639" lon="0.11262">
        <ele>2214</ele>
        <time>2017-02-25T09:13:02Z</time>
      </trkpt>
      <trkpt lat="42.8666" lon="0.11305">
        <ele>2205</ele>
        <time>2017-02-25T09:13:07Z</time>
      </trkpt>
      <trkpt lat="42.86677" lon="0.11328">
        <ele>2200</ele>
        <time>2017-02-25T09:13:10Z</time>
      </trkpt>
      <trkpt lat="42.86685" lon="0.11333">
        <ele>2199</ele>
        <time>2017-02-25T09:13:11Z</time>
      </trkpt>
      <trkpt lat="42.86693" lon="0.11335">
        <ele>2197</ele>
        <time>2017-02-25T09:13:12Z</time>
      </trkpt>
      <trkpt lat="42.86701" lon="0.11334">
        <ele>2196</ele>
        <time>2017-02-25T09:13:13Z</time>
      </trkpt>
      <trkpt lat="42.86709" lon="0.11335">
        <ele>2196</ele>
        <time>2017-02-25T09:13:14Z</time>
      </trkpt>
      <trkpt lat="42.86717" lon="0.1134">
        <ele>2192</ele>
        <time>2017-02-25T09:13:15Z</time>
      </trkpt>
      <trkpt lat="42.86723" lon="0.11346">
        <ele>2191</ele>
        <time>2017-02-25T09:13:16Z</time>
      </trkpt>
      <trkpt lat="42.8673" lon="0.11351">
        <ele>2189</ele>
        <time>2017-02-25T09:13:17Z</time>
      </trkpt>
      <trkpt lat="42.86738" lon="0.11355">
        <ele>2188</ele>
        <time>2017-02-25T09:13:18Z</time>
      </trkpt>
      <trkpt lat="42.86746" lon="0.11355">
        <ele>2187</ele>
        <time>2017-02-25T09:13:19Z</time>
      </trkpt>
      <trkpt lat="42.86752" lon="0.11352">
        <ele>2186</ele>
        <time>2017-02-25T09:13:20Z</time>
      </trkpt>
      <trkpt lat="42.86758" lon="0.1135">
        <ele>2184</ele>
        <time>2017-02-25T09:13:21Z</time>
      </trkpt>
      <trkpt lat="42.86771" lon="0.11354">
        <ele>2182</ele>
        <time>2017-02-25T09:13:23Z</time>
      </trkpt>
      <trkpt lat="42.86777" lon="0.11358">
        <ele>2180</ele>
        <time>2017-02-25T09:13:24Z</time>
      </trkpt>
      <trkpt lat="42.86785" lon="0.11363">
        <ele>2179</ele>
        <time>2017-02-25T09:13:25Z</time>
      </trkpt>
      <trkpt lat="42.86801" lon="0.11369">
        <ele>2174</ele>
        <time>2017-02-25T09:13:27Z</time>
      </trkpt>
      <trkpt lat="42.86819" lon="0.11381">
        <ele>2171</ele>
        <time>2017-02-25T09:13:29Z</time>
      </trkpt>
      <trkpt lat="42.86828" lon="0.1139">
        <ele>2167</ele>
        <time>2017-02-25T09:13:30Z</time>
      </trkpt>
      <trkpt lat="42.86835" lon="0.11402">
        <ele>2164</ele>
        <time>2017-02-25T09:13:31Z</time>
      </trkpt>
      <trkpt lat="42.86839" lon="0.11414">
        <ele>2163</ele>
        <time>2017-02-25T09:13:32Z</time>
      </trkpt>
      <trkpt lat="42.86845" lon="0.11425">
        <ele>2161</ele>
        <time>2017-02-25T09:13:33Z</time>
      </trkpt>
      <trkpt lat="42.86859" lon="0.11443">
        <ele>2158</ele>
        <time>2017-02-25T09:13:35Z</time>
      </trkpt>
      <trkpt lat="42.86868" lon="0.11449">
        <ele>2158</ele>
        <time>2017-02-25T09:13:36Z</time>
      </trkpt>
      <trkpt lat="42.86877" lon="0.11453">
        <ele>2155</ele>
        <time>2017-02-25T09:13:37Z</time>
      </trkpt>
      <trkpt lat="42.86885" lon="0.11458">
        <ele>2154</ele>
        <time>2017-02-25T09:13:38Z</time>
      </trkpt>
      <trkpt lat="42.86891" lon="0.11464">
        <ele>2152</ele>
        <time>2017-02-25T09:13:39Z</time>
      </trkpt>
      <trkpt lat="42.86894" lon="0.11471">
        <ele>2150</ele>
        <time>2017-02-25T09:13:40Z</time>
      </trkpt>
      <trkpt lat="42.86894" lon="0.11477">
        <ele>2149</ele>
        <time>2017-02-25T09:13:41Z</time>
      </trkpt>
      <trkpt lat="42.86893" lon="0.11485">
        <ele>2147</ele>
        <time>2017-02-25T09:13:42Z</time>
      </trkpt>
      <trkpt lat="42.86878" lon="0.11539">
        <ele>2141</ele>
        <time>2017-02-25T09:13:47Z</time>
      </trkpt>
      <trkpt lat="42.86877" lon="0.1155">
        <ele>2141</ele>
        <time>2017-02-25T09:13:48Z</time>
      </trkpt>
      <trkpt lat="42.86876" lon="0.11563">
        <ele>2139</ele>
        <time>2017-02-25T09:13:49Z</time>
      </trkpt>
      <trkpt lat="42.86878" lon="0.11575">
        <ele>2138</ele>
        <time>2017-02-25T09:13:50Z</time>
      </trkpt>
      <trkpt lat="42.86881" lon="0.11586">
        <ele>2137</ele>
        <time>2017-02-25T09:13:51Z</time>
      </trkpt>
      <trkpt lat="42.86892" lon="0.11605">
        <ele>2133</ele>
        <time>2017-02-25T09:13:53Z</time>
      </trkpt>
      <trkpt lat="42.86905" lon="0.11622">
        <ele>2130</ele>
        <time>2017-02-25T09:13:55Z</time>
      </trkpt>
      <trkpt lat="42.86911" lon="0.1163">
        <ele>2129</ele>
        <time>2017-02-25T09:13:56Z</time>
      </trkpt>
      <trkpt lat="42.86921" lon="0.11638">
        <ele>2128</ele>
        <time>2017-02-25T09:13:57Z</time>
      </trkpt>
      <trkpt lat="42.86951" lon="0.11656">
        <ele>2124</ele>
        <time>2017-02-25T09:14:00Z</time>
      </trkpt>
      <trkpt lat="42.87004" lon="0.11698">
        <ele>2119</ele>
        <time>2017-02-25T09:14:07Z</time>
      </trkpt>
      <trkpt lat="42.87008" lon="0.11702">
        <ele>2119</ele>
        <time>2017-02-25T09:14:08Z</time>
      </trkpt>
      <trkpt lat="42.8701" lon="0.11705">
        <ele>2119</ele>
        <time>2017-02-25T09:14:09Z</time>
      </trkpt>
      <trkpt lat="42.87011" lon="0.11712">
        <ele>2119</ele>
        <time>2017-02-25T09:14:13Z</time>
      </trkpt>
      <trkpt lat="42.87015" lon="0.11712">
        <ele>2118</ele>
        <time>2017-02-25T09:14:27Z</time>
      </trkpt>
      <trkpt lat="42.87012" lon="0.11714">
        <ele>2119</ele>
        <time>2017-02-25T09:14:44Z</time>
      </trkpt>
      <trkpt lat="42.87011" lon="0.11716">
        <ele>2119</ele>
        <time>2017-02-25T09:14:46Z</time>
      </trkpt>
      <trkpt lat="42.87009" lon="0.11717">
        <ele>2120</ele>
        <time>2017-02-25T09:14:51Z</time>
      </trkpt>
      <trkpt lat="42.87007" lon="0.11716">
        <ele>2118</ele>
        <time>2017-02-25T09:15:19Z</time>
      </trkpt>
      <trkpt lat="42.87008" lon="0.11713">
        <ele>2119</ele>
        <time>2017-02-25T09:15:28Z</time>
      </trkpt>
      <trkpt lat="42.87011" lon="0.11715">
        <ele>2119</ele>
        <time>2017-02-25T09:15:48Z</time>
      </trkpt>
      <trkpt lat="42.87009" lon="0.11716">
        <ele>2118</ele>
        <time>2017-02-25T09:15:57Z</time>
      </trkpt>
      <trkpt lat="42.87007" lon="0.11714">
        <ele>2118</ele>
        <time>2017-02-25T09:16:01Z</time>
      </trkpt>
      <trkpt lat="42.87007" lon="0.11717">
        <ele>2118</ele>
        <time>2017-02-25T09:16:29Z</time>
      </trkpt>
      <trkpt lat="42.87009" lon="0.11716">
        <ele>2118</ele>
        <time>2017-02-25T09:16:49Z</time>
      </trkpt>
      <trkpt lat="42.87012" lon="0.11716">
        <ele>2118</ele>
        <time>2017-02-25T09:16:53Z</time>
      </trkpt>
      <trkpt lat="42.87013" lon="0.1172">
        <ele>2119</ele>
        <time>2017-02-25T09:16:59Z</time>
      </trkpt>
      <trkpt lat="42.87013" lon="0.11723">
        <ele>2119</ele>
        <time>2017-02-25T09:17:01Z</time>
      </trkpt>
      <trkpt lat="42.87014" lon="0.1173">
        <ele>2119</ele>
        <time>2017-02-25T09:17:06Z</time>
      </trkpt>
      <trkpt lat="42.87015" lon="0.11736">
        <ele>2119</ele>
        <time>2017-02-25T09:17:10Z</time>
      </trkpt>
      <trkpt lat="42.8702" lon="0.11743">
        <ele>2121</ele>
        <time>2017-02-25T09:17:16Z</time>
      </trkpt>
      <trkpt lat="42.87025" lon="0.11748">
        <ele>2121</ele>
        <time>2017-02-25T09:17:20Z</time>
      </trkpt>
      <trkpt lat="42.87026" lon="0.11751">
        <ele>2121</ele>
        <time>2017-02-25T09:17:22Z</time>
      </trkpt>
      <trkpt lat="42.87028" lon="0.11756">
        <ele>2121</ele>
        <time>2017-02-25T09:17:31Z</time>
      </trkpt>
      <trkpt lat="42.87029" lon="0.11758">
        <ele>2121</ele>
        <time>2017-02-25T09:17:36Z</time>
      </trkpt>
      <trkpt lat="42.87031" lon="0.11759">
        <ele>2121</ele>
        <time>2017-02-25T09:17:50Z</time>
      </trkpt>
      <trkpt lat="42.87034" lon="0.11764">
        <ele>2123</ele>
        <time>2017-02-25T09:18:07Z</time>
      </trkpt>
      <trkpt lat="42.87035" lon="0.11767">
        <ele>2123</ele>
        <time>2017-02-25T09:18:09Z</time>
      </trkpt>
      <trkpt lat="42.87036" lon="0.1177">
        <ele>2124</ele>
        <time>2017-02-25T09:18:12Z</time>
      </trkpt>
      <trkpt lat="42.87038" lon="0.11772">
        <ele>2123</ele>
        <time>2017-02-25T09:18:15Z</time>
      </trkpt>
      <trkpt lat="42.87041" lon="0.1177">
        <ele>2124</ele>
        <time>2017-02-25T09:18:20Z</time>
      </trkpt>
      <trkpt lat="42.87043" lon="0.1177">
        <ele>2125</ele>
        <time>2017-02-25T09:18:26Z</time>
      </trkpt>
      <trkpt lat="42.87045" lon="0.11769">
        <ele>2125</ele>
        <time>2017-02-25T09:18:29Z</time>
      </trkpt>
      <trkpt lat="42.87047" lon="0.11769">
        <ele>2126</ele>
        <time>2017-02-25T09:18:32Z</time>
      </trkpt>
      <trkpt lat="42.87048" lon="0.11771">
        <ele>2127</ele>
        <time>2017-02-25T09:18:36Z</time>
      </trkpt>
      <trkpt lat="42.87049" lon="0.11773">
        <ele>2128</ele>
        <time>2017-02-25T09:18:38Z</time>
      </trkpt>
      <trkpt lat="42.8705" lon="0.11776">
        <ele>2129</ele>
        <time>2017-02-25T09:18:41Z</time>
      </trkpt>
      <trkpt lat="42.87051" lon="0.11778">
        <ele>2129</ele>
        <time>2017-02-25T09:18:43Z</time>
      </trkpt>
      <trkpt lat="42.87052" lon="0.1178">
        <ele>2130</ele>
        <time>2017-02-25T09:18:45Z</time>
      </trkpt>
      <trkpt lat="42.87054" lon="0.11782">
        <ele>2130</ele>
        <time>2017-02-25T09:18:47Z</time>
      </trkpt>
      <trkpt lat="42.87056" lon="0.11783">
        <ele>2131</ele>
        <time>2017-02-25T09:18:49Z</time>
      </trkpt>
      <trkpt lat="42.87057" lon="0.11786">
        <ele>2132</ele>
        <time>2017-02-25T09:18:51Z</time>
      </trkpt>
      <trkpt lat="42.87058" lon="0.11789">
        <ele>2133</ele>
        <time>2017-02-25T09:18:53Z</time>
      </trkpt>
      <trkpt lat="42.87058" lon="0.11793">
        <ele>2133</ele>
        <time>2017-02-25T09:18:55Z</time>
      </trkpt>
      <trkpt lat="42.87058" lon="0.11797">
        <ele>2133</ele>
        <time>2017-02-25T09:18:57Z</time>
      </trkpt>
      <trkpt lat="42.87057" lon="0.11801">
        <ele>2134</ele>
        <time>2017-02-25T09:18:59Z</time>
      </trkpt>
      <trkpt lat="42.87055" lon="0.11803">
        <ele>2134</ele>
        <time>2017-02-25T09:19:01Z</time>
      </trkpt>
      <trkpt lat="42.87054" lon="0.11805">
        <ele>2134</ele>
        <time>2017-02-25T09:19:03Z</time>
      </trkpt>
      <trkpt lat="42.87054" lon="0.11808">
        <ele>2135</ele>
        <time>2017-02-25T09:19:05Z</time>
      </trkpt>
      <trkpt lat="42.87054" lon="0.11814">
        <ele>2136</ele>
        <time>2017-02-25T09:19:09Z</time>
      </trkpt>
      <trkpt lat="42.87054" lon="0.11816">
        <ele>2137</ele>
        <time>2017-02-25T09:19:12Z</time>
      </trkpt>
      <trkpt lat="42.87051" lon="0.11821">
        <ele>2140</ele>
        <time>2017-02-25T09:19:17Z</time>
      </trkpt>
      <trkpt lat="42.87049" lon="0.11827">
        <ele>2140</ele>
        <time>2017-02-25T09:19:34Z</time>
      </trkpt>
      <trkpt lat="42.87048" lon="0.1183">
        <ele>2142</ele>
        <time>2017-02-25T09:19:37Z</time>
      </trkpt>
      <trkpt lat="42.87041" lon="0.11836">
        <ele>2144</ele>
        <time>2017-02-25T09:19:46Z</time>
      </trkpt>
      <trkpt lat="42.87038" lon="0.11837">
        <ele>2145</ele>
        <time>2017-02-25T09:19:51Z</time>
      </trkpt>
      <trkpt lat="42.87036" lon="0.11839">
        <ele>2146</ele>
        <time>2017-02-25T09:19:54Z</time>
      </trkpt>
      <trkpt lat="42.87029" lon="0.11854">
        <ele>2148</ele>
        <time>2017-02-25T09:20:07Z</time>
      </trkpt>
      <trkpt lat="42.87026" lon="0.11857">
        <ele>2149</ele>
        <time>2017-02-25T09:20:11Z</time>
      </trkpt>
      <trkpt lat="42.8702" lon="0.11862">
        <ele>2151</ele>
        <time>2017-02-25T09:20:18Z</time>
      </trkpt>
      <trkpt lat="42.87018" lon="0.11864">
        <ele>2152</ele>
        <time>2017-02-25T09:20:21Z</time>
      </trkpt>
      <trkpt lat="42.87015" lon="0.11868">
        <ele>2153</ele>
        <time>2017-02-25T09:20:26Z</time>
      </trkpt>
      <trkpt lat="42.8701" lon="0.11874">
        <ele>2154</ele>
        <time>2017-02-25T09:20:34Z</time>
      </trkpt>
      <trkpt lat="42.87008" lon="0.11878">
        <ele>2155</ele>
        <time>2017-02-25T09:20:39Z</time>
      </trkpt>
      <trkpt lat="42.87006" lon="0.11881">
        <ele>2156</ele>
        <time>2017-02-25T09:20:42Z</time>
      </trkpt>
      <trkpt lat="42.87004" lon="0.11882">
        <ele>2156</ele>
        <time>2017-02-25T09:20:45Z</time>
      </trkpt>
      <trkpt lat="42.87002" lon="0.11884">
        <ele>2157</ele>
        <time>2017-02-25T09:20:48Z</time>
      </trkpt>
      <trkpt lat="42.87001" lon="0.11886">
        <ele>2157</ele>
        <time>2017-02-25T09:20:50Z</time>
      </trkpt>
      <trkpt lat="42.86999" lon="0.11888">
        <ele>2157</ele>
        <time>2017-02-25T09:20:52Z</time>
      </trkpt>
      <trkpt lat="42.86997" lon="0.11888">
        <ele>2158</ele>
        <time>2017-02-25T09:20:54Z</time>
      </trkpt>
      <trkpt lat="42.86987" lon="0.11902">
        <ele>2161</ele>
        <time>2017-02-25T09:21:11Z</time>
      </trkpt>
      <trkpt lat="42.86985" lon="0.11908">
        <ele>2162</ele>
        <time>2017-02-25T09:21:17Z</time>
      </trkpt>
      <trkpt lat="42.86979" lon="0.11927">
        <ele>2164</ele>
        <time>2017-02-25T09:21:35Z</time>
      </trkpt>
      <trkpt lat="42.86978" lon="0.11929">
        <ele>2164</ele>
        <time>2017-02-25T09:21:38Z</time>
      </trkpt>
      <trkpt lat="42.86977" lon="0.11936">
        <ele>2166</ele>
        <time>2017-02-25T09:21:44Z</time>
      </trkpt>
      <trkpt lat="42.86974" lon="0.1195">
        <ele>2168</ele>
        <time>2017-02-25T09:21:57Z</time>
      </trkpt>
      <trkpt lat="42.86974" lon="0.11953">
        <ele>2171</ele>
        <time>2017-02-25T09:22:00Z</time>
      </trkpt>
      <trkpt lat="42.86966" lon="0.11965">
        <ele>2173</ele>
        <time>2017-02-25T09:22:14Z</time>
      </trkpt>
      <trkpt lat="42.86958" lon="0.11976">
        <ele>2175</ele>
        <time>2017-02-25T09:22:27Z</time>
      </trkpt>
      <trkpt lat="42.86958" lon="0.11979">
        <ele>2177</ele>
        <time>2017-02-25T09:22:30Z</time>
      </trkpt>
      <trkpt lat="42.86959" lon="0.1198">
        <ele>2178</ele>
        <time>2017-02-25T09:22:32Z</time>
      </trkpt>
      <trkpt lat="42.86961" lon="0.11983">
        <ele>2178</ele>
        <time>2017-02-25T09:22:35Z</time>
      </trkpt>
      <trkpt lat="42.86961" lon="0.11986">
        <ele>2179</ele>
        <time>2017-02-25T09:22:38Z</time>
      </trkpt>
      <trkpt lat="42.86963" lon="0.11997">
        <ele>2180</ele>
        <time>2017-02-25T09:22:48Z</time>
      </trkpt>
      <trkpt lat="42.86962" lon="0.12022">
        <ele>2184</ele>
        <time>2017-02-25T09:23:11Z</time>
      </trkpt>
      <trkpt lat="42.86961" lon="0.12029">
        <ele>2185</ele>
        <time>2017-02-25T09:23:16Z</time>
      </trkpt>
      <trkpt lat="42.86961" lon="0.12033">
        <ele>2185</ele>
        <time>2017-02-25T09:23:19Z</time>
      </trkpt>
      <trkpt lat="42.8696" lon="0.12038">
        <ele>2186</ele>
        <time>2017-02-25T09:23:23Z</time>
      </trkpt>
      <trkpt lat="42.86958" lon="0.12041">
        <ele>2186</ele>
        <time>2017-02-25T09:23:25Z</time>
      </trkpt>
      <trkpt lat="42.86952" lon="0.12066">
        <ele>2186</ele>
        <time>2017-02-25T09:23:37Z</time>
      </trkpt>
      <trkpt lat="42.86941" lon="0.12094">
        <ele>2184</ele>
        <time>2017-02-25T09:23:51Z</time>
      </trkpt>
      <trkpt lat="42.86936" lon="0.12103">
        <ele>2184</ele>
        <time>2017-02-25T09:23:57Z</time>
      </trkpt>
      <trkpt lat="42.86926" lon="0.12124">
        <ele>2184</ele>
        <time>2017-02-25T09:24:07Z</time>
      </trkpt>
      <trkpt lat="42.86925" lon="0.12128">
        <ele>2184</ele>
        <time>2017-02-25T09:24:09Z</time>
      </trkpt>
      <trkpt lat="42.86924" lon="0.12132">
        <ele>2184</ele>
        <time>2017-02-25T09:24:11Z</time>
      </trkpt>
      <trkpt lat="42.86915" lon="0.12162">
        <ele>2184</ele>
        <time>2017-02-25T09:24:25Z</time>
      </trkpt>
      <trkpt lat="42.8691" lon="0.12192">
        <ele>2184</ele>
        <time>2017-02-25T09:24:38Z</time>
      </trkpt>
      <trkpt lat="42.86902" lon="0.12217">
        <ele>2184</ele>
        <time>2017-02-25T09:24:50Z</time>
      </trkpt>
      <trkpt lat="42.8689" lon="0.12275">
        <ele>2187</ele>
        <time>2017-02-25T09:25:18Z</time>
      </trkpt>
      <trkpt lat="42.8689" lon="0.12279">
        <ele>2187</ele>
        <time>2017-02-25T09:25:20Z</time>
      </trkpt>
      <trkpt lat="42.86888" lon="0.12287">
        <ele>2187</ele>
        <time>2017-02-25T09:25:24Z</time>
      </trkpt>
      <trkpt lat="42.86887" lon="0.12297">
        <ele>2187</ele>
        <time>2017-02-25T09:25:30Z</time>
      </trkpt>
      <trkpt lat="42.86887" lon="0.12305">
        <ele>2188</ele>
        <time>2017-02-25T09:25:34Z</time>
      </trkpt>
      <trkpt lat="42.86889" lon="0.1231">
        <ele>2189</ele>
        <time>2017-02-25T09:25:38Z</time>
      </trkpt>
      <trkpt lat="42.86888" lon="0.12313">
        <ele>2189</ele>
        <time>2017-02-25T09:26:06Z</time>
      </trkpt>
      <trkpt lat="42.86889" lon="0.1232">
        <ele>2189</ele>
        <time>2017-02-25T09:26:10Z</time>
      </trkpt>
      <trkpt lat="42.86893" lon="0.12347">
        <ele>2188</ele>
        <time>2017-02-25T09:26:20Z</time>
      </trkpt>
      <trkpt lat="42.869" lon="0.12365">
        <ele>2188</ele>
        <time>2017-02-25T09:26:27Z</time>
      </trkpt>
      <trkpt lat="42.86902" lon="0.1237">
        <ele>2188</ele>
        <time>2017-02-25T09:26:29Z</time>
      </trkpt>
      <trkpt lat="42.86904" lon="0.12375">
        <ele>2188</ele>
        <time>2017-02-25T09:26:31Z</time>
      </trkpt>
      <trkpt lat="42.86905" lon="0.12378">
        <ele>2188</ele>
        <time>2017-02-25T09:26:32Z</time>
      </trkpt>
      <trkpt lat="42.86906" lon="0.1238">
        <ele>2188</ele>
        <time>2017-02-25T09:26:33Z</time>
      </trkpt>
      <trkpt lat="42.86909" lon="0.12387">
        <ele>2188</ele>
        <time>2017-02-25T09:26:36Z</time>
      </trkpt>
      <trkpt lat="42.86911" lon="0.12389">
        <ele>2188</ele>
        <time>2017-02-25T09:26:37Z</time>
      </trkpt>
      <trkpt lat="42.86923" lon="0.12413">
        <ele>2188</ele>
        <time>2017-02-25T09:26:48Z</time>
      </trkpt>
      <trkpt lat="42.86927" lon="0.12421">
        <ele>2189</ele>
        <time>2017-02-25T09:26:52Z</time>
      </trkpt>
      <trkpt lat="42.86929" lon="0.12424">
        <ele>2189</ele>
        <time>2017-02-25T09:26:54Z</time>
      </trkpt>
      <trkpt lat="42.86939" lon="0.12441">
        <ele>2191</ele>
        <time>2017-02-25T09:27:03Z</time>
      </trkpt>
      <trkpt lat="42.86943" lon="0.1245">
        <ele>2191</ele>
        <time>2017-02-25T09:27:09Z</time>
      </trkpt>
      <trkpt lat="42.86946" lon="0.12461">
        <ele>2192</ele>
        <time>2017-02-25T09:27:15Z</time>
      </trkpt>
      <trkpt lat="42.86947" lon="0.12464">
        <ele>2194</ele>
        <time>2017-02-25T09:27:24Z</time>
      </trkpt>
      <trkpt lat="42.86948" lon="0.12466">
        <ele>2194</ele>
        <time>2017-02-25T09:27:31Z</time>
      </trkpt>
      <trkpt lat="42.86949" lon="0.12469">
        <ele>2194</ele>
        <time>2017-02-25T09:27:33Z</time>
      </trkpt>
      <trkpt lat="42.8695" lon="0.12472">
        <ele>2195</ele>
        <time>2017-02-25T09:27:35Z</time>
      </trkpt>
      <trkpt lat="42.86949" lon="0.12475">
        <ele>2196</ele>
        <time>2017-02-25T09:27:39Z</time>
      </trkpt>
      <trkpt lat="42.86948" lon="0.12481">
        <ele>2197</ele>
        <time>2017-02-25T09:27:45Z</time>
      </trkpt>
      <trkpt lat="42.86948" lon="0.12484">
        <ele>2197</ele>
        <time>2017-02-25T09:27:48Z</time>
      </trkpt>
      <trkpt lat="42.86947" lon="0.12487">
        <ele>2198</ele>
        <time>2017-02-25T09:27:50Z</time>
      </trkpt>
      <trkpt lat="42.86947" lon="0.12489">
        <ele>2199</ele>
        <time>2017-02-25T09:27:59Z</time>
      </trkpt>
      <trkpt lat="42.86947" lon="0.12495">
        <ele>2200</ele>
        <time>2017-02-25T09:28:05Z</time>
      </trkpt>
      <trkpt lat="42.86947" lon="0.12498">
        <ele>2200</ele>
        <time>2017-02-25T09:28:08Z</time>
      </trkpt>
      <trkpt lat="42.86947" lon="0.12501">
        <ele>2201</ele>
        <time>2017-02-25T09:28:11Z</time>
      </trkpt>
      <trkpt lat="42.86948" lon="0.12504">
        <ele>2202</ele>
        <time>2017-02-25T09:28:14Z</time>
      </trkpt>
      <trkpt lat="42.86954" lon="0.12512">
        <ele>2204</ele>
        <time>2017-02-25T09:28:26Z</time>
      </trkpt>
      <trkpt lat="42.86955" lon="0.12514">
        <ele>2205</ele>
        <time>2017-02-25T09:28:30Z</time>
      </trkpt>
      <trkpt lat="42.86957" lon="0.12517">
        <ele>2206</ele>
        <time>2017-02-25T09:28:34Z</time>
      </trkpt>
      <trkpt lat="42.86957" lon="0.12519">
        <ele>2207</ele>
        <time>2017-02-25T09:28:37Z</time>
      </trkpt>
      <trkpt lat="42.86959" lon="0.12521">
        <ele>2208</ele>
        <time>2017-02-25T09:28:39Z</time>
      </trkpt>
      <trkpt lat="42.86961" lon="0.12525">
        <ele>2209</ele>
        <time>2017-02-25T09:28:43Z</time>
      </trkpt>
      <trkpt lat="42.86963" lon="0.12527">
        <ele>2209</ele>
        <time>2017-02-25T09:28:46Z</time>
      </trkpt>
      <trkpt lat="42.86968" lon="0.1253">
        <ele>2210</ele>
        <time>2017-02-25T09:28:51Z</time>
      </trkpt>
      <trkpt lat="42.8697" lon="0.1253">
        <ele>2211</ele>
        <time>2017-02-25T09:28:54Z</time>
      </trkpt>
      <trkpt lat="42.86972" lon="0.12529">
        <ele>2212</ele>
        <time>2017-02-25T09:28:58Z</time>
      </trkpt>
      <trkpt lat="42.86985" lon="0.12525">
        <ele>2215</ele>
        <time>2017-02-25T09:29:14Z</time>
      </trkpt>
      <trkpt lat="42.86992" lon="0.12521">
        <ele>2218</ele>
        <time>2017-02-25T09:29:23Z</time>
      </trkpt>
      <trkpt lat="42.86994" lon="0.1252">
        <ele>2218</ele>
        <time>2017-02-25T09:29:29Z</time>
      </trkpt>
      <trkpt lat="42.86996" lon="0.12519">
        <ele>2218</ele>
        <time>2017-02-25T09:29:32Z</time>
      </trkpt>
      <trkpt lat="42.86999" lon="0.12518">
        <ele>2219</ele>
        <time>2017-02-25T09:29:35Z</time>
      </trkpt>
      <trkpt lat="42.87" lon="0.12517">
        <ele>2219</ele>
        <time>2017-02-25T09:29:37Z</time>
      </trkpt>
      <trkpt lat="42.87002" lon="0.12517">
        <ele>2220</ele>
        <time>2017-02-25T09:29:39Z</time>
      </trkpt>
      <trkpt lat="42.87004" lon="0.12516">
        <ele>2220</ele>
        <time>2017-02-25T09:29:42Z</time>
      </trkpt>
      <trkpt lat="42.87006" lon="0.12515">
        <ele>2221</ele>
        <time>2017-02-25T09:29:47Z</time>
      </trkpt>
      <trkpt lat="42.87011" lon="0.12514">
        <ele>2222</ele>
        <time>2017-02-25T09:29:55Z</time>
      </trkpt>
      <trkpt lat="42.8701" lon="0.12517">
        <ele>2223</ele>
        <time>2017-02-25T09:30:00Z</time>
      </trkpt>
      <trkpt lat="42.87007" lon="0.12522">
        <ele>2223</ele>
        <time>2017-02-25T09:30:05Z</time>
      </trkpt>
      <trkpt lat="42.87002" lon="0.12533">
        <ele>2226</ele>
        <time>2017-02-25T09:30:14Z</time>
      </trkpt>
      <trkpt lat="42.87001" lon="0.12536">
        <ele>2226</ele>
        <time>2017-02-25T09:30:17Z</time>
      </trkpt>
      <trkpt lat="42.86999" lon="0.12542">
        <ele>2228</ele>
        <time>2017-02-25T09:30:23Z</time>
      </trkpt>
      <trkpt lat="42.86998" lon="0.12544">
        <ele>2228</ele>
        <time>2017-02-25T09:30:25Z</time>
      </trkpt>
      <trkpt lat="42.86997" lon="0.1255">
        <ele>2230</ele>
        <time>2017-02-25T09:30:31Z</time>
      </trkpt>
      <trkpt lat="42.86995" lon="0.12558">
        <ele>2231</ele>
        <time>2017-02-25T09:30:39Z</time>
      </trkpt>
      <trkpt lat="42.86994" lon="0.12561">
        <ele>2231</ele>
        <time>2017-02-25T09:30:41Z</time>
      </trkpt>
      <trkpt lat="42.86993" lon="0.12563">
        <ele>2232</ele>
        <time>2017-02-25T09:30:47Z</time>
      </trkpt>
      <trkpt lat="42.86992" lon="0.12565">
        <ele>2232</ele>
        <time>2017-02-25T09:30:51Z</time>
      </trkpt>
      <trkpt lat="42.86994" lon="0.12565">
        <ele>2233</ele>
        <time>2017-02-25T09:30:55Z</time>
      </trkpt>
      <trkpt lat="42.86998" lon="0.12566">
        <ele>2234</ele>
        <time>2017-02-25T09:30:59Z</time>
      </trkpt>
      <trkpt lat="42.87006" lon="0.12568">
        <ele>2236</ele>
        <time>2017-02-25T09:31:08Z</time>
      </trkpt>
      <trkpt lat="42.87009" lon="0.12569">
        <ele>2237</ele>
        <time>2017-02-25T09:31:11Z</time>
      </trkpt>
      <trkpt lat="42.87011" lon="0.12568">
        <ele>2237</ele>
        <time>2017-02-25T09:31:14Z</time>
      </trkpt>
      <trkpt lat="42.87013" lon="0.12569">
        <ele>2238</ele>
        <time>2017-02-25T09:31:17Z</time>
      </trkpt>
      <trkpt lat="42.87014" lon="0.12572">
        <ele>2238</ele>
        <time>2017-02-25T09:31:20Z</time>
      </trkpt>
      <trkpt lat="42.87013" lon="0.12574">
        <ele>2239</ele>
        <time>2017-02-25T09:31:22Z</time>
      </trkpt>
      <trkpt lat="42.87005" lon="0.12589">
        <ele>2242</ele>
        <time>2017-02-25T09:31:39Z</time>
      </trkpt>
      <trkpt lat="42.87" lon="0.12594">
        <ele>2244</ele>
        <time>2017-02-25T09:31:48Z</time>
      </trkpt>
      <trkpt lat="42.86998" lon="0.12596">
        <ele>2244</ele>
        <time>2017-02-25T09:31:51Z</time>
      </trkpt>
      <trkpt lat="42.86996" lon="0.12598">
        <ele>2245</ele>
        <time>2017-02-25T09:31:54Z</time>
      </trkpt>
      <trkpt lat="42.86998" lon="0.12599">
        <ele>2245</ele>
        <time>2017-02-25T09:32:00Z</time>
      </trkpt>
      <trkpt lat="42.87" lon="0.126">
        <ele>2246</ele>
        <time>2017-02-25T09:32:03Z</time>
      </trkpt>
      <trkpt lat="42.87007" lon="0.12602">
        <ele>2248</ele>
        <time>2017-02-25T09:32:10Z</time>
      </trkpt>
      <trkpt lat="42.8701" lon="0.12602">
        <ele>2248</ele>
        <time>2017-02-25T09:32:13Z</time>
      </trkpt>
      <trkpt lat="42.87019" lon="0.12601">
        <ele>2250</ele>
        <time>2017-02-25T09:32:22Z</time>
      </trkpt>
      <trkpt lat="42.8702" lon="0.126">
        <ele>2250</ele>
        <time>2017-02-25T09:32:24Z</time>
      </trkpt>
      <trkpt lat="42.87023" lon="0.126">
        <ele>2251</ele>
        <time>2017-02-25T09:32:27Z</time>
      </trkpt>
      <trkpt lat="42.87025" lon="0.12599">
        <ele>2252</ele>
        <time>2017-02-25T09:32:30Z</time>
      </trkpt>
      <trkpt lat="42.87027" lon="0.12599">
        <ele>2252</ele>
        <time>2017-02-25T09:32:32Z</time>
      </trkpt>
      <trkpt lat="42.87029" lon="0.12598">
        <ele>2253</ele>
        <time>2017-02-25T09:32:34Z</time>
      </trkpt>
      <trkpt lat="42.87031" lon="0.12597">
        <ele>2253</ele>
        <time>2017-02-25T09:32:36Z</time>
      </trkpt>
      <trkpt lat="42.87035" lon="0.12595">
        <ele>2254</ele>
        <time>2017-02-25T09:32:40Z</time>
      </trkpt>
      <trkpt lat="42.87037" lon="0.12594">
        <ele>2254</ele>
        <time>2017-02-25T09:32:42Z</time>
      </trkpt>
      <trkpt lat="42.87039" lon="0.12594">
        <ele>2255</ele>
        <time>2017-02-25T09:32:44Z</time>
      </trkpt>
      <trkpt lat="42.87041" lon="0.12594">
        <ele>2256</ele>
        <time>2017-02-25T09:32:47Z</time>
      </trkpt>
      <trkpt lat="42.87043" lon="0.12595">
        <ele>2256</ele>
        <time>2017-02-25T09:32:49Z</time>
      </trkpt>
      <trkpt lat="42.87045" lon="0.12596">
        <ele>2256</ele>
        <time>2017-02-25T09:32:52Z</time>
      </trkpt>
      <trkpt lat="42.87047" lon="0.12597">
        <ele>2257</ele>
        <time>2017-02-25T09:32:55Z</time>
      </trkpt>
      <trkpt lat="42.87054" lon="0.12606">
        <ele>2262</ele>
        <time>2017-02-25T09:33:07Z</time>
      </trkpt>
      <trkpt lat="42.87055" lon="0.12608">
        <ele>2262</ele>
        <time>2017-02-25T09:33:10Z</time>
      </trkpt>
      <trkpt lat="42.87057" lon="0.12618">
        <ele>2265</ele>
        <time>2017-02-25T09:33:24Z</time>
      </trkpt>
      <trkpt lat="42.87059" lon="0.1262">
        <ele>2266</ele>
        <time>2017-02-25T09:33:28Z</time>
      </trkpt>
      <trkpt lat="42.8707" lon="0.12622">
        <ele>2269</ele>
        <time>2017-02-25T09:33:43Z</time>
      </trkpt>
      <trkpt lat="42.87072" lon="0.12624">
        <ele>2270</ele>
        <time>2017-02-25T09:33:46Z</time>
      </trkpt>
      <trkpt lat="42.87074" lon="0.12624">
        <ele>2270</ele>
        <time>2017-02-25T09:33:49Z</time>
      </trkpt>
      <trkpt lat="42.87076" lon="0.12624">
        <ele>2270</ele>
        <time>2017-02-25T09:33:52Z</time>
      </trkpt>
      <trkpt lat="42.87078" lon="0.12625">
        <ele>2271</ele>
        <time>2017-02-25T09:33:55Z</time>
      </trkpt>
      <trkpt lat="42.8708" lon="0.12625">
        <ele>2271</ele>
        <time>2017-02-25T09:33:59Z</time>
      </trkpt>
      <trkpt lat="42.87082" lon="0.12627">
        <ele>2272</ele>
        <time>2017-02-25T09:34:02Z</time>
      </trkpt>
      <trkpt lat="42.87081" lon="0.12629">
        <ele>2273</ele>
        <time>2017-02-25T09:34:05Z</time>
      </trkpt>
      <trkpt lat="42.87071" lon="0.12636">
        <ele>2275</ele>
        <time>2017-02-25T09:34:23Z</time>
      </trkpt>
      <trkpt lat="42.87065" lon="0.12643">
        <ele>2276</ele>
        <time>2017-02-25T09:34:32Z</time>
      </trkpt>
      <trkpt lat="42.87064" lon="0.12645">
        <ele>2276</ele>
        <time>2017-02-25T09:34:35Z</time>
      </trkpt>
      <trkpt lat="42.87057" lon="0.12658">
        <ele>2279</ele>
        <time>2017-02-25T09:34:50Z</time>
      </trkpt>
      <trkpt lat="42.87055" lon="0.12664">
        <ele>2280</ele>
        <time>2017-02-25T09:34:56Z</time>
      </trkpt>
      <trkpt lat="42.87054" lon="0.12666">
        <ele>2280</ele>
        <time>2017-02-25T09:34:59Z</time>
      </trkpt>
      <trkpt lat="42.87053" lon="0.12672">
        <ele>2282</ele>
        <time>2017-02-25T09:35:17Z</time>
      </trkpt>
      <trkpt lat="42.87053" lon="0.12675">
        <ele>2283</ele>
        <time>2017-02-25T09:35:20Z</time>
      </trkpt>
      <trkpt lat="42.87055" lon="0.12674">
        <ele>2283</ele>
        <time>2017-02-25T09:35:28Z</time>
      </trkpt>
      <trkpt lat="42.87057" lon="0.12674">
        <ele>2285</ele>
        <time>2017-02-25T09:35:31Z</time>
      </trkpt>
      <trkpt lat="42.87059" lon="0.12674">
        <ele>2285</ele>
        <time>2017-02-25T09:35:34Z</time>
      </trkpt>
      <trkpt lat="42.87061" lon="0.12674">
        <ele>2287</ele>
        <time>2017-02-25T09:35:37Z</time>
      </trkpt>
      <trkpt lat="42.8707" lon="0.12673">
        <ele>2289</ele>
        <time>2017-02-25T09:35:54Z</time>
      </trkpt>
      <trkpt lat="42.87074" lon="0.12674">
        <ele>2291</ele>
        <time>2017-02-25T09:36:01Z</time>
      </trkpt>
      <trkpt lat="42.87082" lon="0.12673">
        <ele>2292</ele>
        <time>2017-02-25T09:36:10Z</time>
      </trkpt>
      <trkpt lat="42.87087" lon="0.12673">
        <ele>2293</ele>
        <time>2017-02-25T09:36:16Z</time>
      </trkpt>
      <trkpt lat="42.87091" lon="0.12672">
        <ele>2294</ele>
        <time>2017-02-25T09:36:22Z</time>
      </trkpt>
      <trkpt lat="42.87091" lon="0.12676">
        <ele>2296</ele>
        <time>2017-02-25T09:36:28Z</time>
      </trkpt>
      <trkpt lat="42.87079" lon="0.12691">
        <ele>2299</ele>
        <time>2017-02-25T09:36:47Z</time>
      </trkpt>
      <trkpt lat="42.87074" lon="0.12699">
        <ele>2302</ele>
        <time>2017-02-25T09:36:57Z</time>
      </trkpt>
      <trkpt lat="42.87092" lon="0.1269">
        <ele>2303</ele>
        <time>2017-02-25T09:37:26Z</time>
      </trkpt>
      <trkpt lat="42.87094" lon="0.12689">
        <ele>2304</ele>
        <time>2017-02-25T09:37:28Z</time>
      </trkpt>
      <trkpt lat="42.87102" lon="0.12684">
        <ele>2305</ele>
        <time>2017-02-25T09:37:37Z</time>
      </trkpt>
      <trkpt lat="42.87104" lon="0.12682">
        <ele>2306</ele>
        <time>2017-02-25T09:37:47Z</time>
      </trkpt>
      <trkpt lat="42.87106" lon="0.12681">
        <ele>2307</ele>
        <time>2017-02-25T09:37:49Z</time>
      </trkpt>
      <trkpt lat="42.8711" lon="0.12676">
        <ele>2307</ele>
        <time>2017-02-25T09:37:53Z</time>
      </trkpt>
      <trkpt lat="42.87121" lon="0.1266">
        <ele>2306</ele>
        <time>2017-02-25T09:38:09Z</time>
      </trkpt>
      <trkpt lat="42.87125" lon="0.12656">
        <ele>2306</ele>
        <time>2017-02-25T09:38:13Z</time>
      </trkpt>
      <trkpt lat="42.87131" lon="0.1265">
        <ele>2305</ele>
        <time>2017-02-25T09:38:19Z</time>
      </trkpt>
      <trkpt lat="42.87133" lon="0.12648">
        <ele>2305</ele>
        <time>2017-02-25T09:38:21Z</time>
      </trkpt>
      <trkpt lat="42.87135" lon="0.12647">
        <ele>2305</ele>
        <time>2017-02-25T09:38:23Z</time>
      </trkpt>
      <trkpt lat="42.87139" lon="0.12645">
        <ele>2306</ele>
        <time>2017-02-25T09:38:27Z</time>
      </trkpt>
      <trkpt lat="42.87141" lon="0.12643">
        <ele>2306</ele>
        <time>2017-02-25T09:38:30Z</time>
      </trkpt>
      <trkpt lat="42.87143" lon="0.12638">
        <ele>2307</ele>
        <time>2017-02-25T09:38:36Z</time>
      </trkpt>
      <trkpt lat="42.87145" lon="0.12636">
        <ele>2307</ele>
        <time>2017-02-25T09:38:38Z</time>
      </trkpt>
      <trkpt lat="42.87147" lon="0.12636">
        <ele>2308</ele>
        <time>2017-02-25T09:38:43Z</time>
      </trkpt>
      <trkpt lat="42.87147" lon="0.12641">
        <ele>2310</ele>
        <time>2017-02-25T09:38:52Z</time>
      </trkpt>
      <trkpt lat="42.87149" lon="0.12644">
        <ele>2310</ele>
        <time>2017-02-25T09:38:55Z</time>
      </trkpt>
      <trkpt lat="42.87151" lon="0.12645">
        <ele>2311</ele>
        <time>2017-02-25T09:38:58Z</time>
      </trkpt>
      <trkpt lat="42.87155" lon="0.12643">
        <ele>2312</ele>
        <time>2017-02-25T09:39:02Z</time>
      </trkpt>
      <trkpt lat="42.87156" lon="0.12642">
        <ele>2312</ele>
        <time>2017-02-25T09:39:04Z</time>
      </trkpt>
      <trkpt lat="42.87158" lon="0.12642">
        <ele>2314</ele>
        <time>2017-02-25T09:39:57Z</time>
      </trkpt>
      <trkpt lat="42.87164" lon="0.12642">
        <ele>2315</ele>
        <time>2017-02-25T09:40:11Z</time>
      </trkpt>
      <trkpt lat="42.87167" lon="0.12641">
        <ele>2315</ele>
        <time>2017-02-25T09:40:14Z</time>
      </trkpt>
      <trkpt lat="42.87173" lon="0.12643">
        <ele>2317</ele>
        <time>2017-02-25T09:40:21Z</time>
      </trkpt>
      <trkpt lat="42.8718" lon="0.12644">
        <ele>2317</ele>
        <time>2017-02-25T09:40:28Z</time>
      </trkpt>
      <trkpt lat="42.87191" lon="0.12643">
        <ele>2319</ele>
        <time>2017-02-25T09:40:42Z</time>
      </trkpt>
      <trkpt lat="42.87195" lon="0.12642">
        <ele>2319</ele>
        <time>2017-02-25T09:40:46Z</time>
      </trkpt>
      <trkpt lat="42.87198" lon="0.12643">
        <ele>2319</ele>
        <time>2017-02-25T09:40:48Z</time>
      </trkpt>
      <trkpt lat="42.872" lon="0.12643">
        <ele>2319</ele>
        <time>2017-02-25T09:40:50Z</time>
      </trkpt>
      <trkpt lat="42.87202" lon="0.12644">
        <ele>2320</ele>
        <time>2017-02-25T09:40:54Z</time>
      </trkpt>
      <trkpt lat="42.87212" lon="0.12642">
        <ele>2323</ele>
        <time>2017-02-25T09:41:05Z</time>
      </trkpt>
      <trkpt lat="42.87214" lon="0.12642">
        <ele>2323</ele>
        <time>2017-02-25T09:41:07Z</time>
      </trkpt>
      <trkpt lat="42.87216" lon="0.12642">
        <ele>2324</ele>
        <time>2017-02-25T09:41:10Z</time>
      </trkpt>
      <trkpt lat="42.87225" lon="0.12639">
        <ele>2326</ele>
        <time>2017-02-25T09:41:23Z</time>
      </trkpt>
      <trkpt lat="42.87227" lon="0.12639">
        <ele>2326</ele>
        <time>2017-02-25T09:41:26Z</time>
      </trkpt>
      <trkpt lat="42.87226" lon="0.12642">
        <ele>2327</ele>
        <time>2017-02-25T09:41:32Z</time>
      </trkpt>
      <trkpt lat="42.8722" lon="0.12652">
        <ele>2329</ele>
        <time>2017-02-25T09:41:44Z</time>
      </trkpt>
      <trkpt lat="42.87216" lon="0.12661">
        <ele>2330</ele>
        <time>2017-02-25T09:41:52Z</time>
      </trkpt>
      <trkpt lat="42.87214" lon="0.12663">
        <ele>2330</ele>
        <time>2017-02-25T09:41:55Z</time>
      </trkpt>
      <trkpt lat="42.87216" lon="0.12664">
        <ele>2331</ele>
        <time>2017-02-25T09:42:03Z</time>
      </trkpt>
      <trkpt lat="42.87218" lon="0.12664">
        <ele>2331</ele>
        <time>2017-02-25T09:42:08Z</time>
      </trkpt>
      <trkpt lat="42.8722" lon="0.12665">
        <ele>2332</ele>
        <time>2017-02-25T09:42:14Z</time>
      </trkpt>
      <trkpt lat="42.87227" lon="0.12664">
        <ele>2335</ele>
        <time>2017-02-25T09:42:25Z</time>
      </trkpt>
      <trkpt lat="42.87229" lon="0.12664">
        <ele>2335</ele>
        <time>2017-02-25T09:42:28Z</time>
      </trkpt>
      <trkpt lat="42.8723" lon="0.12662">
        <ele>2335</ele>
        <time>2017-02-25T09:42:31Z</time>
      </trkpt>
      <trkpt lat="42.87232" lon="0.12661">
        <ele>2335</ele>
        <time>2017-02-25T09:42:35Z</time>
      </trkpt>
      <trkpt lat="42.87233" lon="0.12663">
        <ele>2338</ele>
        <time>2017-02-25T09:42:40Z</time>
      </trkpt>
      <trkpt lat="42.87227" lon="0.12679">
        <ele>2340</ele>
        <time>2017-02-25T09:42:54Z</time>
      </trkpt>
      <trkpt lat="42.87224" lon="0.12685">
        <ele>2340</ele>
        <time>2017-02-25T09:43:00Z</time>
      </trkpt>
      <trkpt lat="42.8722" lon="0.12688">
        <ele>2342</ele>
        <time>2017-02-25T09:43:06Z</time>
      </trkpt>
      <trkpt lat="42.87214" lon="0.12693">
        <ele>2343</ele>
        <time>2017-02-25T09:43:15Z</time>
      </trkpt>
      <trkpt lat="42.87199" lon="0.12701">
        <ele>2347</ele>
        <time>2017-02-25T09:43:34Z</time>
      </trkpt>
      <trkpt lat="42.87197" lon="0.12703">
        <ele>2347</ele>
        <time>2017-02-25T09:43:37Z</time>
      </trkpt>
      <trkpt lat="42.87195" lon="0.12704">
        <ele>2347</ele>
        <time>2017-02-25T09:43:41Z</time>
      </trkpt>
      <trkpt lat="42.87192" lon="0.12708">
        <ele>2350</ele>
        <time>2017-02-25T09:43:49Z</time>
      </trkpt>
      <trkpt lat="42.87192" lon="0.12711">
        <ele>2350</ele>
        <time>2017-02-25T09:43:53Z</time>
      </trkpt>
      <trkpt lat="42.87192" lon="0.12713">
        <ele>2351</ele>
        <time>2017-02-25T09:43:56Z</time>
      </trkpt>
      <trkpt lat="42.87192" lon="0.12716">
        <ele>2351</ele>
        <time>2017-02-25T09:43:59Z</time>
      </trkpt>
      <trkpt lat="42.87193" lon="0.12718">
        <ele>2352</ele>
        <time>2017-02-25T09:44:02Z</time>
      </trkpt>
      <trkpt lat="42.87197" lon="0.12725">
        <ele>2354</ele>
        <time>2017-02-25T09:44:10Z</time>
      </trkpt>
      <trkpt lat="42.87199" lon="0.12728">
        <ele>2354</ele>
        <time>2017-02-25T09:44:13Z</time>
      </trkpt>
      <trkpt lat="42.87199" lon="0.1273">
        <ele>2356</ele>
        <time>2017-02-25T09:44:16Z</time>
      </trkpt>
      <trkpt lat="42.87204" lon="0.12738">
        <ele>2357</ele>
        <time>2017-02-25T09:44:25Z</time>
      </trkpt>
      <trkpt lat="42.87204" lon="0.12741">
        <ele>2357</ele>
        <time>2017-02-25T09:44:28Z</time>
      </trkpt>
      <trkpt lat="42.87204" lon="0.12744">
        <ele>2359</ele>
        <time>2017-02-25T09:44:31Z</time>
      </trkpt>
      <trkpt lat="42.87205" lon="0.1275">
        <ele>2360</ele>
        <time>2017-02-25T09:44:37Z</time>
      </trkpt>
      <trkpt lat="42.87205" lon="0.12753">
        <ele>2362</ele>
        <time>2017-02-25T09:44:40Z</time>
      </trkpt>
      <trkpt lat="42.87206" lon="0.12756">
        <ele>2362</ele>
        <time>2017-02-25T09:44:43Z</time>
      </trkpt>
      <trkpt lat="42.87211" lon="0.12763">
        <ele>2365</ele>
        <time>2017-02-25T09:44:54Z</time>
      </trkpt>
      <trkpt lat="42.87213" lon="0.12764">
        <ele>2366</ele>
        <time>2017-02-25T09:44:58Z</time>
      </trkpt>
      <trkpt lat="42.87214" lon="0.12766">
        <ele>2366</ele>
        <time>2017-02-25T09:45:01Z</time>
      </trkpt>
      <trkpt lat="42.87217" lon="0.12767">
        <ele>2366</ele>
        <time>2017-02-25T09:45:05Z</time>
      </trkpt>
      <trkpt lat="42.87219" lon="0.12768">
        <ele>2367</ele>
        <time>2017-02-25T09:45:08Z</time>
      </trkpt>
      <trkpt lat="42.87221" lon="0.12767">
        <ele>2368</ele>
        <time>2017-02-25T09:45:11Z</time>
      </trkpt>
      <trkpt lat="42.87223" lon="0.12766">
        <ele>2369</ele>
        <time>2017-02-25T09:45:14Z</time>
      </trkpt>
      <trkpt lat="42.87225" lon="0.12765">
        <ele>2369</ele>
        <time>2017-02-25T09:45:17Z</time>
      </trkpt>
      <trkpt lat="42.87229" lon="0.12762">
        <ele>2369</ele>
        <time>2017-02-25T09:45:23Z</time>
      </trkpt>
      <trkpt lat="42.87233" lon="0.1276">
        <ele>2370</ele>
        <time>2017-02-25T09:45:29Z</time>
      </trkpt>
      <trkpt lat="42.87236" lon="0.1276">
        <ele>2371</ele>
        <time>2017-02-25T09:45:32Z</time>
      </trkpt>
      <trkpt lat="42.87238" lon="0.12761">
        <ele>2371</ele>
        <time>2017-02-25T09:45:34Z</time>
      </trkpt>
      <trkpt lat="42.8724" lon="0.12761">
        <ele>2372</ele>
        <time>2017-02-25T09:45:37Z</time>
      </trkpt>
      <trkpt lat="42.87242" lon="0.12762">
        <ele>2372</ele>
        <time>2017-02-25T09:45:39Z</time>
      </trkpt>
      <trkpt lat="42.87246" lon="0.12765">
        <ele>2372</ele>
        <time>2017-02-25T09:45:43Z</time>
      </trkpt>
      <trkpt lat="42.87252" lon="0.1277">
        <ele>2373</ele>
        <time>2017-02-25T09:45:51Z</time>
      </trkpt>
      <trkpt lat="42.87254" lon="0.12773">
        <ele>2374</ele>
        <time>2017-02-25T09:45:54Z</time>
      </trkpt>
      <trkpt lat="42.87256" lon="0.12777">
        <ele>2375</ele>
        <time>2017-02-25T09:45:59Z</time>
      </trkpt>
      <trkpt lat="42.87259" lon="0.12781">
        <ele>2376</ele>
        <time>2017-02-25T09:46:04Z</time>
      </trkpt>
      <trkpt lat="42.8726" lon="0.12783">
        <ele>2377</ele>
        <time>2017-02-25T09:46:06Z</time>
      </trkpt>
      <trkpt lat="42.87267" lon="0.1279">
        <ele>2379</ele>
        <time>2017-02-25T09:46:17Z</time>
      </trkpt>
      <trkpt lat="42.87269" lon="0.12792">
        <ele>2380</ele>
        <time>2017-02-25T09:46:20Z</time>
      </trkpt>
      <trkpt lat="42.87272" lon="0.12797">
        <ele>2381</ele>
        <time>2017-02-25T09:46:26Z</time>
      </trkpt>
      <trkpt lat="42.87274" lon="0.128">
        <ele>2381</ele>
        <time>2017-02-25T09:46:28Z</time>
      </trkpt>
      <trkpt lat="42.87277" lon="0.12803">
        <ele>2382</ele>
        <time>2017-02-25T09:46:34Z</time>
      </trkpt>
      <trkpt lat="42.87279" lon="0.12805">
        <ele>2384</ele>
        <time>2017-02-25T09:46:37Z</time>
      </trkpt>
      <trkpt lat="42.87284" lon="0.12806">
        <ele>2384</ele>
        <time>2017-02-25T09:46:43Z</time>
      </trkpt>
      <trkpt lat="42.87291" lon="0.12807">
        <ele>2386</ele>
        <time>2017-02-25T09:46:51Z</time>
      </trkpt>
      <trkpt lat="42.87295" lon="0.12808">
        <ele>2387</ele>
        <time>2017-02-25T09:46:56Z</time>
      </trkpt>
      <trkpt lat="42.87297" lon="0.12809">
        <ele>2388</ele>
        <time>2017-02-25T09:46:58Z</time>
      </trkpt>
      <trkpt lat="42.87299" lon="0.12811">
        <ele>2389</ele>
        <time>2017-02-25T09:47:01Z</time>
      </trkpt>
      <trkpt lat="42.87301" lon="0.12812">
        <ele>2390</ele>
        <time>2017-02-25T09:47:04Z</time>
      </trkpt>
      <trkpt lat="42.87305" lon="0.12815">
        <ele>2391</ele>
        <time>2017-02-25T09:47:10Z</time>
      </trkpt>
      <trkpt lat="42.87307" lon="0.1282">
        <ele>2392</ele>
        <time>2017-02-25T09:47:16Z</time>
      </trkpt>
      <trkpt lat="42.87307" lon="0.12822">
        <ele>2393</ele>
        <time>2017-02-25T09:47:19Z</time>
      </trkpt>
      <trkpt lat="42.87302" lon="0.12832">
        <ele>2395</ele>
        <time>2017-02-25T09:47:31Z</time>
      </trkpt>
      <trkpt lat="42.87301" lon="0.12834">
        <ele>2397</ele>
        <time>2017-02-25T09:47:34Z</time>
      </trkpt>
      <trkpt lat="42.87297" lon="0.12837">
        <ele>2397</ele>
        <time>2017-02-25T09:47:40Z</time>
      </trkpt>
      <trkpt lat="42.87295" lon="0.1284">
        <ele>2398</ele>
        <time>2017-02-25T09:47:43Z</time>
      </trkpt>
      <trkpt lat="42.87293" lon="0.12841">
        <ele>2398</ele>
        <time>2017-02-25T09:47:45Z</time>
      </trkpt>
      <trkpt lat="42.87284" lon="0.12851">
        <ele>2400</ele>
        <time>2017-02-25T09:48:00Z</time>
      </trkpt>
      <trkpt lat="42.87264" lon="0.12882">
        <ele>2407</ele>
        <time>2017-02-25T09:48:38Z</time>
      </trkpt>
      <trkpt lat="42.87263" lon="0.12884">
        <ele>2407</ele>
        <time>2017-02-25T09:48:41Z</time>
      </trkpt>
      <trkpt lat="42.87262" lon="0.12886">
        <ele>2408</ele>
        <time>2017-02-25T09:48:44Z</time>
      </trkpt>
      <trkpt lat="42.8726" lon="0.12888">
        <ele>2410</ele>
        <time>2017-02-25T09:48:48Z</time>
      </trkpt>
      <trkpt lat="42.87259" lon="0.1289">
        <ele>2410</ele>
        <time>2017-02-25T09:48:54Z</time>
      </trkpt>
      <trkpt lat="42.87259" lon="0.12893">
        <ele>2411</ele>
        <time>2017-02-25T09:48:58Z</time>
      </trkpt>
      <trkpt lat="42.87261" lon="0.12896">
        <ele>2411</ele>
        <time>2017-02-25T09:49:01Z</time>
      </trkpt>
      <trkpt lat="42.87262" lon="0.12898">
        <ele>2413</ele>
        <time>2017-02-25T09:49:04Z</time>
      </trkpt>
      <trkpt lat="42.87262" lon="0.12901">
        <ele>2413</ele>
        <time>2017-02-25T09:49:07Z</time>
      </trkpt>
      <trkpt lat="42.87261" lon="0.12904">
        <ele>2413</ele>
        <time>2017-02-25T09:49:10Z</time>
      </trkpt>
      <trkpt lat="42.87259" lon="0.1291">
        <ele>2415</ele>
        <time>2017-02-25T09:49:18Z</time>
      </trkpt>
      <trkpt lat="42.87258" lon="0.12913">
        <ele>2415</ele>
        <time>2017-02-25T09:49:21Z</time>
      </trkpt>
      <trkpt lat="42.87256" lon="0.12918">
        <ele>2416</ele>
        <time>2017-02-25T09:49:27Z</time>
      </trkpt>
      <trkpt lat="42.87255" lon="0.12921">
        <ele>2417</ele>
        <time>2017-02-25T09:49:30Z</time>
      </trkpt>
      <trkpt lat="42.87253" lon="0.12925">
        <ele>2419</ele>
        <time>2017-02-25T09:49:37Z</time>
      </trkpt>
      <trkpt lat="42.8725" lon="0.12936">
        <ele>2420</ele>
        <time>2017-02-25T09:49:55Z</time>
      </trkpt>
      <trkpt lat="42.8725" lon="0.12939">
        <ele>2421</ele>
        <time>2017-02-25T09:49:58Z</time>
      </trkpt>
      <trkpt lat="42.87249" lon="0.12942">
        <ele>2421</ele>
        <time>2017-02-25T09:50:01Z</time>
      </trkpt>
      <trkpt lat="42.87247" lon="0.12948">
        <ele>2423</ele>
        <time>2017-02-25T09:50:07Z</time>
      </trkpt>
      <trkpt lat="42.87247" lon="0.1295">
        <ele>2423</ele>
        <time>2017-02-25T09:50:09Z</time>
      </trkpt>
      <trkpt lat="42.87248" lon="0.12956">
        <ele>2423</ele>
        <time>2017-02-25T09:50:13Z</time>
      </trkpt>
      <trkpt lat="42.87248" lon="0.12959">
        <ele>2423</ele>
        <time>2017-02-25T09:50:15Z</time>
      </trkpt>
      <trkpt lat="42.87247" lon="0.12963">
        <ele>2424</ele>
        <time>2017-02-25T09:50:18Z</time>
      </trkpt>
      <trkpt lat="42.87247" lon="0.12966">
        <ele>2425</ele>
        <time>2017-02-25T09:50:21Z</time>
      </trkpt>
      <trkpt lat="42.87243" lon="0.12985">
        <ele>2427</ele>
        <time>2017-02-25T09:50:37Z</time>
      </trkpt>
      <trkpt lat="42.87239" lon="0.12993">
        <ele>2428</ele>
        <time>2017-02-25T09:50:44Z</time>
      </trkpt>
      <trkpt lat="42.87238" lon="0.12999">
        <ele>2428</ele>
        <time>2017-02-25T09:50:50Z</time>
      </trkpt>
      <trkpt lat="42.87237" lon="0.13002">
        <ele>2429</ele>
        <time>2017-02-25T09:50:53Z</time>
      </trkpt>
      <trkpt lat="42.87236" lon="0.13005">
        <ele>2430</ele>
        <time>2017-02-25T09:50:56Z</time>
      </trkpt>
      <trkpt lat="42.87235" lon="0.13008">
        <ele>2431</ele>
        <time>2017-02-25T09:51:03Z</time>
      </trkpt>
      <trkpt lat="42.87233" lon="0.13011">
        <ele>2431</ele>
        <time>2017-02-25T09:51:08Z</time>
      </trkpt>
      <trkpt lat="42.87231" lon="0.13012">
        <ele>2431</ele>
        <time>2017-02-25T09:51:11Z</time>
      </trkpt>
      <trkpt lat="42.87229" lon="0.13016">
        <ele>2431</ele>
        <time>2017-02-25T09:51:42Z</time>
      </trkpt>
      <trkpt lat="42.87227" lon="0.13017">
        <ele>2432</ele>
        <time>2017-02-25T09:52:55Z</time>
      </trkpt>
      <trkpt lat="42.87225" lon="0.13018">
        <ele>2434</ele>
        <time>2017-02-25T09:52:58Z</time>
      </trkpt>
      <trkpt lat="42.87224" lon="0.13019">
        <ele>2434</ele>
        <time>2017-02-25T09:53:05Z</time>
      </trkpt>
      <trkpt lat="42.87221" lon="0.13027">
        <ele>2435</ele>
        <time>2017-02-25T09:53:14Z</time>
      </trkpt>
      <trkpt lat="42.8722" lon="0.13031">
        <ele>2435</ele>
        <time>2017-02-25T09:53:17Z</time>
      </trkpt>
      <trkpt lat="42.87216" lon="0.13042">
        <ele>2437</ele>
        <time>2017-02-25T09:53:27Z</time>
      </trkpt>
      <trkpt lat="42.87214" lon="0.13043">
        <ele>2438</ele>
        <time>2017-02-25T09:53:30Z</time>
      </trkpt>
      <trkpt lat="42.87214" lon="0.13046">
        <ele>2438</ele>
        <time>2017-02-25T09:54:02Z</time>
      </trkpt>
      <trkpt lat="42.87207" lon="0.13057">
        <ele>2439</ele>
        <time>2017-02-25T09:54:12Z</time>
      </trkpt>
      <trkpt lat="42.87207" lon="0.1306">
        <ele>2439</ele>
        <time>2017-02-25T09:54:14Z</time>
      </trkpt>
      <trkpt lat="42.87204" lon="0.13064">
        <ele>2440</ele>
        <time>2017-02-25T09:54:18Z</time>
      </trkpt>
      <trkpt lat="42.87203" lon="0.13067">
        <ele>2440</ele>
        <time>2017-02-25T09:54:20Z</time>
      </trkpt>
      <trkpt lat="42.872" lon="0.13072">
        <ele>2440</ele>
        <time>2017-02-25T09:54:24Z</time>
      </trkpt>
      <trkpt lat="42.87199" lon="0.13074">
        <ele>2440</ele>
        <time>2017-02-25T09:54:26Z</time>
      </trkpt>
      <trkpt lat="42.87197" lon="0.13077">
        <ele>2441</ele>
        <time>2017-02-25T09:54:28Z</time>
      </trkpt>
      <trkpt lat="42.87191" lon="0.13086">
        <ele>2442</ele>
        <time>2017-02-25T09:54:36Z</time>
      </trkpt>
      <trkpt lat="42.8719" lon="0.13088">
        <ele>2442</ele>
        <time>2017-02-25T09:54:38Z</time>
      </trkpt>
      <trkpt lat="42.87188" lon="0.13091">
        <ele>2442</ele>
        <time>2017-02-25T09:54:40Z</time>
      </trkpt>
      <trkpt lat="42.87186" lon="0.13094">
        <ele>2443</ele>
        <time>2017-02-25T09:54:42Z</time>
      </trkpt>
      <trkpt lat="42.87173" lon="0.13104">
        <ele>2443</ele>
        <time>2017-02-25T09:54:52Z</time>
      </trkpt>
      <trkpt lat="42.87162" lon="0.13114">
        <ele>2443</ele>
        <time>2017-02-25T09:55:00Z</time>
      </trkpt>
      <trkpt lat="42.87155" lon="0.1312">
        <ele>2442</ele>
        <time>2017-02-25T09:55:04Z</time>
      </trkpt>
      <trkpt lat="42.87149" lon="0.13127">
        <ele>2441</ele>
        <time>2017-02-25T09:55:06Z</time>
      </trkpt>
      <trkpt lat="42.87141" lon="0.13137">
        <ele>2440</ele>
        <time>2017-02-25T09:55:12Z</time>
      </trkpt>
      <trkpt lat="42.87139" lon="0.13138">
        <ele>2440</ele>
        <time>2017-02-25T09:55:32Z</time>
      </trkpt>
      <trkpt lat="42.87137" lon="0.1314">
        <ele>2440</ele>
        <time>2017-02-25T09:55:34Z</time>
      </trkpt>
      <trkpt lat="42.87129" lon="0.13149">
        <ele>2441</ele>
        <time>2017-02-25T09:55:42Z</time>
      </trkpt>
      <trkpt lat="42.87127" lon="0.13152">
        <ele>2441</ele>
        <time>2017-02-25T09:55:44Z</time>
      </trkpt>
      <trkpt lat="42.87125" lon="0.13153">
        <ele>2442</ele>
        <time>2017-02-25T09:55:46Z</time>
      </trkpt>
      <trkpt lat="42.87123" lon="0.13155">
        <ele>2442</ele>
        <time>2017-02-25T09:55:48Z</time>
      </trkpt>
      <trkpt lat="42.87121" lon="0.13156">
        <ele>2443</ele>
        <time>2017-02-25T09:55:50Z</time>
      </trkpt>
      <trkpt lat="42.87115" lon="0.13159">
        <ele>2443</ele>
        <time>2017-02-25T09:55:54Z</time>
      </trkpt>
      <trkpt lat="42.87109" lon="0.13161">
        <ele>2444</ele>
        <time>2017-02-25T09:56:00Z</time>
      </trkpt>
      <trkpt lat="42.87106" lon="0.13164">
        <ele>2445</ele>
        <time>2017-02-25T09:56:04Z</time>
      </trkpt>
      <trkpt lat="42.87103" lon="0.13167">
        <ele>2446</ele>
        <time>2017-02-25T09:56:08Z</time>
      </trkpt>
      <trkpt lat="42.87098" lon="0.13173">
        <ele>2447</ele>
        <time>2017-02-25T09:56:15Z</time>
      </trkpt>
      <trkpt lat="42.87095" lon="0.13181">
        <ele>2449</ele>
        <time>2017-02-25T09:56:26Z</time>
      </trkpt>
      <trkpt lat="42.87088" lon="0.13195">
        <ele>2451</ele>
        <time>2017-02-25T09:56:41Z</time>
      </trkpt>
      <trkpt lat="42.87068" lon="0.13224">
        <ele>2456</ele>
        <time>2017-02-25T09:57:12Z</time>
      </trkpt>
      <trkpt lat="42.87067" lon="0.13225">
        <ele>2456</ele>
        <time>2017-02-25T09:57:14Z</time>
      </trkpt>
      <trkpt lat="42.87065" lon="0.13228">
        <ele>2457</ele>
        <time>2017-02-25T09:57:17Z</time>
      </trkpt>
      <trkpt lat="42.87063" lon="0.1323">
        <ele>2457</ele>
        <time>2017-02-25T09:57:20Z</time>
      </trkpt>
      <trkpt lat="42.87052" lon="0.13242">
        <ele>2460</ele>
        <time>2017-02-25T09:57:38Z</time>
      </trkpt>
      <trkpt lat="42.87051" lon="0.13245">
        <ele>2460</ele>
        <time>2017-02-25T09:57:41Z</time>
      </trkpt>
      <trkpt lat="42.87049" lon="0.13247">
        <ele>2461</ele>
        <time>2017-02-25T09:57:44Z</time>
      </trkpt>
      <trkpt lat="42.87047" lon="0.13249">
        <ele>2461</ele>
        <time>2017-02-25T09:57:47Z</time>
      </trkpt>
      <trkpt lat="42.87045" lon="0.13251">
        <ele>2462</ele>
        <time>2017-02-25T09:57:50Z</time>
      </trkpt>
      <trkpt lat="42.87041" lon="0.13255">
        <ele>2463</ele>
        <time>2017-02-25T09:57:56Z</time>
      </trkpt>
      <trkpt lat="42.8704" lon="0.13257">
        <ele>2463</ele>
        <time>2017-02-25T09:57:59Z</time>
      </trkpt>
      <trkpt lat="42.87038" lon="0.13259">
        <ele>2464</ele>
        <time>2017-02-25T09:58:02Z</time>
      </trkpt>
      <trkpt lat="42.87036" lon="0.13261">
        <ele>2464</ele>
        <time>2017-02-25T09:58:04Z</time>
      </trkpt>
      <trkpt lat="42.87034" lon="0.13262">
        <ele>2465</ele>
        <time>2017-02-25T09:58:07Z</time>
      </trkpt>
      <trkpt lat="42.87031" lon="0.13266">
        <ele>2466</ele>
        <time>2017-02-25T09:58:14Z</time>
      </trkpt>
      <trkpt lat="42.87027" lon="0.13269">
        <ele>2466</ele>
        <time>2017-02-25T09:58:19Z</time>
      </trkpt>
      <trkpt lat="42.87026" lon="0.13271">
        <ele>2467</ele>
        <time>2017-02-25T09:58:22Z</time>
      </trkpt>
      <trkpt lat="42.87022" lon="0.13274">
        <ele>2468</ele>
        <time>2017-02-25T09:58:30Z</time>
      </trkpt>
      <trkpt lat="42.87016" lon="0.13282">
        <ele>2469</ele>
        <time>2017-02-25T09:58:40Z</time>
      </trkpt>
      <trkpt lat="42.87014" lon="0.13284">
        <ele>2469</ele>
        <time>2017-02-25T09:58:43Z</time>
      </trkpt>
      <trkpt lat="42.87001" lon="0.13298">
        <ele>2473</ele>
        <time>2017-02-25T09:59:03Z</time>
      </trkpt>
      <trkpt lat="42.86998" lon="0.13302">
        <ele>2473</ele>
        <time>2017-02-25T09:59:08Z</time>
      </trkpt>
      <trkpt lat="42.8698" lon="0.13325">
        <ele>2477</ele>
        <time>2017-02-25T09:59:36Z</time>
      </trkpt>
      <trkpt lat="42.86977" lon="0.13329">
        <ele>2479</ele>
        <time>2017-02-25T09:59:41Z</time>
      </trkpt>
      <trkpt lat="42.86977" lon="0.13332">
        <ele>2479</ele>
        <time>2017-02-25T09:59:43Z</time>
      </trkpt>
      <trkpt lat="42.86976" lon="0.13334">
        <ele>2479</ele>
        <time>2017-02-25T09:59:46Z</time>
      </trkpt>
      <trkpt lat="42.86975" lon="0.13337">
        <ele>2479</ele>
        <time>2017-02-25T09:59:48Z</time>
      </trkpt>
      <trkpt lat="42.86974" lon="0.13339">
        <ele>2480</ele>
        <time>2017-02-25T09:59:50Z</time>
      </trkpt>
      <trkpt lat="42.86973" lon="0.13342">
        <ele>2480</ele>
        <time>2017-02-25T09:59:52Z</time>
      </trkpt>
      <trkpt lat="42.86971" lon="0.13347">
        <ele>2481</ele>
        <time>2017-02-25T09:59:56Z</time>
      </trkpt>
      <trkpt lat="42.8697" lon="0.13353">
        <ele>2482</ele>
        <time>2017-02-25T10:00:02Z</time>
      </trkpt>
      <trkpt lat="42.8697" lon="0.13356">
        <ele>2482</ele>
        <time>2017-02-25T10:00:36Z</time>
      </trkpt>
      <trkpt lat="42.8697" lon="0.13358">
        <ele>2483</ele>
        <time>2017-02-25T10:02:58Z</time>
      </trkpt>
      <trkpt lat="42.8697" lon="0.13364">
        <ele>2483</ele>
        <time>2017-02-25T10:03:05Z</time>
      </trkpt>
      <trkpt lat="42.86968" lon="0.13364">
        <ele>2483</ele>
        <time>2017-02-25T10:04:23Z</time>
      </trkpt>
      <trkpt lat="42.86966" lon="0.13364">
        <ele>2482</ele>
        <time>2017-02-25T10:04:26Z</time>
      </trkpt>
      <trkpt lat="42.86964" lon="0.13366">
        <ele>2482</ele>
        <time>2017-02-25T10:04:30Z</time>
      </trkpt>
      <trkpt lat="42.86963" lon="0.13367">
        <ele>2483</ele>
        <time>2017-02-25T10:04:46Z</time>
      </trkpt>
      <trkpt lat="42.86961" lon="0.13367">
        <ele>2483</ele>
        <time>2017-02-25T10:10:23Z</time>
      </trkpt>
      <trkpt lat="42.8696" lon="0.13369">
        <ele>2482</ele>
        <time>2017-02-25T10:11:31Z</time>
      </trkpt>
      <trkpt lat="42.86958" lon="0.13371">
        <ele>2482</ele>
        <time>2017-02-25T10:11:53Z</time>
      </trkpt>
      <trkpt lat="42.86959" lon="0.13377">
        <ele>2477</ele>
        <time>2017-02-25T10:12:24Z</time>
      </trkpt>
      <trkpt lat="42.86961" lon="0.13378">
        <ele>2476</ele>
        <time>2017-02-25T10:12:29Z</time>
      </trkpt>
      <trkpt lat="42.86962" lon="0.1338">
        <ele>2476</ele>
        <time>2017-02-25T10:12:37Z</time>
      </trkpt>
      <trkpt lat="42.86965" lon="0.13384">
        <ele>2472</ele>
        <time>2017-02-25T10:12:57Z</time>
      </trkpt>
      <trkpt lat="42.86966" lon="0.13385">
        <ele>2471</ele>
        <time>2017-02-25T10:13:04Z</time>
      </trkpt>
      <trkpt lat="42.86968" lon="0.13388">
        <ele>2468</ele>
        <time>2017-02-25T10:13:12Z</time>
      </trkpt>
      <trkpt lat="42.86968" lon="0.13388">
        <ele>2468</ele>
        <time>2017-02-25T10:13:13Z</time>
      </trkpt>
      <trkpt lat="42.86968" lon="0.13388">
        <ele>2468</ele>
        <time>2017-02-25T10:13:14Z</time>
      </trkpt>
      <trkpt lat="42.86968" lon="0.13389">
        <ele>2468</ele>
        <time>2017-02-25T10:13:15Z</time>
      </trkpt>
      <trkpt lat="42.86968" lon="0.13389">
        <ele>2468</ele>
        <time>2017-02-25T10:13:16Z</time>
      </trkpt>
      <trkpt lat="42.86968" lon="0.13389">
        <ele>2468</ele>
        <time>2017-02-25T10:13:17Z</time>
      </trkpt>
      <trkpt lat="42.86968" lon="0.1339">
        <ele>2468</ele>
        <time>2017-02-25T10:13:19Z</time>
      </trkpt>
      <trkpt lat="42.86969" lon="0.1339">
        <ele>2468</ele>
        <time>2017-02-25T10:13:20Z</time>
      </trkpt>
      <trkpt lat="42.86969" lon="0.1339">
        <ele>2467</ele>
        <time>2017-02-25T10:13:22Z</time>
      </trkpt>
      <trkpt lat="42.86969" lon="0.13391">
        <ele>2467</ele>
        <time>2017-02-25T10:13:23Z</time>
      </trkpt>
      <trkpt lat="42.86969" lon="0.13391">
        <ele>2467</ele>
        <time>2017-02-25T10:13:24Z</time>
      </trkpt>
      <trkpt lat="42.86969" lon="0.13392">
        <ele>2467</ele>
        <time>2017-02-25T10:13:26Z</time>
      </trkpt>
      <trkpt lat="42.86969" lon="0.13392">
        <ele>2467</ele>
        <time>2017-02-25T10:13:27Z</time>
      </trkpt>
      <trkpt lat="42.86969" lon="0.13392">
        <ele>2466</ele>
        <time>2017-02-25T10:13:28Z</time>
      </trkpt>
      <trkpt lat="42.8697" lon="0.13392">
        <ele>2466</ele>
        <time>2017-02-25T10:13:29Z</time>
      </trkpt>
      <trkpt lat="42.8697" lon="0.13393">
        <ele>2466</ele>
        <time>2017-02-25T10:13:30Z</time>
      </trkpt>
      <trkpt lat="42.8697" lon="0.13393">
        <ele>2466</ele>
        <time>2017-02-25T10:13:31Z</time>
      </trkpt>
      <trkpt lat="42.86972" lon="0.13394">
        <ele>2464</ele>
        <time>2017-02-25T10:13:43Z</time>
      </trkpt>
      <trkpt lat="42.86973" lon="0.13395">
        <ele>2461</ele>
        <time>2017-02-25T10:13:55Z</time>
      </trkpt>
      <trkpt lat="42.86975" lon="0.13397">
        <ele>2458</ele>
        <time>2017-02-25T10:14:13Z</time>
      </trkpt>
      <trkpt lat="42.86979" lon="0.13411">
        <ele>2448</ele>
        <time>2017-02-25T10:14:58Z</time>
      </trkpt>
      <trkpt lat="42.8698" lon="0.13409">
        <ele>2445</ele>
        <time>2017-02-25T10:15:11Z</time>
      </trkpt>
      <trkpt lat="42.86983" lon="0.13409">
        <ele>2444</ele>
        <time>2017-02-25T10:15:21Z</time>
      </trkpt>
      <trkpt lat="42.86985" lon="0.13409">
        <ele>2443</ele>
        <time>2017-02-25T10:15:36Z</time>
      </trkpt>
      <trkpt lat="42.86987" lon="0.13408">
        <ele>2443</ele>
        <time>2017-02-25T10:15:46Z</time>
      </trkpt>
      <trkpt lat="42.86985" lon="0.13407">
        <ele>2444</ele>
        <time>2017-02-25T10:15:53Z</time>
      </trkpt>
      <trkpt lat="42.86988" lon="0.13411">
        <ele>2443</ele>
        <time>2017-02-25T10:17:24Z</time>
      </trkpt>
      <trkpt lat="42.86988" lon="0.13415">
        <ele>2443</ele>
        <time>2017-02-25T10:17:26Z</time>
      </trkpt>
      <trkpt lat="42.86988" lon="0.1342">
        <ele>2443</ele>
        <time>2017-02-25T10:17:27Z</time>
      </trkpt>
      <trkpt lat="42.86982" lon="0.13429">
        <ele>2437</ele>
        <time>2017-02-25T10:17:30Z</time>
      </trkpt>
      <trkpt lat="42.8698" lon="0.13431">
        <ele>2436</ele>
        <time>2017-02-25T10:17:31Z</time>
      </trkpt>
      <trkpt lat="42.86978" lon="0.13434">
        <ele>2434</ele>
        <time>2017-02-25T10:17:33Z</time>
      </trkpt>
      <trkpt lat="42.86978" lon="0.13437">
        <ele>2432</ele>
        <time>2017-02-25T10:17:36Z</time>
      </trkpt>
      <trkpt lat="42.8698" lon="0.13439">
        <ele>2431</ele>
        <time>2017-02-25T10:17:38Z</time>
      </trkpt>
      <trkpt lat="42.86984" lon="0.13436">
        <ele>2429</ele>
        <time>2017-02-25T10:17:44Z</time>
      </trkpt>
      <trkpt lat="42.86987" lon="0.13435">
        <ele>2428</ele>
        <time>2017-02-25T10:17:48Z</time>
      </trkpt>
      <trkpt lat="42.86985" lon="0.13447">
        <ele>2424</ele>
        <time>2017-02-25T10:17:54Z</time>
      </trkpt>
      <trkpt lat="42.86985" lon="0.13451">
        <ele>2422</ele>
        <time>2017-02-25T10:17:57Z</time>
      </trkpt>
      <trkpt lat="42.86986" lon="0.13453">
        <ele>2421</ele>
        <time>2017-02-25T10:17:58Z</time>
      </trkpt>
      <trkpt lat="42.8699" lon="0.13455">
        <ele>2421</ele>
        <time>2017-02-25T10:17:59Z</time>
      </trkpt>
      <trkpt lat="42.86993" lon="0.13474">
        <ele>2412</ele>
        <time>2017-02-25T10:18:04Z</time>
      </trkpt>
      <trkpt lat="42.86989" lon="0.13483">
        <ele>2409</ele>
        <time>2017-02-25T10:18:06Z</time>
      </trkpt>
      <trkpt lat="42.86987" lon="0.13486">
        <ele>2406</ele>
        <time>2017-02-25T10:18:07Z</time>
      </trkpt>
      <trkpt lat="42.86987" lon="0.13498">
        <ele>2400</ele>
        <time>2017-02-25T10:18:10Z</time>
      </trkpt>
      <trkpt lat="42.86987" lon="0.13503">
        <ele>2398</ele>
        <time>2017-02-25T10:18:11Z</time>
      </trkpt>
      <trkpt lat="42.8699" lon="0.13536">
        <ele>2383</ele>
        <time>2017-02-25T10:18:18Z</time>
      </trkpt>
      <trkpt lat="42.86986" lon="0.1355">
        <ele>2379</ele>
        <time>2017-02-25T10:18:20Z</time>
      </trkpt>
      <trkpt lat="42.86978" lon="0.13642">
        <ele>2364</ele>
        <time>2017-02-25T10:18:26Z</time>
      </trkpt>
      <trkpt lat="42.86981" lon="0.13658">
        <ele>2363</ele>
        <time>2017-02-25T10:18:27Z</time>
      </trkpt>
      <trkpt lat="42.86995" lon="0.13701">
        <ele>2357</ele>
        <time>2017-02-25T10:18:31Z</time>
      </trkpt>
      <trkpt lat="42.87003" lon="0.13714">
        <ele>2356</ele>
        <time>2017-02-25T10:18:34Z</time>
      </trkpt>
      <trkpt lat="42.87017" lon="0.13729">
        <ele>2354</ele>
        <time>2017-02-25T10:18:37Z</time>
      </trkpt>
      <trkpt lat="42.87021" lon="0.13728">
        <ele>2353</ele>
        <time>2017-02-25T10:18:38Z</time>
      </trkpt>
      <trkpt lat="42.87027" lon="0.13729">
        <ele>2353</ele>
        <time>2017-02-25T10:18:40Z</time>
      </trkpt>
      <trkpt lat="42.87033" lon="0.13733">
        <ele>2353</ele>
        <time>2017-02-25T10:18:42Z</time>
      </trkpt>
      <trkpt lat="42.87037" lon="0.13733">
        <ele>2353</ele>
        <time>2017-02-25T10:18:43Z</time>
      </trkpt>
      <trkpt lat="42.87044" lon="0.1373">
        <ele>2352</ele>
        <time>2017-02-25T10:18:45Z</time>
      </trkpt>
      <trkpt lat="42.87047" lon="0.1373">
        <ele>2350</ele>
        <time>2017-02-25T10:18:46Z</time>
      </trkpt>
      <trkpt lat="42.87053" lon="0.13729">
        <ele>2348</ele>
        <time>2017-02-25T10:18:48Z</time>
      </trkpt>
      <trkpt lat="42.87056" lon="0.13731">
        <ele>2347</ele>
        <time>2017-02-25T10:18:49Z</time>
      </trkpt>
      <trkpt lat="42.87058" lon="0.13734">
        <ele>2346</ele>
        <time>2017-02-25T10:18:50Z</time>
      </trkpt>
      <trkpt lat="42.87061" lon="0.13738">
        <ele>2345</ele>
        <time>2017-02-25T10:18:51Z</time>
      </trkpt>
      <trkpt lat="42.87065" lon="0.13743">
        <ele>2344</ele>
        <time>2017-02-25T10:18:52Z</time>
      </trkpt>
      <trkpt lat="42.87101" lon="0.13764">
        <ele>2333</ele>
        <time>2017-02-25T10:18:56Z</time>
      </trkpt>
      <trkpt lat="42.8711" lon="0.13771">
        <ele>2331</ele>
        <time>2017-02-25T10:18:57Z</time>
      </trkpt>
      <trkpt lat="42.87126" lon="0.13783">
        <ele>2328</ele>
        <time>2017-02-25T10:18:59Z</time>
      </trkpt>
      <trkpt lat="42.87136" lon="0.13795">
        <ele>2325</ele>
        <time>2017-02-25T10:19:01Z</time>
      </trkpt>
      <trkpt lat="42.87142" lon="0.13798">
        <ele>2325</ele>
        <time>2017-02-25T10:19:02Z</time>
      </trkpt>
      <trkpt lat="42.87164" lon="0.13806">
        <ele>2323</ele>
        <time>2017-02-25T10:19:05Z</time>
      </trkpt>
      <trkpt lat="42.87186" lon="0.13809">
        <ele>2319</ele>
        <time>2017-02-25T10:19:08Z</time>
      </trkpt>
      <trkpt lat="42.87189" lon="0.13814">
        <ele>2318</ele>
        <time>2017-02-25T10:19:09Z</time>
      </trkpt>
      <trkpt lat="42.8719" lon="0.13818">
        <ele>2318</ele>
        <time>2017-02-25T10:19:10Z</time>
      </trkpt>
      <trkpt lat="42.87193" lon="0.1382">
        <ele>2318</ele>
        <time>2017-02-25T10:19:11Z</time>
      </trkpt>
      <trkpt lat="42.87197" lon="0.13822">
        <ele>2317</ele>
        <time>2017-02-25T10:19:12Z</time>
      </trkpt>
      <trkpt lat="42.872" lon="0.13825">
        <ele>2314</ele>
        <time>2017-02-25T10:19:13Z</time>
      </trkpt>
      <trkpt lat="42.87204" lon="0.13828">
        <ele>2313</ele>
        <time>2017-02-25T10:19:14Z</time>
      </trkpt>
      <trkpt lat="42.87207" lon="0.13834">
        <ele>2311</ele>
        <time>2017-02-25T10:19:15Z</time>
      </trkpt>
      <trkpt lat="42.87209" lon="0.1384">
        <ele>2309</ele>
        <time>2017-02-25T10:19:16Z</time>
      </trkpt>
      <trkpt lat="42.87212" lon="0.13845">
        <ele>2307</ele>
        <time>2017-02-25T10:19:17Z</time>
      </trkpt>
      <trkpt lat="42.87216" lon="0.1385">
        <ele>2305</ele>
        <time>2017-02-25T10:19:18Z</time>
      </trkpt>
      <trkpt lat="42.87223" lon="0.13864">
        <ele>2301</ele>
        <time>2017-02-25T10:19:20Z</time>
      </trkpt>
      <trkpt lat="42.87227" lon="0.13868">
        <ele>2300</ele>
        <time>2017-02-25T10:19:21Z</time>
      </trkpt>
      <trkpt lat="42.8723" lon="0.13873">
        <ele>2299</ele>
        <time>2017-02-25T10:19:22Z</time>
      </trkpt>
      <trkpt lat="42.87232" lon="0.13878">
        <ele>2298</ele>
        <time>2017-02-25T10:19:23Z</time>
      </trkpt>
      <trkpt lat="42.87235" lon="0.13881">
        <ele>2297</ele>
        <time>2017-02-25T10:19:24Z</time>
      </trkpt>
      <trkpt lat="42.87241" lon="0.13884">
        <ele>2295</ele>
        <time>2017-02-25T10:19:25Z</time>
      </trkpt>
      <trkpt lat="42.87249" lon="0.1389">
        <ele>2292</ele>
        <time>2017-02-25T10:19:27Z</time>
      </trkpt>
      <trkpt lat="42.87254" lon="0.13889">
        <ele>2291</ele>
        <time>2017-02-25T10:19:28Z</time>
      </trkpt>
      <trkpt lat="42.87262" lon="0.1389">
        <ele>2286</ele>
        <time>2017-02-25T10:19:30Z</time>
      </trkpt>
      <trkpt lat="42.87266" lon="0.13887">
        <ele>2285</ele>
        <time>2017-02-25T10:19:31Z</time>
      </trkpt>
      <trkpt lat="42.87271" lon="0.13886">
        <ele>2283</ele>
        <time>2017-02-25T10:19:32Z</time>
      </trkpt>
      <trkpt lat="42.87283" lon="0.13881">
        <ele>2279</ele>
        <time>2017-02-25T10:19:34Z</time>
      </trkpt>
      <trkpt lat="42.87288" lon="0.13883">
        <ele>2277</ele>
        <time>2017-02-25T10:19:35Z</time>
      </trkpt>
      <trkpt lat="42.8729" lon="0.13883">
        <ele>2275</ele>
        <time>2017-02-25T10:19:36Z</time>
      </trkpt>
      <trkpt lat="42.87291" lon="0.13881">
        <ele>2274</ele>
        <time>2017-02-25T10:19:37Z</time>
      </trkpt>
      <trkpt lat="42.87294" lon="0.13882">
        <ele>2274</ele>
        <time>2017-02-25T10:19:38Z</time>
      </trkpt>
      <trkpt lat="42.87297" lon="0.13885">
        <ele>2273</ele>
        <time>2017-02-25T10:19:39Z</time>
      </trkpt>
      <trkpt lat="42.873" lon="0.13892">
        <ele>2273</ele>
        <time>2017-02-25T10:19:40Z</time>
      </trkpt>
      <trkpt lat="42.87307" lon="0.13901">
        <ele>2267</ele>
        <time>2017-02-25T10:19:42Z</time>
      </trkpt>
      <trkpt lat="42.87312" lon="0.13902">
        <ele>2265</ele>
        <time>2017-02-25T10:19:43Z</time>
      </trkpt>
      <trkpt lat="42.87316" lon="0.13904">
        <ele>2263</ele>
        <time>2017-02-25T10:19:44Z</time>
      </trkpt>
      <trkpt lat="42.87319" lon="0.13908">
        <ele>2262</ele>
        <time>2017-02-25T10:19:45Z</time>
      </trkpt>
      <trkpt lat="42.87321" lon="0.13907">
        <ele>2260</ele>
        <time>2017-02-25T10:19:47Z</time>
      </trkpt>
      <trkpt lat="42.87323" lon="0.13906">
        <ele>2259</ele>
        <time>2017-02-25T10:19:48Z</time>
      </trkpt>
      <trkpt lat="42.87326" lon="0.13906">
        <ele>2259</ele>
        <time>2017-02-25T10:19:49Z</time>
      </trkpt>
      <trkpt lat="42.87335" lon="0.13904">
        <ele>2257</ele>
        <time>2017-02-25T10:19:51Z</time>
      </trkpt>
      <trkpt lat="42.87341" lon="0.13901">
        <ele>2256</ele>
        <time>2017-02-25T10:19:52Z</time>
      </trkpt>
      <trkpt lat="42.87346" lon="0.13897">
        <ele>2255</ele>
        <time>2017-02-25T10:19:53Z</time>
      </trkpt>
      <trkpt lat="42.87357" lon="0.13885">
        <ele>2251</ele>
        <time>2017-02-25T10:19:55Z</time>
      </trkpt>
      <trkpt lat="42.87368" lon="0.13874">
        <ele>2246</ele>
        <time>2017-02-25T10:19:57Z</time>
      </trkpt>
      <trkpt lat="42.87374" lon="0.13867">
        <ele>2245</ele>
        <time>2017-02-25T10:19:58Z</time>
      </trkpt>
      <trkpt lat="42.87391" lon="0.13868">
        <ele>2237</ele>
        <time>2017-02-25T10:20:01Z</time>
      </trkpt>
      <trkpt lat="42.87403" lon="0.13875">
        <ele>2237</ele>
        <time>2017-02-25T10:20:03Z</time>
      </trkpt>
      <trkpt lat="42.87413" lon="0.13873">
        <ele>2236</ele>
        <time>2017-02-25T10:20:04Z</time>
      </trkpt>
      <trkpt lat="42.87413" lon="0.13892">
        <ele>2233</ele>
        <time>2017-02-25T10:20:09Z</time>
      </trkpt>
      <trkpt lat="42.87413" lon="0.13897">
        <ele>2233</ele>
        <time>2017-02-25T10:20:10Z</time>
      </trkpt>
      <trkpt lat="42.87409" lon="0.13912">
        <ele>2233</ele>
        <time>2017-02-25T10:20:12Z</time>
      </trkpt>
      <trkpt lat="42.87397" lon="0.13936">
        <ele>2230</ele>
        <time>2017-02-25T10:20:15Z</time>
      </trkpt>
      <trkpt lat="42.87393" lon="0.1395">
        <ele>2228</ele>
        <time>2017-02-25T10:20:17Z</time>
      </trkpt>
      <trkpt lat="42.87396" lon="0.13952">
        <ele>2228</ele>
        <time>2017-02-25T10:20:18Z</time>
      </trkpt>
      <trkpt lat="42.87414" lon="0.13936">
        <ele>2222</ele>
        <time>2017-02-25T10:20:21Z</time>
      </trkpt>
      <trkpt lat="42.87421" lon="0.13929">
        <ele>2220</ele>
        <time>2017-02-25T10:20:22Z</time>
      </trkpt>
      <trkpt lat="42.87429" lon="0.13925">
        <ele>2219</ele>
        <time>2017-02-25T10:20:23Z</time>
      </trkpt>
      <trkpt lat="42.87437" lon="0.13921">
        <ele>2217</ele>
        <time>2017-02-25T10:20:24Z</time>
      </trkpt>
      <trkpt lat="42.87446" lon="0.1392">
        <ele>2215</ele>
        <time>2017-02-25T10:20:25Z</time>
      </trkpt>
      <trkpt lat="42.87463" lon="0.13919">
        <ele>2213</ele>
        <time>2017-02-25T10:20:27Z</time>
      </trkpt>
      <trkpt lat="42.87509" lon="0.13924">
        <ele>2206</ele>
        <time>2017-02-25T10:20:35Z</time>
      </trkpt>
      <trkpt lat="42.87512" lon="0.13924">
        <ele>2206</ele>
        <time>2017-02-25T10:20:36Z</time>
      </trkpt>
      <trkpt lat="42.87515" lon="0.13923">
        <ele>2206</ele>
        <time>2017-02-25T10:20:37Z</time>
      </trkpt>
      <trkpt lat="42.87518" lon="0.13922">
        <ele>2205</ele>
        <time>2017-02-25T10:20:38Z</time>
      </trkpt>
      <trkpt lat="42.87521" lon="0.1392">
        <ele>2205</ele>
        <time>2017-02-25T10:20:39Z</time>
      </trkpt>
      <trkpt lat="42.87524" lon="0.13918">
        <ele>2204</ele>
        <time>2017-02-25T10:20:40Z</time>
      </trkpt>
      <trkpt lat="42.87526" lon="0.13916">
        <ele>2204</ele>
        <time>2017-02-25T10:20:41Z</time>
      </trkpt>
      <trkpt lat="42.87532" lon="0.13909">
        <ele>2201</ele>
        <time>2017-02-25T10:20:44Z</time>
      </trkpt>
      <trkpt lat="42.87548" lon="0.13894">
        <ele>2196</ele>
        <time>2017-02-25T10:20:50Z</time>
      </trkpt>
      <trkpt lat="42.8755" lon="0.13892">
        <ele>2194</ele>
        <time>2017-02-25T10:20:52Z</time>
      </trkpt>
      <trkpt lat="42.87555" lon="0.13889">
        <ele>2193</ele>
        <time>2017-02-25T10:20:54Z</time>
      </trkpt>
      <trkpt lat="42.87558" lon="0.13887">
        <ele>2191</ele>
        <time>2017-02-25T10:20:55Z</time>
      </trkpt>
      <trkpt lat="42.87561" lon="0.13886">
        <ele>2191</ele>
        <time>2017-02-25T10:20:56Z</time>
      </trkpt>
      <trkpt lat="42.87563" lon="0.13885">
        <ele>2189</ele>
        <time>2017-02-25T10:20:57Z</time>
      </trkpt>
      <trkpt lat="42.87573" lon="0.13877">
        <ele>2183</ele>
        <time>2017-02-25T10:21:02Z</time>
      </trkpt>
      <trkpt lat="42.87574" lon="0.13876">
        <ele>2182</ele>
        <time>2017-02-25T10:21:03Z</time>
      </trkpt>
      <trkpt lat="42.87576" lon="0.13874">
        <ele>2181</ele>
        <time>2017-02-25T10:21:04Z</time>
      </trkpt>
      <trkpt lat="42.87587" lon="0.13856">
        <ele>2178</ele>
        <time>2017-02-25T10:21:09Z</time>
      </trkpt>
      <trkpt lat="42.87596" lon="0.13835">
        <ele>2175</ele>
        <time>2017-02-25T10:21:13Z</time>
      </trkpt>
      <trkpt lat="42.87602" lon="0.13827">
        <ele>2174</ele>
        <time>2017-02-25T10:21:15Z</time>
      </trkpt>
      <trkpt lat="42.87605" lon="0.13824">
        <ele>2174</ele>
        <time>2017-02-25T10:21:16Z</time>
      </trkpt>
      <trkpt lat="42.87608" lon="0.13822">
        <ele>2173</ele>
        <time>2017-02-25T10:21:17Z</time>
      </trkpt>
      <trkpt lat="42.87611" lon="0.13821">
        <ele>2172</ele>
        <time>2017-02-25T10:21:18Z</time>
      </trkpt>
      <trkpt lat="42.87614" lon="0.1382">
        <ele>2171</ele>
        <time>2017-02-25T10:21:19Z</time>
      </trkpt>
      <trkpt lat="42.87619" lon="0.13822">
        <ele>2171</ele>
        <time>2017-02-25T10:21:29Z</time>
      </trkpt>
      <trkpt lat="42.8762" lon="0.13826">
        <ele>2169</ele>
        <time>2017-02-25T10:21:30Z</time>
      </trkpt>
      <trkpt lat="42.87622" lon="0.1383">
        <ele>2167</ele>
        <time>2017-02-25T10:21:31Z</time>
      </trkpt>
      <trkpt lat="42.87628" lon="0.13832">
        <ele>2164</ele>
        <time>2017-02-25T10:21:32Z</time>
      </trkpt>
      <trkpt lat="42.87632" lon="0.13835">
        <ele>2161</ele>
        <time>2017-02-25T10:21:33Z</time>
      </trkpt>
      <trkpt lat="42.87636" lon="0.13845">
        <ele>2155</ele>
        <time>2017-02-25T10:21:35Z</time>
      </trkpt>
      <trkpt lat="42.8764" lon="0.13849">
        <ele>2153</ele>
        <time>2017-02-25T10:21:36Z</time>
      </trkpt>
      <trkpt lat="42.87642" lon="0.13854">
        <ele>2150</ele>
        <time>2017-02-25T10:21:37Z</time>
      </trkpt>
      <trkpt lat="42.87643" lon="0.1388">
        <ele>2138</ele>
        <time>2017-02-25T10:21:42Z</time>
      </trkpt>
      <trkpt lat="42.87648" lon="0.13892">
        <ele>2132</ele>
        <time>2017-02-25T10:21:44Z</time>
      </trkpt>
      <trkpt lat="42.87649" lon="0.13891">
        <ele>2129</ele>
        <time>2017-02-25T10:21:45Z</time>
      </trkpt>
      <trkpt lat="42.87656" lon="0.13884">
        <ele>2126</ele>
        <time>2017-02-25T10:21:49Z</time>
      </trkpt>
      <trkpt lat="42.87662" lon="0.13896">
        <ele>2124</ele>
        <time>2017-02-25T10:21:57Z</time>
      </trkpt>
      <trkpt lat="42.8768" lon="0.13918">
        <ele>2113</ele>
        <time>2017-02-25T10:22:03Z</time>
      </trkpt>
      <trkpt lat="42.87686" lon="0.13927">
        <ele>2111</ele>
        <time>2017-02-25T10:22:04Z</time>
      </trkpt>
      <trkpt lat="42.87685" lon="0.13941">
        <ele>2106</ele>
        <time>2017-02-25T10:22:06Z</time>
      </trkpt>
      <trkpt lat="42.87683" lon="0.13943">
        <ele>2101</ele>
        <time>2017-02-25T10:22:10Z</time>
      </trkpt>
      <trkpt lat="42.87683" lon="0.13943">
        <ele>2100</ele>
        <time>2017-02-25T10:22:11Z</time>
      </trkpt>
      <trkpt lat="42.87682" lon="0.13943">
        <ele>2100</ele>
        <time>2017-02-25T10:22:12Z</time>
      </trkpt>
      <trkpt lat="42.87681" lon="0.13945">
        <ele>2098</ele>
        <time>2017-02-25T10:22:16Z</time>
      </trkpt>
      <trkpt lat="42.87685" lon="0.13944">
        <ele>2098</ele>
        <time>2017-02-25T10:22:18Z</time>
      </trkpt>
      <trkpt lat="42.87688" lon="0.13934">
        <ele>2096</ele>
        <time>2017-02-25T10:22:20Z</time>
      </trkpt>
      <trkpt lat="42.8769" lon="0.13929">
        <ele>2095</ele>
        <time>2017-02-25T10:22:21Z</time>
      </trkpt>
      <trkpt lat="42.87693" lon="0.13927">
        <ele>2094</ele>
        <time>2017-02-25T10:22:22Z</time>
      </trkpt>
      <trkpt lat="42.87697" lon="0.13928">
        <ele>2093</ele>
        <time>2017-02-25T10:22:23Z</time>
      </trkpt>
      <trkpt lat="42.877" lon="0.13932">
        <ele>2092</ele>
        <time>2017-02-25T10:22:24Z</time>
      </trkpt>
      <trkpt lat="42.87703" lon="0.13935">
        <ele>2091</ele>
        <time>2017-02-25T10:22:25Z</time>
      </trkpt>
      <trkpt lat="42.87711" lon="0.13932">
        <ele>2088</ele>
        <time>2017-02-25T10:22:27Z</time>
      </trkpt>
      <trkpt lat="42.87714" lon="0.13933">
        <ele>2086</ele>
        <time>2017-02-25T10:22:28Z</time>
      </trkpt>
      <trkpt lat="42.87722" lon="0.13932">
        <ele>2081</ele>
        <time>2017-02-25T10:22:30Z</time>
      </trkpt>
      <trkpt lat="42.87727" lon="0.13936">
        <ele>2079</ele>
        <time>2017-02-25T10:22:31Z</time>
      </trkpt>
      <trkpt lat="42.8773" lon="0.13944">
        <ele>2078</ele>
        <time>2017-02-25T10:22:32Z</time>
      </trkpt>
      <trkpt lat="42.87733" lon="0.13948">
        <ele>2077</ele>
        <time>2017-02-25T10:22:33Z</time>
      </trkpt>
      <trkpt lat="42.87735" lon="0.13947">
        <ele>2076</ele>
        <time>2017-02-25T10:22:34Z</time>
      </trkpt>
      <trkpt lat="42.8774" lon="0.13945">
        <ele>2075</ele>
        <time>2017-02-25T10:22:35Z</time>
      </trkpt>
      <trkpt lat="42.87744" lon="0.13947">
        <ele>2074</ele>
        <time>2017-02-25T10:22:36Z</time>
      </trkpt>
      <trkpt lat="42.87748" lon="0.13953">
        <ele>2072</ele>
        <time>2017-02-25T10:22:37Z</time>
      </trkpt>
      <trkpt lat="42.87751" lon="0.13961">
        <ele>2071</ele>
        <time>2017-02-25T10:22:38Z</time>
      </trkpt>
      <trkpt lat="42.87756" lon="0.13971">
        <ele>2069</ele>
        <time>2017-02-25T10:22:40Z</time>
      </trkpt>
      <trkpt lat="42.87758" lon="0.13974">
        <ele>2068</ele>
        <time>2017-02-25T10:22:41Z</time>
      </trkpt>
      <trkpt lat="42.87762" lon="0.13976">
        <ele>2067</ele>
        <time>2017-02-25T10:22:43Z</time>
      </trkpt>
      <trkpt lat="42.87765" lon="0.1397">
        <ele>2068</ele>
        <time>2017-02-25T10:22:46Z</time>
      </trkpt>
      <trkpt lat="42.87765" lon="0.13965">
        <ele>2067</ele>
        <time>2017-02-25T10:22:47Z</time>
      </trkpt>
      <trkpt lat="42.87766" lon="0.13958">
        <ele>2065</ele>
        <time>2017-02-25T10:22:48Z</time>
      </trkpt>
      <trkpt lat="42.87781" lon="0.13939">
        <ele>2060</ele>
        <time>2017-02-25T10:22:51Z</time>
      </trkpt>
      <trkpt lat="42.87794" lon="0.13931">
        <ele>2059</ele>
        <time>2017-02-25T10:22:53Z</time>
      </trkpt>
      <trkpt lat="42.87796" lon="0.13928">
        <ele>2058</ele>
        <time>2017-02-25T10:22:54Z</time>
      </trkpt>
      <trkpt lat="42.87797" lon="0.13924">
        <ele>2057</ele>
        <time>2017-02-25T10:22:56Z</time>
      </trkpt>
      <trkpt lat="42.87794" lon="0.13922">
        <ele>2057</ele>
        <time>2017-02-25T10:23:02Z</time>
      </trkpt>
      <trkpt lat="42.87792" lon="0.1392">
        <ele>2057</ele>
        <time>2017-02-25T10:23:05Z</time>
      </trkpt>
      <trkpt lat="42.87796" lon="0.13919">
        <ele>2057</ele>
        <time>2017-02-25T10:23:11Z</time>
      </trkpt>
      <trkpt lat="42.87812" lon="0.13924">
        <ele>2053</ele>
        <time>2017-02-25T10:23:14Z</time>
      </trkpt>
      <trkpt lat="42.87844" lon="0.13922">
        <ele>2046</ele>
        <time>2017-02-25T10:23:18Z</time>
      </trkpt>
      <trkpt lat="42.87878" lon="0.13912">
        <ele>2039</ele>
        <time>2017-02-25T10:23:24Z</time>
      </trkpt>
      <trkpt lat="42.87888" lon="0.13913">
        <ele>2038</ele>
        <time>2017-02-25T10:23:25Z</time>
      </trkpt>
      <trkpt lat="42.87897" lon="0.13917">
        <ele>2037</ele>
        <time>2017-02-25T10:23:28Z</time>
      </trkpt>
      <trkpt lat="42.87895" lon="0.13925">
        <ele>2037</ele>
        <time>2017-02-25T10:23:29Z</time>
      </trkpt>
      <trkpt lat="42.87894" lon="0.13931">
        <ele>2035</ele>
        <time>2017-02-25T10:23:30Z</time>
      </trkpt>
      <trkpt lat="42.87892" lon="0.13936">
        <ele>2035</ele>
        <time>2017-02-25T10:23:31Z</time>
      </trkpt>
      <trkpt lat="42.87899" lon="0.13928">
        <ele>2029</ele>
        <time>2017-02-25T10:23:33Z</time>
      </trkpt>
      <trkpt lat="42.87904" lon="0.1393">
        <ele>2027</ele>
        <time>2017-02-25T10:23:34Z</time>
      </trkpt>
      <trkpt lat="42.87917" lon="0.13925">
        <ele>2020</ele>
        <time>2017-02-25T10:23:39Z</time>
      </trkpt>
      <trkpt lat="42.87918" lon="0.13927">
        <ele>2018</ele>
        <time>2017-02-25T10:23:40Z</time>
      </trkpt>
      <trkpt lat="42.8792" lon="0.13927">
        <ele>2017</ele>
        <time>2017-02-25T10:23:41Z</time>
      </trkpt>
      <trkpt lat="42.87933" lon="0.1391">
        <ele>2013</ele>
        <time>2017-02-25T10:23:44Z</time>
      </trkpt>
      <trkpt lat="42.87938" lon="0.13895">
        <ele>2011</ele>
        <time>2017-02-25T10:23:46Z</time>
      </trkpt>
      <trkpt lat="42.8794" lon="0.13877">
        <ele>2010</ele>
        <time>2017-02-25T10:23:48Z</time>
      </trkpt>
      <trkpt lat="42.87942" lon="0.13846">
        <ele>2007</ele>
        <time>2017-02-25T10:23:51Z</time>
      </trkpt>
      <trkpt lat="42.8795" lon="0.13804">
        <ele>2005</ele>
        <time>2017-02-25T10:23:55Z</time>
      </trkpt>
      <trkpt lat="42.87957" lon="0.13786">
        <ele>2002</ele>
        <time>2017-02-25T10:23:57Z</time>
      </trkpt>
      <trkpt lat="42.87967" lon="0.13736">
        <ele>1999</ele>
        <time>2017-02-25T10:24:02Z</time>
      </trkpt>
      <trkpt lat="42.8797" lon="0.13728">
        <ele>1998</ele>
        <time>2017-02-25T10:24:03Z</time>
      </trkpt>
      <trkpt lat="42.87983" lon="0.13707">
        <ele>1997</ele>
        <time>2017-02-25T10:24:06Z</time>
      </trkpt>
      <trkpt lat="42.87985" lon="0.13698">
        <ele>1996</ele>
        <time>2017-02-25T10:24:07Z</time>
      </trkpt>
      <trkpt lat="42.87986" lon="0.13687">
        <ele>1995</ele>
        <time>2017-02-25T10:24:08Z</time>
      </trkpt>
      <trkpt lat="42.87988" lon="0.13677">
        <ele>1993</ele>
        <time>2017-02-25T10:24:09Z</time>
      </trkpt>
      <trkpt lat="42.87998" lon="0.1366">
        <ele>1990</ele>
        <time>2017-02-25T10:24:11Z</time>
      </trkpt>
      <trkpt lat="42.88001" lon="0.13652">
        <ele>1990</ele>
        <time>2017-02-25T10:24:12Z</time>
      </trkpt>
      <trkpt lat="42.88003" lon="0.13644">
        <ele>1989</ele>
        <time>2017-02-25T10:24:13Z</time>
      </trkpt>
      <trkpt lat="42.88006" lon="0.13638">
        <ele>1987</ele>
        <time>2017-02-25T10:24:14Z</time>
      </trkpt>
      <trkpt lat="42.88014" lon="0.13625">
        <ele>1983</ele>
        <time>2017-02-25T10:24:17Z</time>
      </trkpt>
      <trkpt lat="42.88034" lon="0.13583">
        <ele>1976</ele>
        <time>2017-02-25T10:24:20Z</time>
      </trkpt>
      <trkpt lat="42.88039" lon="0.1356">
        <ele>1974</ele>
        <time>2017-02-25T10:24:23Z</time>
      </trkpt>
      <trkpt lat="42.88055" lon="0.13533">
        <ele>1971</ele>
        <time>2017-02-25T10:24:27Z</time>
      </trkpt>
      <trkpt lat="42.88056" lon="0.13517">
        <ele>1970</ele>
        <time>2017-02-25T10:24:29Z</time>
      </trkpt>
      <trkpt lat="42.88058" lon="0.13505">
        <ele>1969</ele>
        <time>2017-02-25T10:24:30Z</time>
      </trkpt>
      <trkpt lat="42.88065" lon="0.13419">
        <ele>1962</ele>
        <time>2017-02-25T10:24:39Z</time>
      </trkpt>
      <trkpt lat="42.88075" lon="0.13373">
        <ele>1953</ele>
        <time>2017-02-25T10:24:42Z</time>
      </trkpt>
      <trkpt lat="42.8808" lon="0.13356">
        <ele>1951</ele>
        <time>2017-02-25T10:24:43Z</time>
      </trkpt>
      <trkpt lat="42.88095" lon="0.13347">
        <ele>1949</ele>
        <time>2017-02-25T10:24:46Z</time>
      </trkpt>
      <trkpt lat="42.8811" lon="0.13288">
        <ele>1945</ele>
        <time>2017-02-25T10:24:50Z</time>
      </trkpt>
      <trkpt lat="42.88113" lon="0.13229">
        <ele>1941</ele>
        <time>2017-02-25T10:24:57Z</time>
      </trkpt>
      <trkpt lat="42.88114" lon="0.13199">
        <ele>1941</ele>
        <time>2017-02-25T10:25:03Z</time>
      </trkpt>
      <trkpt lat="42.88117" lon="0.13183">
        <ele>1941</ele>
        <time>2017-02-25T10:25:09Z</time>
      </trkpt>
      <trkpt lat="42.88116" lon="0.13112">
        <ele>1937</ele>
        <time>2017-02-25T10:25:22Z</time>
      </trkpt>
      <trkpt lat="42.88116" lon="0.13106">
        <ele>1937</ele>
        <time>2017-02-25T10:25:23Z</time>
      </trkpt>
      <trkpt lat="42.88148" lon="0.12995">
        <ele>1930</ele>
        <time>2017-02-25T10:25:42Z</time>
      </trkpt>
      <trkpt lat="42.88155" lon="0.12936">
        <ele>1929</ele>
        <time>2017-02-25T10:26:01Z</time>
      </trkpt>
      <trkpt lat="42.88158" lon="0.12921">
        <ele>1928</ele>
        <time>2017-02-25T10:26:05Z</time>
      </trkpt>
      <trkpt lat="42.88159" lon="0.12908">
        <ele>1928</ele>
        <time>2017-02-25T10:26:08Z</time>
      </trkpt>
      <trkpt lat="42.88159" lon="0.12894">
        <ele>1928</ele>
        <time>2017-02-25T10:26:11Z</time>
      </trkpt>
      <trkpt lat="42.88168" lon="0.12738">
        <ele>1919</ele>
        <time>2017-02-25T10:26:40Z</time>
      </trkpt>
      <trkpt lat="42.88167" lon="0.12715">
        <ele>1919</ele>
        <time>2017-02-25T10:26:47Z</time>
      </trkpt>
      <trkpt lat="42.88168" lon="0.1271">
        <ele>1918</ele>
        <time>2017-02-25T10:26:49Z</time>
      </trkpt>
      <trkpt lat="42.88168" lon="0.12687">
        <ele>1918</ele>
        <time>2017-02-25T10:26:53Z</time>
      </trkpt>
      <trkpt lat="42.88156" lon="0.12589">
        <ele>1913</ele>
        <time>2017-02-25T10:27:09Z</time>
      </trkpt>
      <trkpt lat="42.88156" lon="0.12544">
        <ele>1911</ele>
        <time>2017-02-25T10:27:19Z</time>
      </trkpt>
      <trkpt lat="42.88153" lon="0.12517">
        <ele>1911</ele>
        <time>2017-02-25T10:27:26Z</time>
      </trkpt>
      <trkpt lat="42.88148" lon="0.12496">
        <ele>1909</ele>
        <time>2017-02-25T10:27:30Z</time>
      </trkpt>
      <trkpt lat="42.88146" lon="0.12464">
        <ele>1908</ele>
        <time>2017-02-25T10:27:37Z</time>
      </trkpt>
      <trkpt lat="42.8816" lon="0.12367">
        <ele>1903</ele>
        <time>2017-02-25T10:28:02Z</time>
      </trkpt>
      <trkpt lat="42.8817" lon="0.12324">
        <ele>1901</ele>
        <time>2017-02-25T10:28:11Z</time>
      </trkpt>
      <trkpt lat="42.88172" lon="0.12305">
        <ele>1901</ele>
        <time>2017-02-25T10:28:15Z</time>
      </trkpt>
      <trkpt lat="42.88182" lon="0.12268">
        <ele>1900</ele>
        <time>2017-02-25T10:28:25Z</time>
      </trkpt>
      <trkpt lat="42.88192" lon="0.1225">
        <ele>1898</ele>
        <time>2017-02-25T10:28:29Z</time>
      </trkpt>
      <trkpt lat="42.88203" lon="0.12236">
        <ele>1897</ele>
        <time>2017-02-25T10:28:33Z</time>
      </trkpt>
      <trkpt lat="42.88207" lon="0.12232">
        <ele>1897</ele>
        <time>2017-02-25T10:28:35Z</time>
      </trkpt>
      <trkpt lat="42.88229" lon="0.12201">
        <ele>1895</ele>
        <time>2017-02-25T10:28:44Z</time>
      </trkpt>
      <trkpt lat="42.88234" lon="0.12189">
        <ele>1895</ele>
        <time>2017-02-25T10:28:47Z</time>
      </trkpt>
      <trkpt lat="42.88235" lon="0.12185">
        <ele>1895</ele>
        <time>2017-02-25T10:28:48Z</time>
      </trkpt>
      <trkpt lat="42.8824" lon="0.12113">
        <ele>1892</ele>
        <time>2017-02-25T10:29:00Z</time>
      </trkpt>
      <trkpt lat="42.88239" lon="0.12105">
        <ele>1892</ele>
        <time>2017-02-25T10:29:01Z</time>
      </trkpt>
      <trkpt lat="42.88232" lon="0.12085">
        <ele>1891</ele>
        <time>2017-02-25T10:29:03Z</time>
      </trkpt>
      <trkpt lat="42.8822" lon="0.12066">
        <ele>1888</ele>
        <time>2017-02-25T10:29:05Z</time>
      </trkpt>
      <trkpt lat="42.88197" lon="0.12035">
        <ele>1882</ele>
        <time>2017-02-25T10:29:09Z</time>
      </trkpt>
      <trkpt lat="42.88192" lon="0.12028">
        <ele>1882</ele>
        <time>2017-02-25T10:29:10Z</time>
      </trkpt>
      <trkpt lat="42.88189" lon="0.12019">
        <ele>1880</ele>
        <time>2017-02-25T10:29:11Z</time>
      </trkpt>
      <trkpt lat="42.88187" lon="0.12008">
        <ele>1879</ele>
        <time>2017-02-25T10:29:12Z</time>
      </trkpt>
      <trkpt lat="42.88188" lon="0.11995">
        <ele>1877</ele>
        <time>2017-02-25T10:29:13Z</time>
      </trkpt>
      <trkpt lat="42.88198" lon="0.11953">
        <ele>1871</ele>
        <time>2017-02-25T10:29:17Z</time>
      </trkpt>
      <trkpt lat="42.88199" lon="0.11927">
        <ele>1869</ele>
        <time>2017-02-25T10:29:22Z</time>
      </trkpt>
      <trkpt lat="42.88199" lon="0.11915">
        <ele>1867</ele>
        <time>2017-02-25T10:29:24Z</time>
      </trkpt>
      <trkpt lat="42.88201" lon="0.11904">
        <ele>1865</ele>
        <time>2017-02-25T10:29:26Z</time>
      </trkpt>
      <trkpt lat="42.88205" lon="0.11895">
        <ele>1862</ele>
        <time>2017-02-25T10:29:28Z</time>
      </trkpt>
      <trkpt lat="42.88209" lon="0.1188">
        <ele>1858</ele>
        <time>2017-02-25T10:29:31Z</time>
      </trkpt>
      <trkpt lat="42.8821" lon="0.11875">
        <ele>1857</ele>
        <time>2017-02-25T10:29:32Z</time>
      </trkpt>
      <trkpt lat="42.88212" lon="0.1187">
        <ele>1856</ele>
        <time>2017-02-25T10:29:33Z</time>
      </trkpt>
      <trkpt lat="42.88215" lon="0.11867">
        <ele>1854</ele>
        <time>2017-02-25T10:29:34Z</time>
      </trkpt>
      <trkpt lat="42.88218" lon="0.11866">
        <ele>1852</ele>
        <time>2017-02-25T10:29:35Z</time>
      </trkpt>
      <trkpt lat="42.88223" lon="0.11861">
        <ele>1850</ele>
        <time>2017-02-25T10:29:36Z</time>
      </trkpt>
      <trkpt lat="42.88227" lon="0.11854">
        <ele>1848</ele>
        <time>2017-02-25T10:29:37Z</time>
      </trkpt>
      <trkpt lat="42.88228" lon="0.11837">
        <ele>1845</ele>
        <time>2017-02-25T10:29:39Z</time>
      </trkpt>
      <trkpt lat="42.88227" lon="0.11829">
        <ele>1844</ele>
        <time>2017-02-25T10:29:40Z</time>
      </trkpt>
      <trkpt lat="42.88228" lon="0.11815">
        <ele>1837</ele>
        <time>2017-02-25T10:29:43Z</time>
      </trkpt>
      <trkpt lat="42.88228" lon="0.11799">
        <ele>1834</ele>
        <time>2017-02-25T10:29:45Z</time>
      </trkpt>
      <trkpt lat="42.88231" lon="0.11773">
        <ele>1831</ele>
        <time>2017-02-25T10:29:48Z</time>
      </trkpt>
      <trkpt lat="42.8823" lon="0.11766">
        <ele>1829</ele>
        <time>2017-02-25T10:29:49Z</time>
      </trkpt>
      <trkpt lat="42.88237" lon="0.11756">
        <ele>1825</ele>
        <time>2017-02-25T10:29:51Z</time>
      </trkpt>
      <trkpt lat="42.88234" lon="0.11732">
        <ele>1821</ele>
        <time>2017-02-25T10:29:54Z</time>
      </trkpt>
      <trkpt lat="42.88239" lon="0.11678">
        <ele>1813</ele>
        <time>2017-02-25T10:30:00Z</time>
      </trkpt>
      <trkpt lat="42.88243" lon="0.11662">
        <ele>1811</ele>
        <time>2017-02-25T10:30:02Z</time>
      </trkpt>
      <trkpt lat="42.88245" lon="0.11655">
        <ele>1809</ele>
        <time>2017-02-25T10:30:03Z</time>
      </trkpt>
      <trkpt lat="42.88249" lon="0.1165">
        <ele>1809</ele>
        <time>2017-02-25T10:30:04Z</time>
      </trkpt>
      <trkpt lat="42.88254" lon="0.11645">
        <ele>1808</ele>
        <time>2017-02-25T10:30:05Z</time>
      </trkpt>
      <trkpt lat="42.88259" lon="0.11642">
        <ele>1806</ele>
        <time>2017-02-25T10:30:06Z</time>
      </trkpt>
      <trkpt lat="42.88262" lon="0.11635">
        <ele>1806</ele>
        <time>2017-02-25T10:30:07Z</time>
      </trkpt>
      <trkpt lat="42.88267" lon="0.1162">
        <ele>1802</ele>
        <time>2017-02-25T10:30:09Z</time>
      </trkpt>
      <trkpt lat="42.88266" lon="0.11611">
        <ele>1801</ele>
        <time>2017-02-25T10:30:10Z</time>
      </trkpt>
      <trkpt lat="42.88256" lon="0.1157">
        <ele>1797</ele>
        <time>2017-02-25T10:30:14Z</time>
      </trkpt>
      <trkpt lat="42.88254" lon="0.11566">
        <ele>1796</ele>
        <time>2017-02-25T10:30:15Z</time>
      </trkpt>
      <trkpt lat="42.88251" lon="0.11561">
        <ele>1795</ele>
        <time>2017-02-25T10:30:16Z</time>
      </trkpt>
      <trkpt lat="42.88251" lon="0.11554">
        <ele>1794</ele>
        <time>2017-02-25T10:30:17Z</time>
      </trkpt>
      <trkpt lat="42.88253" lon="0.11547">
        <ele>1794</ele>
        <time>2017-02-25T10:30:18Z</time>
      </trkpt>
      <trkpt lat="42.88253" lon="0.11541">
        <ele>1793</ele>
        <time>2017-02-25T10:30:19Z</time>
      </trkpt>
      <trkpt lat="42.88252" lon="0.11534">
        <ele>1792</ele>
        <time>2017-02-25T10:30:21Z</time>
      </trkpt>
      <trkpt lat="42.88253" lon="0.11524">
        <ele>1791</ele>
        <time>2017-02-25T10:30:23Z</time>
      </trkpt>
      <trkpt lat="42.88259" lon="0.11511">
        <ele>1789</ele>
        <time>2017-02-25T10:30:25Z</time>
      </trkpt>
      <trkpt lat="42.88261" lon="0.11504">
        <ele>1789</ele>
        <time>2017-02-25T10:30:26Z</time>
      </trkpt>
      <trkpt lat="42.8826" lon="0.11489">
        <ele>1787</ele>
        <time>2017-02-25T10:30:28Z</time>
      </trkpt>
      <trkpt lat="42.8826" lon="0.1148">
        <ele>1785</ele>
        <time>2017-02-25T10:30:29Z</time>
      </trkpt>
      <trkpt lat="42.88266" lon="0.11454">
        <ele>1783</ele>
        <time>2017-02-25T10:30:32Z</time>
      </trkpt>
      <trkpt lat="42.88269" lon="0.11446">
        <ele>1781</ele>
        <time>2017-02-25T10:30:33Z</time>
      </trkpt>
      <trkpt lat="42.88274" lon="0.1142">
        <ele>1777</ele>
        <time>2017-02-25T10:30:36Z</time>
      </trkpt>
      <trkpt lat="42.88276" lon="0.11415">
        <ele>1776</ele>
        <time>2017-02-25T10:30:37Z</time>
      </trkpt>
      <trkpt lat="42.88278" lon="0.11407">
        <ele>1776</ele>
        <time>2017-02-25T10:30:38Z</time>
      </trkpt>
      <trkpt lat="42.88276" lon="0.11348">
        <ele>1766</ele>
        <time>2017-02-25T10:30:43Z</time>
      </trkpt>
      <trkpt lat="42.8828" lon="0.11325">
        <ele>1764</ele>
        <time>2017-02-25T10:30:46Z</time>
      </trkpt>
      <trkpt lat="42.88285" lon="0.11232">
        <ele>1758</ele>
        <time>2017-02-25T10:30:53Z</time>
      </trkpt>
      <trkpt lat="42.88284" lon="0.11215">
        <ele>1755</ele>
        <time>2017-02-25T10:30:55Z</time>
      </trkpt>
      <trkpt lat="42.88309" lon="0.1119">
        <ele>1753</ele>
        <time>2017-02-25T10:30:57Z</time>
      </trkpt>
      <trkpt lat="42.88321" lon="0.1117">
        <ele>1748</ele>
        <time>2017-02-25T10:30:59Z</time>
      </trkpt>
      <trkpt lat="42.88329" lon="0.11163">
        <ele>1747</ele>
        <time>2017-02-25T10:31:00Z</time>
      </trkpt>
      <trkpt lat="42.88339" lon="0.11159">
        <ele>1747</ele>
        <time>2017-02-25T10:31:01Z</time>
      </trkpt>
      <trkpt lat="42.88363" lon="0.11152">
        <ele>1744</ele>
        <time>2017-02-25T10:31:05Z</time>
      </trkpt>
      <trkpt lat="42.88381" lon="0.1115">
        <ele>1741</ele>
        <time>2017-02-25T10:31:08Z</time>
      </trkpt>
      <trkpt lat="42.88393" lon="0.11144">
        <ele>1740</ele>
        <time>2017-02-25T10:31:10Z</time>
      </trkpt>
      <trkpt lat="42.88395" lon="0.11139">
        <ele>1740</ele>
        <time>2017-02-25T10:31:11Z</time>
      </trkpt>
      <trkpt lat="42.88401" lon="0.11122">
        <ele>1739</ele>
        <time>2017-02-25T10:31:14Z</time>
      </trkpt>
      <trkpt lat="42.88404" lon="0.11116">
        <ele>1739</ele>
        <time>2017-02-25T10:31:15Z</time>
      </trkpt>
      <trkpt lat="42.88407" lon="0.11111">
        <ele>1739</ele>
        <time>2017-02-25T10:31:16Z</time>
      </trkpt>
      <trkpt lat="42.88429" lon="0.11081">
        <ele>1737</ele>
        <time>2017-02-25T10:31:22Z</time>
      </trkpt>
      <trkpt lat="42.8848" lon="0.11008">
        <ele>1731</ele>
        <time>2017-02-25T10:31:35Z</time>
      </trkpt>
      <trkpt lat="42.88495" lon="0.10988">
        <ele>1729</ele>
        <time>2017-02-25T10:31:38Z</time>
      </trkpt>
      <trkpt lat="42.88507" lon="0.1097">
        <ele>1728</ele>
        <time>2017-02-25T10:31:40Z</time>
      </trkpt>
      <trkpt lat="42.88534" lon="0.10939">
        <ele>1725</ele>
        <time>2017-02-25T10:31:44Z</time>
      </trkpt>
      <trkpt lat="42.88549" lon="0.10926">
        <ele>1723</ele>
        <time>2017-02-25T10:31:46Z</time>
      </trkpt>
      <trkpt lat="42.88565" lon="0.10916">
        <ele>1722</ele>
        <time>2017-02-25T10:31:48Z</time>
      </trkpt>
      <trkpt lat="42.88578" lon="0.109">
        <ele>1719</ele>
        <time>2017-02-25T10:31:50Z</time>
      </trkpt>
      <trkpt lat="42.88624" lon="0.10863">
        <ele>1710</ele>
        <time>2017-02-25T10:31:56Z</time>
      </trkpt>
      <trkpt lat="42.88638" lon="0.10856">
        <ele>1706</ele>
        <time>2017-02-25T10:31:58Z</time>
      </trkpt>
      <trkpt lat="42.88644" lon="0.1085">
        <ele>1704</ele>
        <time>2017-02-25T10:31:59Z</time>
      </trkpt>
      <trkpt lat="42.8865" lon="0.10843">
        <ele>1701</ele>
        <time>2017-02-25T10:32:00Z</time>
      </trkpt>
      <trkpt lat="42.88655" lon="0.10838">
        <ele>1701</ele>
        <time>2017-02-25T10:32:01Z</time>
      </trkpt>
      <trkpt lat="42.88663" lon="0.10836">
        <ele>1698</ele>
        <time>2017-02-25T10:32:02Z</time>
      </trkpt>
      <trkpt lat="42.88673" lon="0.10837">
        <ele>1697</ele>
        <time>2017-02-25T10:32:03Z</time>
      </trkpt>
      <trkpt lat="42.88693" lon="0.10836">
        <ele>1695</ele>
        <time>2017-02-25T10:32:05Z</time>
      </trkpt>
      <trkpt lat="42.887" lon="0.10837">
        <ele>1693</ele>
        <time>2017-02-25T10:32:06Z</time>
      </trkpt>
      <trkpt lat="42.88708" lon="0.10836">
        <ele>1692</ele>
        <time>2017-02-25T10:32:07Z</time>
      </trkpt>
      <trkpt lat="42.88723" lon="0.10833">
        <ele>1689</ele>
        <time>2017-02-25T10:32:09Z</time>
      </trkpt>
      <trkpt lat="42.88742" lon="0.10834">
        <ele>1685</ele>
        <time>2017-02-25T10:32:13Z</time>
      </trkpt>
      <trkpt lat="42.88768" lon="0.10832">
        <ele>1683</ele>
        <time>2017-02-25T10:32:17Z</time>
      </trkpt>
      <trkpt lat="42.88775" lon="0.10831">
        <ele>1682</ele>
        <time>2017-02-25T10:32:18Z</time>
      </trkpt>
      <trkpt lat="42.88781" lon="0.10827">
        <ele>1682</ele>
        <time>2017-02-25T10:32:19Z</time>
      </trkpt>
      <trkpt lat="42.88857" lon="0.10792">
        <ele>1672</ele>
        <time>2017-02-25T10:32:28Z</time>
      </trkpt>
      <trkpt lat="42.88886" lon="0.10783">
        <ele>1668</ele>
        <time>2017-02-25T10:32:31Z</time>
      </trkpt>
      <trkpt lat="42.88896" lon="0.10779">
        <ele>1668</ele>
        <time>2017-02-25T10:32:32Z</time>
      </trkpt>
      <trkpt lat="42.88905" lon="0.10773">
        <ele>1668</ele>
        <time>2017-02-25T10:32:33Z</time>
      </trkpt>
      <trkpt lat="42.88939" lon="0.10749">
        <ele>1664</ele>
        <time>2017-02-25T10:32:37Z</time>
      </trkpt>
      <trkpt lat="42.88947" lon="0.10745">
        <ele>1664</ele>
        <time>2017-02-25T10:32:38Z</time>
      </trkpt>
      <trkpt lat="42.88956" lon="0.10742">
        <ele>1664</ele>
        <time>2017-02-25T10:32:39Z</time>
      </trkpt>
      <trkpt lat="42.88965" lon="0.10741">
        <ele>1663</ele>
        <time>2017-02-25T10:32:40Z</time>
      </trkpt>
      <trkpt lat="42.88983" lon="0.10741">
        <ele>1661</ele>
        <time>2017-02-25T10:32:42Z</time>
      </trkpt>
      <trkpt lat="42.8902" lon="0.10745">
        <ele>1658</ele>
        <time>2017-02-25T10:32:46Z</time>
      </trkpt>
      <trkpt lat="42.89039" lon="0.10743">
        <ele>1656</ele>
        <time>2017-02-25T10:32:48Z</time>
      </trkpt>
      <trkpt lat="42.89048" lon="0.10742">
        <ele>1656</ele>
        <time>2017-02-25T10:32:49Z</time>
      </trkpt>
      <trkpt lat="42.89058" lon="0.10739">
        <ele>1656</ele>
        <time>2017-02-25T10:32:50Z</time>
      </trkpt>
      <trkpt lat="42.89067" lon="0.10734">
        <ele>1654</ele>
        <time>2017-02-25T10:32:51Z</time>
      </trkpt>
      <trkpt lat="42.89084" lon="0.10721">
        <ele>1650</ele>
        <time>2017-02-25T10:32:53Z</time>
      </trkpt>
      <trkpt lat="42.89094" lon="0.10718">
        <ele>1648</ele>
        <time>2017-02-25T10:32:54Z</time>
      </trkpt>
      <trkpt lat="42.89122" lon="0.10719">
        <ele>1647</ele>
        <time>2017-02-25T10:32:57Z</time>
      </trkpt>
      <trkpt lat="42.89133" lon="0.10717">
        <ele>1646</ele>
        <time>2017-02-25T10:32:58Z</time>
      </trkpt>
      <trkpt lat="42.89162" lon="0.10707">
        <ele>1641</ele>
        <time>2017-02-25T10:33:01Z</time>
      </trkpt>
      <trkpt lat="42.89172" lon="0.10706">
        <ele>1641</ele>
        <time>2017-02-25T10:33:02Z</time>
      </trkpt>
      <trkpt lat="42.89181" lon="0.10707">
        <ele>1640</ele>
        <time>2017-02-25T10:33:03Z</time>
      </trkpt>
      <trkpt lat="42.89244" lon="0.1072">
        <ele>1631</ele>
        <time>2017-02-25T10:33:09Z</time>
      </trkpt>
      <trkpt lat="42.89274" lon="0.10723">
        <ele>1627</ele>
        <time>2017-02-25T10:33:12Z</time>
      </trkpt>
      <trkpt lat="42.89317" lon="0.10731">
        <ele>1622</ele>
        <time>2017-02-25T10:33:16Z</time>
      </trkpt>
      <trkpt lat="42.89327" lon="0.10736">
        <ele>1622</ele>
        <time>2017-02-25T10:33:17Z</time>
      </trkpt>
      <trkpt lat="42.89354" lon="0.10758">
        <ele>1614</ele>
        <time>2017-02-25T10:33:20Z</time>
      </trkpt>
      <trkpt lat="42.89364" lon="0.10761">
        <ele>1613</ele>
        <time>2017-02-25T10:33:21Z</time>
      </trkpt>
      <trkpt lat="42.89405" lon="0.10756">
        <ele>1606</ele>
        <time>2017-02-25T10:33:25Z</time>
      </trkpt>
      <trkpt lat="42.89427" lon="0.10757">
        <ele>1605</ele>
        <time>2017-02-25T10:33:27Z</time>
      </trkpt>
      <trkpt lat="42.89459" lon="0.10749">
        <ele>1602</ele>
        <time>2017-02-25T10:33:30Z</time>
      </trkpt>
      <trkpt lat="42.8947" lon="0.10748">
        <ele>1601</ele>
        <time>2017-02-25T10:33:31Z</time>
      </trkpt>
      <trkpt lat="42.89481" lon="0.10749">
        <ele>1599</ele>
        <time>2017-02-25T10:33:32Z</time>
      </trkpt>
      <trkpt lat="42.89502" lon="0.10753">
        <ele>1597</ele>
        <time>2017-02-25T10:33:34Z</time>
      </trkpt>
      <trkpt lat="42.89585" lon="0.1078">
        <ele>1584</ele>
        <time>2017-02-25T10:33:43Z</time>
      </trkpt>
      <trkpt lat="42.89605" lon="0.10783">
        <ele>1580</ele>
        <time>2017-02-25T10:33:45Z</time>
      </trkpt>
      <trkpt lat="42.89614" lon="0.10783">
        <ele>1579</ele>
        <time>2017-02-25T10:33:46Z</time>
      </trkpt>
      <trkpt lat="42.8965" lon="0.10766">
        <ele>1573</ele>
        <time>2017-02-25T10:33:50Z</time>
      </trkpt>
      <trkpt lat="42.89659" lon="0.10764">
        <ele>1572</ele>
        <time>2017-02-25T10:33:51Z</time>
      </trkpt>
      <trkpt lat="42.89669" lon="0.10763">
        <ele>1572</ele>
        <time>2017-02-25T10:33:52Z</time>
      </trkpt>
      <trkpt lat="42.89686" lon="0.10764">
        <ele>1568</ele>
        <time>2017-02-25T10:33:55Z</time>
      </trkpt>
      <trkpt lat="42.89706" lon="0.10765">
        <ele>1564</ele>
        <time>2017-02-25T10:33:58Z</time>
      </trkpt>
      <trkpt lat="42.89717" lon="0.10759">
        <ele>1563</ele>
        <time>2017-02-25T10:34:00Z</time>
      </trkpt>
      <trkpt lat="42.898" lon="0.10686">
        <ele>1550</ele>
        <time>2017-02-25T10:34:09Z</time>
      </trkpt>
      <trkpt lat="42.89808" lon="0.10681">
        <ele>1548</ele>
        <time>2017-02-25T10:34:10Z</time>
      </trkpt>
      <trkpt lat="42.89824" lon="0.10667">
        <ele>1546</ele>
        <time>2017-02-25T10:34:12Z</time>
      </trkpt>
      <trkpt lat="42.89842" lon="0.10657">
        <ele>1545</ele>
        <time>2017-02-25T10:34:14Z</time>
      </trkpt>
      <trkpt lat="42.89859" lon="0.10641">
        <ele>1541</ele>
        <time>2017-02-25T10:34:16Z</time>
      </trkpt>
      <trkpt lat="42.89873" lon="0.10621">
        <ele>1534</ele>
        <time>2017-02-25T10:34:18Z</time>
      </trkpt>
      <trkpt lat="42.8989" lon="0.10606">
        <ele>1528</ele>
        <time>2017-02-25T10:34:20Z</time>
      </trkpt>
      <trkpt lat="42.89914" lon="0.10574">
        <ele>1519</ele>
        <time>2017-02-25T10:34:24Z</time>
      </trkpt>
      <trkpt lat="42.89924" lon="0.10561">
        <ele>1517</ele>
        <time>2017-02-25T10:34:25Z</time>
      </trkpt>
      <trkpt lat="42.8993" lon="0.10551">
        <ele>1515</ele>
        <time>2017-02-25T10:34:26Z</time>
      </trkpt>
      <trkpt lat="42.89936" lon="0.10545">
        <ele>1513</ele>
        <time>2017-02-25T10:34:27Z</time>
      </trkpt>
      <trkpt lat="42.89942" lon="0.10538">
        <ele>1512</ele>
        <time>2017-02-25T10:34:28Z</time>
      </trkpt>
      <trkpt lat="42.89947" lon="0.10529">
        <ele>1511</ele>
        <time>2017-02-25T10:34:29Z</time>
      </trkpt>
      <trkpt lat="42.89953" lon="0.10522">
        <ele>1509</ele>
        <time>2017-02-25T10:34:30Z</time>
      </trkpt>
      <trkpt lat="42.89959" lon="0.1052">
        <ele>1507</ele>
        <time>2017-02-25T10:34:31Z</time>
      </trkpt>
      <trkpt lat="42.89961" lon="0.10516">
        <ele>1506</ele>
        <time>2017-02-25T10:34:32Z</time>
      </trkpt>
      <trkpt lat="42.89961" lon="0.10511">
        <ele>1506</ele>
        <time>2017-02-25T10:34:33Z</time>
      </trkpt>
      <trkpt lat="42.89955" lon="0.10499">
        <ele>1503</ele>
        <time>2017-02-25T10:34:35Z</time>
      </trkpt>
      <trkpt lat="42.89945" lon="0.10487">
        <ele>1501</ele>
        <time>2017-02-25T10:34:37Z</time>
      </trkpt>
      <trkpt lat="42.89943" lon="0.1048">
        <ele>1501</ele>
        <time>2017-02-25T10:34:38Z</time>
      </trkpt>
      <trkpt lat="42.89943" lon="0.10472">
        <ele>1500</ele>
        <time>2017-02-25T10:34:39Z</time>
      </trkpt>
      <trkpt lat="42.89946" lon="0.10466">
        <ele>1500</ele>
        <time>2017-02-25T10:34:40Z</time>
      </trkpt>
      <trkpt lat="42.89968" lon="0.10449">
        <ele>1497</ele>
        <time>2017-02-25T10:34:44Z</time>
      </trkpt>
      <trkpt lat="42.89975" lon="0.10444">
        <ele>1497</ele>
        <time>2017-02-25T10:34:45Z</time>
      </trkpt>
      <trkpt lat="42.89995" lon="0.10449">
        <ele>1493</ele>
        <time>2017-02-25T10:34:48Z</time>
      </trkpt>
      <trkpt lat="42.89997" lon="0.10454">
        <ele>1492</ele>
        <time>2017-02-25T10:34:49Z</time>
      </trkpt>
      <trkpt lat="42.89994" lon="0.10467">
        <ele>1493</ele>
        <time>2017-02-25T10:34:55Z</time>
      </trkpt>
      <trkpt lat="42.89989" lon="0.10474">
        <ele>1494</ele>
        <time>2017-02-25T10:35:00Z</time>
      </trkpt>
      <trkpt lat="42.89988" lon="0.10475">
        <ele>1494</ele>
        <time>2017-02-25T10:35:01Z</time>
      </trkpt>
      <trkpt lat="42.89988" lon="0.10477">
        <ele>1495</ele>
        <time>2017-02-25T10:35:02Z</time>
      </trkpt>
      <trkpt lat="42.8998" lon="0.10483">
        <ele>1496</ele>
        <time>2017-02-25T10:35:09Z</time>
      </trkpt>
      <trkpt lat="42.89979" lon="0.10486">
        <ele>1497</ele>
        <time>2017-02-25T10:35:18Z</time>
      </trkpt>
      <trkpt lat="42.89978" lon="0.1049">
        <ele>1497</ele>
        <time>2017-02-25T10:35:29Z</time>
      </trkpt>
      <trkpt lat="42.89975" lon="0.10494">
        <ele>1497</ele>
        <time>2017-02-25T10:35:40Z</time>
      </trkpt>
      <trkpt lat="42.89975" lon="0.10495">
        <ele>1498</ele>
        <time>2017-02-25T10:35:55Z</time>
      </trkpt>
    </trkseg>
  </trk>
</gpx>